| time (UTC) | temp F | wind direction | speed MPH | gust MPH | rain 1hr in | rain 24hr in | rain mn in | humidity % | barometer mb |
| 20260508153400 | 67 | 83 | 3.0 | 6.0 | 0.00 | 0.00 | 0.00 | 50 | 1012.1 |
| 20260508153300 | 67 | 63 | 2.0 | 6.0 | 0.00 | 0.00 | 0.00 | 49 | 1012.1 |
| 20260508153201 | 67 | 114 | 3.0 | 6.0 | 0.00 | 0.00 | 0.00 | 49 | 1012.1 |
| 20260508153101 | 67 | 71 | 3.0 | 6.0 | 0.00 | 0.00 | 0.00 | 49 | 1012.1 |
| 20260508153001 | 67 | 47 | 3.0 | 8.0 | 0.00 | 0.00 | 0.00 | 49 | 1012.3 |
| 20260508152901 | 67 | 65 | 3.0 | 8.0 | 0.00 | 0.00 | 0.00 | 48 | 1012.3 |
| 20260508152801 | 67 | 101 | 3.0 | 8.0 | 0.00 | 0.00 | 0.00 | 49 | 1012.3 |
| 20260508152701 | 67 | 85 | 3.0 | 8.0 | 0.00 | 0.00 | 0.00 | 49 | 1012.3 |
| 20260508152601 | 67 | 95 | 3.0 | 8.0 | 0.00 | 0.00 | 0.00 | 49 | 1012.3 |
| 20260508152501 | 67 | 99 | 3.0 | 8.0 | 0.00 | 0.00 | 0.00 | 49 | 1012.3 |
| 20260508152400 | 67 | 130 | 3.0 | 8.0 | 0.00 | 0.00 | 0.00 | 49 | 1012.3 |
| 20260508152300 | 67 | 59 | 3.0 | 8.0 | 0.00 | 0.00 | 0.00 | 49 | 1012.3 |
| 20260508152201 | 67 | 97 | 3.0 | 8.0 | 0.00 | 0.00 | 0.00 | 49 | 1012.3 |
| 20260508152101 | 67 | 102 | 3.0 | 8.0 | 0.00 | 0.00 | 0.00 | 49 | 1012.3 |
| 20260508152001 | 67 | 355 | 3.0 | 6.0 | 0.00 | 0.00 | 0.00 | 49 | 1012.3 |
| 20260508151901 | 67 | 329 | 3.0 | 6.0 | 0.00 | 0.00 | 0.00 | 50 | 1012.4 |
| 20260508151800 | 67 | 50 | 3.0 | 6.0 | 0.00 | 0.00 | 0.00 | 50 | 1012.4 |
| 20260508151700 | 67 | 29 | 3.0 | 7.0 | 0.00 | 0.00 | 0.00 | 50 | 1012.4 |
| 20260508151600 | 67 | 5 | 3.0 | 8.0 | 0.00 | 0.00 | 0.00 | 49 | 1012.4 |
| 20260508151500 | 67 | 49 | 3.0 | 8.0 | 0.00 | 0.00 | 0.00 | 49 | 1012.4 |
| 20260508151400 | 67 | 16 | 3.0 | 8.0 | 0.00 | 0.00 | 0.00 | 50 | 1012.4 |
| 20260508151300 | 67 | 331 | 3.0 | 8.0 | 0.00 | 0.00 | 0.00 | 50 | 1012.5 |
| 20260508151201 | 67 | 24 | 3.0 | 8.0 | 0.00 | 0.00 | 0.00 | 52 | 1012.4 |
| 20260508151101 | 67 | 46 | 4.0 | 12.0 | 0.00 | 0.00 | 0.00 | 51 | 1012.5 |
| 20260508151001 | 67 | 47 | 4.0 | 12.0 | 0.00 | 0.00 | 0.00 | 51 | 1012.5 |
| 20260508150901 | 66 | 37 | 4.0 | 12.0 | 0.00 | 0.00 | 0.00 | 52 | 1012.5 |
| 20260508150801 | 66 | 5 | 4.0 | 12.0 | 0.00 | 0.00 | 0.00 | 51 | 1012.5 |
| 20260508150700 | 66 | 59 | 4.0 | 12.0 | 0.00 | 0.00 | 0.00 | 51 | 1012.5 |
| 20260508150601 | 66 | 91 | 4.0 | 12.0 | 0.00 | 0.00 | 0.00 | 52 | 1012.5 |
| 20260508150500 | 66 | 108 | 4.0 | 12.0 | 0.00 | 0.00 | 0.00 | 52 | 1012.5 |
| 20260508150401 | 66 | 76 | 4.0 | 12.0 | 0.00 | 0.00 | 0.00 | 52 | 1012.6 |
| 20260508150300 | 66 | 69 | 3.0 | 12.0 | 0.00 | 0.00 | 0.00 | 52 | 1012.6 |
| 20260508150201 | 66 | 145 | 3.0 | 12.0 | 0.00 | 0.00 | 0.00 | 53 | 1012.5 |
| 20260508150101 | 66 | 78 | 3.0 | 9.0 | 0.00 | 0.00 | 0.00 | 53 | 1012.5 |
| 20260508150001 | 66 | 31 | 2.0 | 9.0 | 0.00 | 0.00 | 0.00 | 53 | 1012.5 |
| 20260508145900 | 66 | 90 | 2.0 | 9.0 | 0.00 | 0.00 | 0.00 | 53 | 1012.6 |
| 20260508145800 | 66 | 87 | 2.0 | 9.0 | 0.00 | 0.00 | 0.00 | 52 | 1012.6 |
| 20260508145701 | 66 | 61 | 2.0 | 7.0 | 0.00 | 0.00 | 0.00 | 50 | 1012.6 |
| 20260508145600 | 66 | 117 | 2.0 | 9.0 | 0.00 | 0.00 | 0.00 | 50 | 1012.6 |
| 20260508145500 | 66 | 103 | 2.0 | 9.0 | 0.00 | 0.00 | 0.00 | 50 | 1012.6 |
| 20260508145425 | 66 | 110 | 2.0 | 9.0 | 0.00 | 0.00 | 0.00 | 50 | 1012.6 |
| 20260508145421 | 66 | 111 | 2.0 | 10.0 | 0.00 | 0.00 | 0.00 | 51 | 1012.6 |
| 20260508145411 | 66 | 109 | 3.0 | 10.0 | 0.00 | 0.00 | 0.00 | 50 | 1012.6 |
| 20260508145100 | 67 | 109 | 3.0 | 10.0 | 0.00 | 0.00 | 0.00 | 50 | 1012.6 |
| 20260508145001 | 67 | 112 | 3.0 | 10.0 | 0.00 | 0.00 | 0.00 | 49 | 1012.6 |
| 20260508144901 | 67 | 109 | 3.0 | 10.0 | 0.00 | 0.00 | 0.00 | 49 | 1012.6 |
| 20260508144801 | 67 | 93 | 3.0 | 10.0 | 0.00 | 0.00 | 0.00 | 49 | 1012.6 |
| 20260508144700 | 67 | 95 | 3.0 | 10.0 | 0.00 | 0.00 | 0.00 | 49 | 1012.6 |
| 20260508144601 | 67 | 59 | 3.0 | 10.0 | 0.00 | 0.00 | 0.00 | 49 | 1012.6 |
| 20260508144501 | 67 | 77 | 3.0 | 10.0 | 0.00 | 0.00 | 0.00 | 50 | 1012.6 |
| 20260508144401 | 67 | 88 | 2.0 | 10.0 | 0.00 | 0.00 | 0.00 | 49 | 1012.6 |
| 20260508144302 | 67 | 84 | 2.0 | 7.0 | 0.00 | 0.00 | 0.00 | 49 | 1012.6 |
| 20260508144201 | 68 | 73 | 2.0 | 7.0 | 0.00 | 0.00 | 0.00 | 49 | 1012.6 |
| 20260508144100 | 68 | 73 | 2.0 | 7.0 | 0.00 | 0.00 | 0.00 | 48 | 1012.6 |
| 20260508144000 | 68 | 72 | 2.0 | 7.0 | 0.00 | 0.00 | 0.00 | 48 | 1012.6 |
| 20260508143900 | 68 | 58 | 3.0 | 7.0 | 0.00 | 0.00 | 0.00 | 51 | 1012.6 |
| 20260508143801 | 68 | 37 | 3.0 | 7.0 | 0.00 | 0.00 | 0.00 | 49 | 1012.6 |
| 20260508143700 | 68 | 30 | 3.0 | 7.0 | 0.00 | 0.00 | 0.00 | 51 | 1012.6 |
| 20260508143601 | 68 | 70 | 2.0 | 7.0 | 0.00 | 0.00 | 0.00 | 50 | 1012.6 |
| 20260508143500 | 68 | 82 | 2.0 | 7.0 | 0.00 | 0.00 | 0.00 | 50 | 1012.6 |
| 20260508143400 | 68 | 78 | 2.0 | 7.0 | 0.00 | 0.00 | 0.00 | 49 | 1012.6 |
| 20260508143301 | 68 | 73 | 2.0 | 7.0 | 0.00 | 0.00 | 0.00 | 48 | 1012.6 |
| 20260508143200 | 68 | 54 | 2.0 | 7.0 | 0.00 | 0.00 | 0.00 | 49 | 1012.6 |
| 20260508143101 | 68 | 11 | 2.0 | 7.0 | 0.00 | 0.00 | 0.00 | 51 | 1012.7 |
| 20260508143001 | 68 | 63 | 2.0 | 7.0 | 0.00 | 0.00 | 0.00 | 50 | 1012.7 |
| 20260508142901 | 68 | 57 | 2.0 | 7.0 | 0.00 | 0.00 | 0.00 | 49 | 1012.7 |
| 20260508142801 | 68 | 37 | 2.0 | 7.0 | 0.00 | 0.00 | 0.00 | 49 | 1012.7 |
| 20260508142700 | 68 | 120 | 2.0 | 7.0 | 0.00 | 0.00 | 0.00 | 49 | 1012.7 |
| 20260508142601 | 67 | 129 | 2.0 | 7.0 | 0.00 | 0.00 | 0.00 | 50 | 1012.7 |
| 20260508142500 | 67 | 78 | 2.0 | 7.0 | 0.00 | 0.00 | 0.00 | 50 | 1012.7 |
| 20260508142400 | 67 | 77 | 2.0 | 7.0 | 0.00 | 0.00 | 0.00 | 51 | 1012.7 |
| 20260508142300 | 67 | 69 | 2.0 | 7.0 | 0.00 | 0.00 | 0.00 | 50 | 1012.6 |
| 20260508142205 | 67 | 74 | 2.0 | 6.0 | 0.00 | 0.00 | 0.00 | 50 | 1012.7 |
| 20260508142100 | 67 | 65 | 2.0 | 6.0 | 0.00 | 0.00 | 0.00 | 50 | 1012.7 |
| 20260508142000 | 67 | 79 | 2.0 | 6.0 | 0.00 | 0.00 | 0.00 | 49 | 1012.7 |
| 20260508141900 | 67 | 98 | 2.0 | 6.0 | 0.00 | 0.00 | 0.00 | 49 | 1012.6 |
| 20260508141800 | 67 | 98 | 2.0 | 6.0 | 0.00 | 0.00 | 0.00 | 49 | 1012.7 |
| 20260508141703 | 67 | 99 | 2.0 | 6.0 | 0.00 | 0.00 | 0.00 | 50 | 1012.7 |
| 20260508141601 | 67 | 94 | 2.0 | 6.0 | 0.00 | 0.00 | 0.00 | 51 | 1012.7 |
| 20260508141501 | 67 | 57 | 2.0 | 5.0 | 0.00 | 0.00 | 0.00 | 50 | 1012.7 |
| 20260508141401 | 67 | 128 | 2.0 | 5.0 | 0.00 | 0.00 | 0.00 | 49 | 1012.7 |
| 20260508141300 | 67 | 103 | 2.0 | 6.0 | 0.00 | 0.00 | 0.00 | 49 | 1012.7 |
| 20260508141201 | 67 | 103 | 2.0 | 6.0 | 0.00 | 0.00 | 0.00 | 50 | 1012.7 |
| 20260508141100 | 67 | 83 | 2.0 | 7.0 | 0.00 | 0.00 | 0.00 | 51 | 1012.7 |
| 20260508141000 | 67 | 59 | 2.0 | 10.0 | 0.00 | 0.00 | 0.00 | 54 | 1012.7 |
| 20260508140901 | 67 | 42 | 2.0 | 10.0 | 0.00 | 0.00 | 0.00 | 52 | 1012.7 |
| 20260508140801 | 66 | 68 | 2.0 | 10.0 | 0.00 | 0.00 | 0.00 | 52 | 1012.8 |
| 20260508140700 | 66 | 68 | 2.0 | 10.0 | 0.00 | 0.00 | 0.00 | 52 | 1012.7 |
| 20260508140601 | 66 | 78 | 2.0 | 10.0 | 0.00 | 0.00 | 0.00 | 53 | 1012.8 |
| 20260508140501 | 66 | 78 | 2.0 | 10.0 | 0.00 | 0.00 | 0.00 | 52 | 1012.8 |
| 20260508140421 | 66 | 80 | 3.0 | 10.0 | 0.00 | 0.00 | 0.00 | 51 | 1012.8 |
| 20260508140417 | 66 | 108 | 2.0 | 10.0 | 0.00 | 0.00 | 0.00 | 50 | 1012.8 |
| 20260508140413 | 66 | 98 | 2.0 | 10.0 | 0.00 | 0.00 | 0.00 | 51 | 1012.8 |
| 20260508140101 | 66 | 84 | 2.0 | 10.0 | 0.00 | 0.00 | 0.00 | 51 | 1012.9 |
| 20260508140001 | 67 | 84 | 2.0 | 7.0 | 0.00 | 0.00 | 0.00 | 51 | 1012.9 |
| 20260508135900 | 67 | 90 | 3.0 | 7.0 | 0.00 | 0.00 | 0.00 | 50 | 1012.9 |
| 20260508135800 | 67 | 64 | 3.0 | 7.0 | 0.00 | 0.00 | 0.00 | 52 | 1012.9 |
| 20260508135700 | 67 | 56 | 3.0 | 7.0 | 0.00 | 0.00 | 0.00 | 53 | 1012.9 |
| 20260508135601 | 67 | 51 | 3.0 | 7.0 | 0.00 | 0.00 | 0.00 | 52 | 1012.9 |
| 20260508135501 | 66 | 81 | 3.0 | 8.0 | 0.00 | 0.00 | 0.00 | 51 | 1012.9 |
| 20260508135400 | 67 | 112 | 3.0 | 8.0 | 0.00 | 0.00 | 0.00 | 50 | 1012.9 |
| 20260508135300 | 67 | 72 | 3.0 | 8.0 | 0.00 | 0.00 | 0.00 | 51 | 1012.9 |
| 20260508135200 | 67 | 71 | 3.0 | 8.0 | 0.00 | 0.00 | 0.00 | 51 | 1012.9 |
| 20260508135100 | 67 | 111 | 3.0 | 8.0 | 0.00 | 0.00 | 0.00 | 51 | 1012.9 |
| 20260508135000 | 67 | 74 | 4.0 | 9.0 | 0.00 | 0.00 | 0.00 | 51 | 1012.9 |
| 20260508134900 | 67 | 107 | 4.0 | 9.0 | 0.00 | 0.00 | 0.00 | 51 | 1012.9 |
| 20260508134800 | 67 | 90 | 4.0 | 10.0 | 0.00 | 0.00 | 0.00 | 51 | 1012.9 |
| 20260508134700 | 67 | 52 | 4.0 | 10.0 | 0.00 | 0.00 | 0.00 | 52 | 1012.9 |
| 20260508134601 | 67 | 5 | 4.0 | 10.0 | 0.00 | 0.00 | 0.00 | 51 | 1013.0 |
| 20260508134500 | 67 | 49 | 4.0 | 10.0 | 0.00 | 0.00 | 0.00 | 51 | 1013.0 |
| 20260508134401 | 67 | 59 | 3.0 | 10.0 | 0.00 | 0.00 | 0.00 | 52 | 1013.0 |
| 20260508134300 | 67 | 44 | 3.0 | 10.0 | 0.00 | 0.00 | 0.00 | 50 | 1013.0 |
| 20260508134201 | 67 | 75 | 3.0 | 10.0 | 0.00 | 0.00 | 0.00 | 50 | 1013.0 |
| 20260508134102 | 67 | 91 | 3.0 | 10.0 | 0.00 | 0.00 | 0.00 | 51 | 1013.0 |
| 20260508134001 | 67 | 94 | 3.0 | 10.0 | 0.00 | 0.00 | 0.00 | 52 | 1013.0 |
| 20260508133901 | 67 | 77 | 3.0 | 10.0 | 0.00 | 0.00 | 0.00 | 52 | 1013.0 |
| 20260508133801 | 67 | 69 | 3.0 | 10.0 | 0.00 | 0.00 | 0.00 | 51 | 1013.0 |
| 20260508133701 | 67 | 187 | 3.0 | 10.0 | 0.00 | 0.00 | 0.00 | 52 | 1013.0 |
| 20260508133601 | 66 | 57 | 2.0 | 10.0 | 0.00 | 0.00 | 0.00 | 53 | 1013.0 |
| 20260508133501 | 66 | 48 | 2.0 | 7.0 | 0.00 | 0.00 | 0.00 | 53 | 1013.0 |
| 20260508133401 | 66 | 323 | 2.0 | 7.0 | 0.00 | 0.00 | 0.00 | 51 | 1013.0 |
| 20260508133301 | 66 | 115 | 2.0 | 7.0 | 0.00 | 0.00 | 0.00 | 51 | 1013.0 |
| 20260508133201 | 66 | 118 | 2.0 | 7.0 | 0.00 | 0.00 | 0.00 | 51 | 1012.9 |
| 20260508133100 | 66 | 142 | 2.0 | 6.0 | 0.00 | 0.00 | 0.00 | 50 | 1013.0 |
| 20260508133000 | 66 | 117 | 2.0 | 6.0 | 0.00 | 0.00 | 0.00 | 51 | 1013.1 |
| 20260508132901 | 66 | 86 | 2.0 | 6.0 | 0.00 | 0.00 | 0.00 | 49 | 1013.1 |
| 20260508132801 | 66 | 86 | 2.0 | 6.0 | 0.00 | 0.00 | 0.00 | 51 | 1013.0 |
| 20260508132701 | 66 | 94 | 2.0 | 6.0 | 0.00 | 0.00 | 0.00 | 51 | 1013.1 |
| 20260508132601 | 66 | 92 | 2.0 | 6.0 | 0.00 | 0.00 | 0.00 | 50 | 1013.0 |
| 20260508132501 | 66 | 100 | 2.0 | 6.0 | 0.00 | 0.00 | 0.00 | 50 | 1013.1 |
| 20260508132401 | 66 | 98 | 1.0 | 6.0 | 0.00 | 0.00 | 0.00 | 52 | 1013.0 |
| 20260508132300 | 66 | 92 | 1.0 | 6.0 | 0.00 | 0.00 | 0.00 | 50 | 1013.0 |
| 20260508132200 | 66 | 112 | 1.0 | 6.0 | 0.00 | 0.00 | 0.00 | 52 | 1013.0 |
| 20260508132100 | 66 | 112 | 2.0 | 6.0 | 0.00 | 0.00 | 0.00 | 53 | 1013.1 |
| 20260508132000 | 66 | 117 | 1.0 | 6.0 | 0.00 | 0.00 | 0.00 | 51 | 1013.0 |
| 20260508131859 | 66 | 105 | 2.0 | 6.0 | 0.00 | 0.00 | 0.00 | 52 | 1013.0 |
| 20260508131754 | 66 | 133 | 2.0 | 7.0 | 0.00 | 0.00 | 0.00 | 52 | 1013.1 |
| 20260508131701 | 66 | 56 | 2.0 | 8.0 | 0.00 | 0.00 | 0.00 | 51 | 1013.1 |
| 20260508131652 | 66 | 56 | 2.0 | 8.0 | 0.00 | 0.00 | 0.00 | 51 | 1013.1 |
| 20260508131552 | 66 | 55 | 2.0 | 8.0 | 0.00 | 0.00 | 0.00 | 51 | 1013.1 |
| 20260508131452 | 66 | 76 | 2.0 | 8.0 | 0.00 | 0.00 | 0.00 | 51 | 1013.1 |
| 20260508131351 | 66 | 76 | 3.0 | 8.0 | 0.00 | 0.00 | 0.00 | 52 | 1013.1 |
| 20260508131246 | 66 | 67 | 3.0 | 8.0 | 0.00 | 0.00 | 0.00 | 52 | 1013.1 |
| 20260508131201 | 67 | 93 | 3.0 | 8.0 | 0.00 | 0.00 | 0.00 | 53 | 1013.1 |
| 20260508131146 | 67 | 97 | 3.0 | 8.0 | 0.00 | 0.00 | 0.00 | 52 | 1013.1 |
| 20260508131047 | 67 | 82 | 4.0 | 8.0 | 0.00 | 0.00 | 0.00 | 53 | 1013.1 |
| 20260508130946 | 67 | 119 | 4.0 | 10.0 | 0.00 | 0.00 | 0.00 | 52 | 1013.1 |
| 20260508130926 | 67 | 117 | 4.0 | 11.0 | 0.00 | 0.00 | 0.00 | 51 | 1013.1 |
| 20260508130916 | 67 | 93 | 4.0 | 11.0 | 0.00 | 0.00 | 0.00 | 52 | 1013.1 |
| 20260508130912 | 67 | 55 | 4.0 | 11.0 | 0.00 | 0.00 | 0.00 | 52 | 1013.1 |
| 20260508130642 | 67 | 57 | 4.0 | 11.0 | 0.00 | 0.00 | 0.00 | 50 | 1013.1 |
| 20260508130541 | 67 | 76 | 4.0 | 11.0 | 0.00 | 0.00 | 0.00 | 51 | 1013.2 |
| 20260508130440 | 67 | 53 | 4.0 | 11.0 | 0.00 | 0.00 | 0.00 | 52 | 1013.2 |
| 20260508130339 | 67 | 75 | 4.0 | 11.0 | 0.00 | 0.00 | 0.00 | 52 | 1013.2 |
| 20260508130236 | 67 | 30 | 4.0 | 11.0 | 0.00 | 0.00 | 0.00 | 53 | 1013.2 |
| 20260508130200 | 67 | 50 | 4.0 | 11.0 | 0.00 | 0.00 | 0.00 | 53 | 1013.2 |
| 20260508130136 | 67 | 90 | 4.0 | 11.0 | 0.00 | 0.00 | 0.00 | 53 | 1013.2 |
| 20260508130036 | 67 | 60 | 4.0 | 11.0 | 0.00 | 0.00 | 0.00 | 53 | 1013.2 |
| 20260508125936 | 67 | 51 | 4.0 | 11.0 | 0.00 | 0.00 | 0.00 | 54 | 1013.2 |
| 20260508125929 | 66 | 17 | 3.0 | 11.0 | 0.00 | 0.00 | 0.00 | 56 | 1013.3 |
| 20260508125916 | 66 | 78 | 4.0 | 11.0 | 0.00 | 0.00 | 0.00 | 55 | 1013.3 |
| 20260508125912 | 66 | 14 | 3.0 | 11.0 | 0.00 | 0.00 | 0.00 | 54 | 1013.3 |
| 20260508125635 | 66 | 49 | 3.0 | 11.0 | 0.00 | 0.00 | 0.00 | 56 | 1013.3 |
| 20260508125535 | 66 | 46 | 3.0 | 10.0 | 0.00 | 0.00 | 0.00 | 55 | 1013.3 |
| 20260508125434 | 65 | 12 | 3.0 | 9.0 | 0.00 | 0.00 | 0.00 | 55 | 1013.3 |
| 20260508125334 | 65 | 66 | 3.0 | 10.0 | 0.00 | 0.00 | 0.00 | 54 | 1013.3 |
| 20260508125234 | 65 | 119 | 4.0 | 11.0 | 0.00 | 0.00 | 0.00 | 55 | 1013.3 |
| 20260508125200 | 65 | 12 | 4.0 | 12.0 | 0.00 | 0.00 | 0.00 | 56 | 1013.3 |
| 20260508125132 | 65 | 34 | 3.0 | 12.0 | 0.00 | 0.00 | 0.00 | 56 | 1013.3 |
| 20260508125030 | 65 | 321 | 3.0 | 12.0 | 0.00 | 0.00 | 0.00 | 56 | 1013.3 |
| 20260508124831 | 65 | 76 | 3.0 | 12.0 | 0.00 | 0.00 | 0.00 | 55 | 1013.4 |
| 20260508124702 | 65 | 38 | 3.0 | 12.0 | 0.00 | 0.00 | 0.00 | 55 | 1013.4 |
| 20260508124629 | 65 | 335 | 3.0 | 12.0 | 0.00 | 0.00 | 0.00 | 55 | 1013.4 |
| 20260508124529 | 65 | 69 | 3.0 | 12.0 | 0.00 | 0.00 | 0.00 | 55 | 1013.4 |
| 20260508124429 | 64 | 88 | 3.0 | 12.0 | 0.00 | 0.00 | 0.00 | 55 | 1013.4 |
| 20260508124329 | 64 | 5 | 2.0 | 12.0 | 0.00 | 0.00 | 0.00 | 56 | 1013.4 |
| 20260508124229 | 64 | 78 | 2.0 | 12.0 | 0.00 | 0.00 | 0.00 | 55 | 1013.4 |
| 20260508124201 | 64 | 66 | 2.0 | 10.0 | 0.00 | 0.00 | 0.00 | 55 | 1013.4 |
| 20260508124129 | 65 | 86 | 2.0 | 5.0 | 0.00 | 0.00 | 0.00 | 55 | 1013.4 |
| 20260508124029 | 65 | 86 | 2.0 | 5.0 | 0.00 | 0.00 | 0.00 | 53 | 1013.5 |
| 20260508123929 | 65 | 107 | 2.0 | 6.0 | 0.00 | 0.00 | 0.00 | 53 | 1013.4 |
| 20260508123829 | 65 | 98 | 2.0 | 6.0 | 0.00 | 0.00 | 0.00 | 53 | 1013.4 |
| 20260508123729 | 65 | 88 | 2.0 | 7.0 | 0.00 | 0.00 | 0.00 | 54 | 1013.4 |
| 20260508123701 | 65 | 90 | 2.0 | 7.0 | 0.00 | 0.00 | 0.00 | 54 | 1013.4 |
| 20260508123629 | 65 | 36 | 3.0 | 8.0 | 0.00 | 0.00 | 0.00 | 56 | 1013.4 |
| 20260508123529 | 65 | 72 | 3.0 | 9.0 | 0.00 | 0.00 | 0.00 | 55 | 1013.4 |
| 20260508123429 | 65 | 80 | 3.0 | 9.0 | 0.00 | 0.00 | 0.00 | 53 | 1013.4 |
| 20260508123329 | 65 | 115 | 3.0 | 9.0 | 0.00 | 0.00 | 0.00 | 53 | 1013.4 |
| 20260508123229 | 65 | 171 | 3.0 | 9.0 | 0.00 | 0.00 | 0.00 | 53 | 1013.4 |
| 20260508123201 | 65 | 172 | 3.0 | 9.0 | 0.00 | 0.00 | 0.00 | 53 | 1013.4 |
| 20260508123128 | 65 | 133 | 3.0 | 9.0 | 0.00 | 0.00 | 0.00 | 54 | 1013.4 |
| 20260508123029 | 65 | 99 | 3.0 | 9.0 | 0.00 | 0.00 | 0.00 | 54 | 1013.4 |
| 20260508122929 | 65 | 105 | 3.0 | 9.0 | 0.00 | 0.00 | 0.00 | 53 | 1013.4 |
| 20260508122828 | 65 | 105 | 3.0 | 9.0 | 0.00 | 0.00 | 0.00 | 55 | 1013.4 |
| 20260508122728 | 65 | 91 | 3.0 | 9.0 | 0.00 | 0.00 | 0.00 | 56 | 1013.3 |
| 20260508122701 | 65 | 92 | 3.0 | 9.0 | 0.00 | 0.00 | 0.00 | 56 | 1013.3 |
| 20260508122628 | 65 | 355 | 2.0 | 9.0 | 0.00 | 0.00 | 0.00 | 57 | 1013.4 |
| 20260508122529 | 64 | 328 | 2.0 | 9.0 | 0.00 | 0.00 | 0.00 | 55 | 1013.4 |
| 20260508122429 | 64 | 348 | 2.0 | 9.0 | 0.00 | 0.00 | 0.00 | 55 | 1013.4 |
| 20260508122329 | 64 | 348 | 3.0 | 9.0 | 0.00 | 0.00 | 0.00 | 57 | 1013.4 |
| 20260508122228 | 64 | 348 | 2.0 | 9.0 | 0.00 | 0.00 | 0.00 | 58 | 1013.5 |
| 20260508122200 | 64 | 5 | 2.0 | 9.0 | 0.00 | 0.00 | 0.00 | 58 | 1013.5 |
| 20260508122128 | 64 | 34 | 2.0 | 9.0 | 0.00 | 0.00 | 0.00 | 56 | 1013.4 |
| 20260508122026 | 64 | 32 | 2.0 | 9.0 | 0.00 | 0.00 | 0.00 | 54 | 1013.5 |
| 20260508121927 | 64 | 46 | 2.0 | 5.0 | 0.00 | 0.00 | 0.00 | 54 | 1013.5 |
| 20260508121922 | 64 | 16 | 2.0 | 8.0 | 0.00 | 0.00 | 0.00 | 54 | 1013.5 |
| 20260508121917 | 64 | 310 | 2.0 | 5.0 | 0.00 | 0.00 | 0.00 | 56 | 1013.5 |
| 20260508121913 | 64 | 16 | 2.0 | 5.0 | 0.00 | 0.00 | 0.00 | 55 | 1013.5 |
| 20260508121618 | 64 | 88 | 2.0 | 8.0 | 0.00 | 0.00 | 0.00 | 55 | 1013.5 |
| 20260508121518 | 64 | 100 | 2.0 | 8.0 | 0.00 | 0.00 | 0.00 | 54 | 1013.5 |
| 20260508121417 | 64 | 96 | 2.0 | 8.0 | 0.00 | 0.00 | 0.00 | 53 | 1013.5 |
| 20260508121312 | 64 | 69 | 2.0 | 8.0 | 0.00 | 0.00 | 0.00 | 54 | 1013.5 |
| 20260508121201 | 64 | 105 | 2.0 | 8.0 | 0.00 | 0.00 | 0.00 | 54 | 1013.5 |
| 20260508121113 | 64 | 113 | 2.0 | 8.0 | 0.00 | 0.00 | 0.00 | 55 | 1013.5 |
| 20260508121012 | 64 | 100 | 2.0 | 8.0 | 0.00 | 0.00 | 0.00 | 56 | 1013.5 |
| 20260508120923 | 64 | 57 | 2.0 | 8.0 | 0.00 | 0.00 | 0.00 | 58 | 1013.5 |
| 20260508120919 | 64 | 94 | 2.0 | 8.0 | 0.00 | 0.00 | 0.00 | 55 | 1013.4 |
| 20260508120915 | 64 | 104 | 2.0 | 8.0 | 0.00 | 0.00 | 0.00 | 56 | 1013.4 |
| 20260508120911 | 64 | 109 | 2.0 | 8.0 | 0.00 | 0.00 | 0.00 | 58 | 1013.5 |
| 20260508120606 | 64 | 105 | 2.0 | 8.0 | 0.00 | 0.00 | 0.00 | 57 | 1013.4 |
| 20260508120506 | 64 | 64 | 2.0 | 8.0 | 0.00 | 0.00 | 0.00 | 56 | 1013.4 |
| 20260508120405 | 64 | 94 | 2.0 | 8.0 | 0.00 | 0.00 | 0.00 | 57 | 1013.5 |
| 20260508120304 | 64 | 67 | 2.0 | 8.0 | 0.00 | 0.00 | 0.00 | 58 | 1013.4 |
| 20260508120201 | 64 | 246 | 2.0 | 8.0 | 0.00 | 0.00 | 0.00 | 57 | 1013.4 |
| 20260508120002 | 64 | 247 | 2.0 | 10.0 | 0.00 | 0.00 | 0.00 | 57 | 1013.5 |
| 20260508115902 | 64 | 110 | 2.0 | 10.0 | 0.00 | 0.00 | 0.00 | 56 | 1013.5 |
| 20260508115802 | 64 | 99 | 2.0 | 10.0 | 0.00 | 0.00 | 0.00 | 58 | 1013.5 |
| 20260508115701 | 64 | 110 | 2.0 | 10.0 | 0.00 | 0.00 | 0.00 | 57 | 1013.4 |
| 20260508115602 | 64 | 78 | 2.0 | 10.0 | 0.00 | 0.00 | 0.00 | 56 | 1013.5 |
| 20260508115502 | 63 | 63 | 2.0 | 10.0 | 0.00 | 0.00 | 0.00 | 58 | 1013.4 |
| 20260508115402 | 63 | 111 | 2.0 | 10.0 | 0.00 | 0.00 | 0.00 | 57 | 1013.5 |
| 20260508115306 | 63 | 96 | 2.0 | 10.0 | 0.00 | 0.00 | 0.00 | 57 | 1013.4 |
| 20260508115201 | 63 | 107 | 2.0 | 10.0 | 0.00 | 0.00 | 0.00 | 58 | 1013.5 |
| 20260508115102 | 63 | 78 | 2.0 | 8.0 | 0.00 | 0.00 | 0.00 | 57 | 1013.4 |
| 20260508115002 | 63 | 342 | 2.0 | 8.0 | 0.00 | 0.00 | 0.00 | 58 | 1013.4 |
| 20260508114921 | 63 | 93 | 2.0 | 8.0 | 0.00 | 0.00 | 0.00 | 59 | 1013.4 |
| 20260508114917 | 63 | 89 | 3.0 | 8.0 | 0.00 | 0.00 | 0.00 | 60 | 1013.4 |
| 20260508114913 | 63 | 107 | 2.0 | 8.0 | 0.00 | 0.00 | 0.00 | 60 | 1013.4 |
| 20260508114600 | 63 | 91 | 2.0 | 7.0 | 0.00 | 0.00 | 0.00 | 58 | 1013.4 |
| 20260508114500 | 63 | 73 | 3.0 | 8.0 | 0.00 | 0.00 | 0.00 | 59 | 1013.4 |
| 20260508114400 | 63 | 91 | 2.0 | 8.0 | 0.00 | 0.00 | 0.00 | 57 | 1013.4 |
| 20260508114300 | 63 | 109 | 2.0 | 8.0 | 0.00 | 0.00 | 0.00 | 59 | 1013.4 |
| 20260508114204 | 63 | 107 | 2.0 | 8.0 | 0.00 | 0.00 | 0.00 | 62 | 1013.4 |
| 20260508114159 | 63 | 107 | 2.0 | 8.0 | 0.00 | 0.00 | 0.00 | 62 | 1013.4 |
| 20260508114056 | 63 | 81 | 2.0 | 8.0 | 0.00 | 0.00 | 0.00 | 61 | 1013.4 |
| 20260508113956 | 63 | 54 | 2.0 | 8.0 | 0.00 | 0.00 | 0.00 | 60 | 1013.4 |
| 20260508113856 | 62 | 54 | 2.0 | 8.0 | 0.00 | 0.00 | 0.00 | 59 | 1013.5 |
| 20260508113756 | 62 | 130 | 2.0 | 8.0 | 0.00 | 0.00 | 0.00 | 61 | 1013.5 |
| 20260508113701 | 62 | 78 | 2.0 | 8.0 | 0.00 | 0.00 | 0.00 | 60 | 1013.5 |
| 20260508113654 | 62 | 117 | 2.0 | 8.0 | 0.00 | 0.00 | 0.00 | 60 | 1013.4 |
| 20260508113550 | 62 | 78 | 2.0 | 8.0 | 0.00 | 0.00 | 0.00 | 60 | 1013.5 |
| 20260508113448 | 62 | 119 | 3.0 | 8.0 | 0.00 | 0.00 | 0.00 | 60 | 1013.4 |
| 20260508113348 | 62 | 101 | 3.0 | 8.0 | 0.00 | 0.00 | 0.00 | 59 | 1013.5 |
| 20260508113248 | 62 | 90 | 3.0 | 8.0 | 0.00 | 0.00 | 0.00 | 61 | 1013.5 |
| 20260508113201 | 62 | 104 | 3.0 | 8.0 | 0.00 | 0.00 | 0.00 | 61 | 1013.5 |
| 20260508113148 | 62 | 77 | 3.0 | 8.0 | 0.00 | 0.00 | 0.00 | 61 | 1013.5 |
| 20260508113044 | 62 | 156 | 3.0 | 8.0 | 0.00 | 0.00 | 0.00 | 60 | 1013.5 |
| 20260508112944 | 62 | 146 | 3.0 | 8.0 | 0.00 | 0.00 | 0.00 | 60 | 1013.5 |
| 20260508112844 | 62 | 96 | 3.0 | 8.0 | 0.00 | 0.00 | 0.00 | 60 | 1013.5 |
| 20260508112744 | 62 | 96 | 4.0 | 8.0 | 0.00 | 0.00 | 0.00 | 59 | 1013.5 |
| 20260508112702 | 62 | 111 | 4.0 | 8.0 | 0.00 | 0.00 | 0.00 | 59 | 1013.5 |
| 20260508112642 | 62 | 72 | 3.0 | 8.0 | 0.00 | 0.00 | 0.00 | 60 | 1013.6 |
| 20260508112538 | 62 | 105 | 3.0 | 9.0 | 0.00 | 0.00 | 0.00 | 60 | 1013.5 |
| 20260508112438 | 62 | 79 | 3.0 | 9.0 | 0.00 | 0.00 | 0.00 | 60 | 1013.5 |
| 20260508112338 | 63 | 114 | 3.0 | 9.0 | 0.00 | 0.00 | 0.00 | 60 | 1013.6 |
| 20260508112238 | 63 | 91 | 4.0 | 9.0 | 0.00 | 0.00 | 0.00 | 60 | 1013.6 |
| 20260508112201 | 63 | 124 | 4.0 | 12.0 | 0.00 | 0.00 | 0.00 | 60 | 1013.6 |
| 20260508112135 | 63 | 90 | 4.0 | 12.0 | 0.00 | 0.00 | 0.00 | 60 | 1013.6 |
| 20260508112034 | 62 | 56 | 3.0 | 12.0 | 0.00 | 0.00 | 0.00 | 59 | 1013.6 |
| 20260508111929 | 62 | 65 | 3.0 | 12.0 | 0.00 | 0.00 | 0.00 | 60 | 1013.6 |
| 20260508111829 | 62 | 69 | 3.0 | 12.0 | 0.00 | 0.00 | 0.00 | 60 | 1013.6 |
| 20260508111729 | 62 | 57 | 3.0 | 12.0 | 0.00 | 0.00 | 0.00 | 62 | 1013.6 |
| 20260508111701 | 62 | 96 | 3.0 | 12.0 | 0.00 | 0.00 | 0.00 | 62 | 1013.6 |
| 20260508111630 | 62 | 82 | 3.0 | 12.0 | 0.00 | 0.00 | 0.00 | 60 | 1013.6 |
| 20260508111524 | 62 | 103 | 3.0 | 12.0 | 0.00 | 0.00 | 0.00 | 60 | 1013.6 |
| 20260508111430 | 62 | 141 | 2.0 | 7.0 | 0.00 | 0.00 | 0.00 | 61 | 1013.6 |
| 20260508111424 | 62 | 109 | 3.0 | 12.0 | 0.00 | 0.00 | 0.00 | 60 | 1013.6 |
| 20260508111416 | 62 | 125 | 2.0 | 12.0 | 0.00 | 0.00 | 0.00 | 61 | 1013.6 |
| 20260508111412 | 62 | 82 | 2.0 | 12.0 | 0.00 | 0.00 | 0.00 | 60 | 1013.6 |
| 20260508111123 | 62 | 151 | 2.0 | 7.0 | 0.00 | 0.00 | 0.00 | 61 | 1013.7 |
| 20260508111024 | 62 | 96 | 2.0 | 5.0 | 0.00 | 0.00 | 0.00 | 59 | 1013.7 |
| 20260508110930 | 62 | 73 | 2.0 | 7.0 | 0.00 | 0.00 | 0.00 | 63 | 1013.7 |
| 20260508110922 | 62 | 59 | 2.0 | 7.0 | 0.00 | 0.00 | 0.00 | 60 | 1013.7 |
| 20260508110917 | 62 | 97 | 2.0 | 7.0 | 0.00 | 0.00 | 0.00 | 62 | 1013.7 |
| 20260508110913 | 62 | 80 | 2.0 | 7.0 | 0.00 | 0.00 | 0.00 | 62 | 1013.7 |
| 20260508110617 | 62 | 76 | 2.0 | 7.0 | 0.00 | 0.00 | 0.00 | 62 | 1013.7 |
| 20260508110512 | 62 | 149 | 2.0 | 7.0 | 0.00 | 0.00 | 0.00 | 61 | 1013.7 |
| 20260508110412 | 62 | 103 | 2.0 | 7.0 | 0.00 | 0.00 | 0.00 | 60 | 1013.8 |
| 20260508110312 | 62 | 88 | 2.0 | 7.0 | 0.00 | 0.00 | 0.00 | 61 | 1013.8 |
| 20260508110200 | 62 | 67 | 2.0 | 7.0 | 0.00 | 0.00 | 0.00 | 62 | 1013.7 |
| 20260508110111 | 62 | 86 | 2.0 | 7.0 | 0.00 | 0.00 | 0.00 | 63 | 1013.7 |
| 20260508110007 | 61 | 69 | 2.0 | 7.0 | 0.00 | 0.00 | 0.00 | 62 | 1013.7 |
| 20260508105905 | 61 | 97 | 2.0 | 7.0 | 0.00 | 0.00 | 0.00 | 61 | 1013.7 |
| 20260508105806 | 61 | 49 | 2.0 | 7.0 | 0.00 | 0.00 | 0.00 | 62 | 1013.7 |
| 20260508105706 | 61 | 92 | 2.0 | 7.0 | 0.00 | 0.00 | 0.00 | 60 | 1013.7 |
| 20260508105701 | 61 | 105 | 2.0 | 7.0 | 0.00 | 0.00 | 0.00 | 60 | 1013.7 |
| 20260508105606 | 61 | 90 | 2.0 | 7.0 | 0.00 | 0.00 | 0.00 | 61 | 1013.8 |
| 20260508105506 | 61 | 113 | 2.0 | 7.0 | 0.00 | 0.00 | 0.00 | 63 | 1013.8 |
| 20260508105306 | 61 | 82 | 2.0 | 11.0 | 0.00 | 0.00 | 0.00 | 64 | 1013.7 |
| 20260508105201 | 61 | 90 | 2.0 | 11.0 | 0.00 | 0.00 | 0.00 | 65 | 1013.8 |
| 20260508105102 | 61 | 101 | 2.0 | 11.0 | 0.00 | 0.00 | 0.00 | 64 | 1013.7 |
| 20260508105004 | 61 | 105 | 2.0 | 11.0 | 0.00 | 0.00 | 0.00 | 63 | 1013.8 |
| 20260508104921 | 61 | 105 | 3.0 | 11.0 | 0.00 | 0.00 | 0.00 | 63 | 1013.8 |
| 20260508104917 | 61 | 98 | 2.0 | 11.0 | 0.00 | 0.00 | 0.00 | 65 | 1013.8 |
| 20260508104913 | 61 | 79 | 2.0 | 11.0 | 0.00 | 0.00 | 0.00 | 64 | 1013.8 |
| 20260508104604 | 61 | 81 | 2.0 | 11.0 | 0.00 | 0.00 | 0.00 | 62 | 1013.8 |
| 20260508104501 | 61 | 86 | 2.0 | 11.0 | 0.00 | 0.00 | 0.00 | 62 | 1013.8 |
| 20260508104401 | 61 | 103 | 2.0 | 9.0 | 0.00 | 0.00 | 0.00 | 63 | 1013.8 |
| 20260508104301 | 61 | 84 | 2.0 | 9.0 | 0.00 | 0.00 | 0.00 | 64 | 1013.8 |
| 20260508104201 | 61 | 112 | 3.0 | 9.0 | 0.00 | 0.00 | 0.00 | 63 | 1013.8 |
| 20260508104101 | 61 | 83 | 3.0 | 9.0 | 0.00 | 0.00 | 0.00 | 63 | 1013.8 |
| 20260508104001 | 61 | 77 | 3.0 | 9.0 | 0.00 | 0.00 | 0.00 | 63 | 1013.9 |
| 20260508103901 | 61 | 96 | 3.0 | 9.0 | 0.00 | 0.00 | 0.00 | 64 | 1013.8 |
| 20260508103801 | 61 | 55 | 3.0 | 9.0 | 0.00 | 0.00 | 0.00 | 63 | 1013.9 |
| 20260508103700 | 61 | 115 | 3.0 | 9.0 | 0.00 | 0.00 | 0.00 | 63 | 1013.9 |
| 20260508103600 | 61 | 78 | 3.0 | 9.0 | 0.00 | 0.00 | 0.00 | 63 | 1013.9 |
| 20260508103501 | 61 | 121 | 2.0 | 9.0 | 0.00 | 0.00 | 0.00 | 64 | 1013.9 |
| 20260508103401 | 61 | 104 | 2.0 | 9.0 | 0.00 | 0.00 | 0.00 | 64 | 1013.9 |
| 20260508103300 | 61 | 30 | 2.0 | 9.0 | 0.00 | 0.00 | 0.00 | 64 | 1013.9 |
| 20260508103200 | 61 | 69 | 2.0 | 9.0 | 0.00 | 0.00 | 0.00 | 64 | 1013.9 |
| 20260508103101 | 61 | 110 | 2.0 | 9.0 | 0.00 | 0.00 | 0.00 | 66 | 1013.9 |
| 20260508103001 | 61 | 140 | 2.0 | 8.0 | 0.00 | 0.00 | 0.00 | 65 | 1013.9 |
| 20260508102901 | 61 | 81 | 2.0 | 8.0 | 0.00 | 0.00 | 0.00 | 65 | 1013.9 |
| 20260508102801 | 61 | 91 | 2.0 | 8.0 | 0.00 | 0.00 | 0.00 | 66 | 1013.9 |
| 20260508102700 | 61 | 115 | 3.0 | 12.0 | 0.00 | 0.00 | 0.00 | 66 | 1013.9 |
| 20260508102600 | 61 | 98 | 3.0 | 12.0 | 0.00 | 0.00 | 0.00 | 64 | 1013.9 |
| 20260508102501 | 60 | 94 | 3.0 | 12.0 | 0.00 | 0.00 | 0.00 | 65 | 1013.9 |
| 20260508102401 | 60 | 75 | 3.0 | 12.0 | 0.00 | 0.00 | 0.00 | 64 | 1013.9 |
| 20260508102301 | 60 | 138 | 3.0 | 12.0 | 0.00 | 0.00 | 0.00 | 67 | 1013.9 |
| 20260508102200 | 60 | 109 | 3.0 | 12.0 | 0.00 | 0.00 | 0.00 | 65 | 1013.9 |
| 20260508102100 | 60 | 91 | 4.0 | 12.0 | 0.00 | 0.00 | 0.00 | 65 | 1014.1 |
| 20260508102002 | 60 | 76 | 4.0 | 12.0 | 0.00 | 0.00 | 0.00 | 64 | 1014.1 |
| 20260508101902 | 60 | 132 | 3.0 | 12.0 | 0.00 | 0.00 | 0.00 | 65 | 1013.9 |
| 20260508101801 | 60 | 101 | 3.0 | 12.0 | 0.00 | 0.00 | 0.00 | 64 | 1014.1 |
| 20260508101701 | 60 | 70 | 3.0 | 11.0 | 0.00 | 0.00 | 0.00 | 65 | 1014.1 |
| 20260508101601 | 60 | 144 | 3.0 | 9.0 | 0.00 | 0.00 | 0.00 | 66 | 1014.1 |
| 20260508101501 | 60 | 92 | 3.0 | 9.0 | 0.00 | 0.00 | 0.00 | 66 | 1014.1 |
| 20260508101401 | 60 | 108 | 3.0 | 9.0 | 0.00 | 0.00 | 0.00 | 68 | 1014.1 |
| 20260508101301 | 60 | 119 | 2.0 | 9.0 | 0.00 | 0.00 | 0.00 | 68 | 1014.2 |
| 20260508101202 | 60 | 91 | 2.0 | 9.0 | 0.00 | 0.00 | 0.00 | 69 | 1014.1 |
| 20260508101101 | 60 | 110 | 2.0 | 9.0 | 0.00 | 0.00 | 0.00 | 68 | 1014.2 |
| 20260508101001 | 59 | 86 | 2.0 | 9.0 | 0.00 | 0.00 | 0.00 | 68 | 1014.2 |
| 20260508100901 | 59 | 101 | 2.0 | 9.0 | 0.00 | 0.00 | 0.00 | 67 | 1014.2 |
| 20260508100801 | 59 | 108 | 2.0 | 9.0 | 0.00 | 0.00 | 0.00 | 67 | 1014.2 |
| 20260508100701 | 59 | 93 | 2.0 | 9.0 | 0.00 | 0.00 | 0.00 | 67 | 1014.2 |
| 20260508100601 | 59 | 79 | 1.0 | 5.0 | 0.00 | 0.00 | 0.00 | 69 | 1014.2 |
| 20260508100507 | 59 | 103 | 1.0 | 4.0 | 0.00 | 0.00 | 0.00 | 69 | 1014.2 |
| 20260508100401 | 59 | 134 | 1.0 | 4.0 | 0.00 | 0.00 | 0.00 | 69 | 1014.2 |
| 20260508100300 | 58 | 97 | 1.0 | 4.0 | 0.00 | 0.00 | 0.00 | 68 | 1014.2 |
| 20260508100200 | 58 | 110 | 2.0 | 4.0 | 0.00 | 0.00 | 0.00 | 70 | 1014.2 |
| 20260508100100 | 58 | 114 | 2.0 | 9.0 | 0.00 | 0.00 | 0.00 | 69 | 1014.2 |
| 20260508100007 | 58 | 105 | 2.0 | 9.0 | 0.00 | 0.00 | 0.00 | 69 | 1014.3 |
| 20260508095900 | 58 | 92 | 2.0 | 9.0 | 0.00 | 0.00 | 0.00 | 68 | 1014.2 |
| 20260508095800 | 58 | 98 | 2.0 | 9.0 | 0.00 | 0.00 | 0.00 | 68 | 1014.3 |
| 20260508095701 | 58 | 98 | 3.0 | 9.0 | 0.00 | 0.00 | 0.00 | 68 | 1014.3 |
| 20260508095601 | 58 | 98 | 3.0 | 9.0 | 0.00 | 0.00 | 0.00 | 68 | 1014.3 |
| 20260508095501 | 58 | 109 | 3.0 | 9.0 | 0.00 | 0.00 | 0.00 | 70 | 1014.3 |
| 20260508095401 | 58 | 77 | 3.0 | 9.0 | 0.00 | 0.00 | 0.00 | 69 | 1014.3 |
| 20260508095301 | 58 | 77 | 3.0 | 9.0 | 0.00 | 0.00 | 0.00 | 69 | 1014.3 |
| 20260508095200 | 58 | 105 | 3.0 | 9.0 | 0.00 | 0.00 | 0.00 | 69 | 1014.3 |
| 20260508095101 | 58 | 38 | 3.0 | 9.0 | 0.00 | 0.00 | 0.00 | 69 | 1014.4 |
| 20260508095001 | 58 | 108 | 3.0 | 8.0 | 0.00 | 0.00 | 0.00 | 68 | 1014.3 |
| 20260508094901 | 58 | 77 | 3.0 | 8.0 | 0.00 | 0.00 | 0.00 | 69 | 1014.3 |
| 20260508094801 | 58 | 76 | 3.0 | 8.0 | 0.00 | 0.00 | 0.00 | 69 | 1014.3 |
| 20260508094701 | 58 | 74 | 2.0 | 8.0 | 0.00 | 0.00 | 0.00 | 70 | 1014.3 |
| 20260508094601 | 58 | 76 | 2.0 | 8.0 | 0.00 | 0.00 | 0.00 | 70 | 1014.3 |
| 20260508094501 | 58 | 136 | 2.0 | 8.0 | 0.00 | 0.00 | 0.00 | 70 | 1014.2 |
| 20260508094401 | 58 | 67 | 2.0 | 8.0 | 0.00 | 0.00 | 0.00 | 70 | 1014.3 |
| 20260508094301 | 58 | 42 | 2.0 | 7.0 | 0.00 | 0.00 | 0.00 | 69 | 1014.3 |
| 20260508094201 | 58 | 127 | 2.0 | 8.0 | 0.00 | 0.00 | 0.00 | 69 | 1014.3 |
| 20260508094101 | 58 | 84 | 2.0 | 8.0 | 0.00 | 0.00 | 0.00 | 69 | 1014.3 |
| 20260508094001 | 58 | 53 | 2.0 | 8.0 | 0.00 | 0.00 | 0.00 | 69 | 1014.3 |
| 20260508093902 | 58 | 94 | 2.0 | 8.0 | 0.00 | 0.00 | 0.00 | 68 | 1014.2 |
| 20260508093801 | 58 | 87 | 2.0 | 8.0 | 0.00 | 0.00 | 0.00 | 70 | 1014.3 |
| 20260508093701 | 58 | 107 | 2.0 | 8.0 | 0.00 | 0.00 | 0.00 | 69 | 1014.3 |
| 20260508093601 | 58 | 67 | 2.0 | 8.0 | 0.00 | 0.00 | 0.00 | 70 | 1014.3 |
| 20260508093501 | 58 | 72 | 2.0 | 8.0 | 0.00 | 0.00 | 0.00 | 71 | 1014.3 |
| 20260508093401 | 58 | 100 | 2.0 | 8.0 | 0.00 | 0.00 | 0.00 | 70 | 1014.3 |
| 20260508093300 | 58 | 47 | 2.0 | 8.0 | 0.00 | 0.00 | 0.00 | 70 | 1014.3 |
| 20260508093200 | 58 | 197 | 2.0 | 8.0 | 0.00 | 0.00 | 0.00 | 71 | 1014.3 |
| 20260508093100 | 58 | 85 | 2.0 | 8.0 | 0.00 | 0.00 | 0.00 | 72 | 1014.3 |
| 20260508093000 | 57 | 122 | 2.0 | 8.0 | 0.00 | 0.00 | 0.00 | 72 | 1014.3 |
| 20260508092901 | 57 | 123 | 2.0 | 8.0 | 0.00 | 0.00 | 0.00 | 72 | 1014.3 |
| 20260508092801 | 57 | 124 | 2.0 | 8.0 | 0.00 | 0.00 | 0.00 | 71 | 1014.3 |
| 20260508092701 | 57 | 119 | 2.0 | 8.0 | 0.00 | 0.00 | 0.00 | 69 | 1014.3 |
| 20260508092600 | 57 | 134 | 3.0 | 8.0 | 0.00 | 0.00 | 0.00 | 70 | 1014.3 |
| 20260508092500 | 57 | 127 | 3.0 | 9.0 | 0.00 | 0.00 | 0.00 | 69 | 1014.3 |
| 20260508092401 | 57 | 126 | 3.0 | 9.0 | 0.00 | 0.00 | 0.00 | 70 | 1014.3 |
| 20260508092301 | 57 | 46 | 3.0 | 9.0 | 0.00 | 0.00 | 0.00 | 70 | 1014.3 |
| 20260508092201 | 57 | 109 | 2.0 | 9.0 | 0.00 | 0.00 | 0.00 | 72 | 1014.3 |
| 20260508092101 | 57 | 68 | 2.0 | 9.0 | 0.00 | 0.00 | 0.00 | 72 | 1014.2 |
| 20260508092001 | 57 | 53 | 2.0 | 9.0 | 0.00 | 0.00 | 0.00 | 73 | 1014.2 |
| 20260508091901 | 57 | 61 | 2.0 | 9.0 | 0.00 | 0.00 | 0.00 | 71 | 1014.2 |
| 20260508091801 | 57 | 80 | 2.0 | 9.0 | 0.00 | 0.00 | 0.00 | 71 | 1014.2 |
| 20260508091702 | 57 | 69 | 2.0 | 9.0 | 0.00 | 0.00 | 0.00 | 74 | 1014.2 |
| 20260508091602 | 57 | 72 | 2.0 | 9.0 | 0.00 | 0.00 | 0.00 | 75 | 1014.2 |
| 20260508091501 | 57 | 96 | 3.0 | 8.0 | 0.00 | 0.00 | 0.00 | 74 | 1014.2 |
| 20260508091401 | 56 | 73 | 3.0 | 8.0 | 0.00 | 0.00 | 0.00 | 74 | 1014.2 |
| 20260508091301 | 56 | 75 | 3.0 | 8.0 | 0.00 | 0.00 | 0.00 | 73 | 1014.2 |
| 20260508091201 | 56 | 71 | 3.0 | 8.0 | 0.00 | 0.00 | 0.00 | 74 | 1014.2 |
| 20260508091100 | 56 | 69 | 2.0 | 8.0 | 0.00 | 0.00 | 0.00 | 74 | 1014.2 |
| 20260508091001 | 56 | 63 | 2.0 | 8.0 | 0.00 | 0.01 | 0.00 | 73 | 1014.2 |
| 20260508090859 | 56 | 75 | 2.0 | 8.0 | 0.00 | 0.01 | 0.00 | 73 | 1014.2 |
| 20260508090753 | 56 | 77 | 2.0 | 8.0 | 0.00 | 0.01 | 0.00 | 73 | 1014.2 |
| 20260508090701 | 56 | 88 | 2.0 | 8.0 | 0.00 | 0.01 | 0.00 | 74 | 1014.2 |
| 20260508090654 | 56 | 69 | 2.0 | 8.0 | 0.00 | 0.01 | 0.00 | 74 | 1014.2 |
| 20260508090554 | 56 | 26 | 3.0 | 8.0 | 0.00 | 0.01 | 0.00 | 74 | 1014.3 |
| 20260508090454 | 56 | 68 | 2.0 | 8.0 | 0.00 | 0.01 | 0.00 | 74 | 1014.3 |
| 20260508090354 | 56 | 74 | 2.0 | 8.0 | 0.00 | 0.01 | 0.00 | 74 | 1014.3 |
| 20260508090248 | 56 | 71 | 2.0 | 8.0 | 0.00 | 0.01 | 0.00 | 73 | 1014.3 |
| 20260508090201 | 56 | 73 | 2.0 | 8.0 | 0.00 | 0.01 | 0.00 | 75 | 1014.3 |
| 20260508090147 | 56 | 73 | 2.0 | 8.0 | 0.00 | 0.01 | 0.00 | 75 | 1014.3 |
| 20260508090047 | 56 | 78 | 2.0 | 8.0 | 0.00 | 0.01 | 0.00 | 74 | 1014.3 |
| 20260508085948 | 56 | 73 | 2.0 | 8.0 | 0.00 | 0.01 | 0.00 | 74 | 1014.3 |
| 20260508085847 | 56 | 80 | 2.0 | 8.0 | 0.00 | 0.01 | 0.00 | 74 | 1014.3 |
| 20260508085742 | 55 | 82 | 2.0 | 8.0 | 0.00 | 0.01 | 0.00 | 75 | 1014.3 |
| 20260508085700 | 55 | 77 | 2.0 | 8.0 | 0.00 | 0.01 | 0.00 | 76 | 1014.3 |
| 20260508085642 | 55 | 73 | 2.0 | 8.0 | 0.00 | 0.01 | 0.00 | 76 | 1014.3 |
| 20260508085542 | 55 | 67 | 2.0 | 5.0 | 0.00 | 0.01 | 0.00 | 78 | 1014.3 |
| 20260508085442 | 55 | 74 | 2.0 | 5.0 | 0.00 | 0.01 | 0.00 | 75 | 1014.3 |
| 20260508085341 | 55 | 79 | 2.0 | 5.0 | 0.00 | 0.01 | 0.00 | 75 | 1014.3 |
| 20260508085240 | 55 | 59 | 2.0 | 5.0 | 0.00 | 0.01 | 0.00 | 75 | 1014.3 |
| 20260508085201 | 55 | 62 | 2.0 | 5.0 | 0.00 | 0.01 | 0.00 | 77 | 1014.3 |
| 20260508085140 | 55 | 72 | 1.0 | 5.0 | 0.00 | 0.01 | 0.00 | 77 | 1014.3 |
| 20260508085040 | 55 | 61 | 2.0 | 5.0 | 0.00 | 0.01 | 0.00 | 78 | 1014.3 |
| 20260508084939 | 54 | 61 | 2.0 | 5.0 | 0.00 | 0.01 | 0.00 | 78 | 1014.3 |
| 20260508084916 | 54 | 61 | 2.0 | 5.0 | 0.00 | 0.01 | 0.00 | 78 | 1014.3 |
| 20260508084912 | 54 | 65 | 2.0 | 5.0 | 0.00 | 0.01 | 0.00 | 78 | 1014.3 |
| 20260508084639 | 54 | 65 | 2.0 | 5.0 | 0.00 | 0.01 | 0.00 | 78 | 1014.3 |
| 20260508084537 | 54 | 53 | 2.0 | 5.0 | 0.00 | 0.01 | 0.00 | 78 | 1014.3 |
| 20260508084437 | 54 | 54 | 2.0 | 7.0 | 0.00 | 0.01 | 0.00 | 78 | 1014.3 |
| 20260508084338 | 54 | 52 | 1.0 | 7.0 | 0.00 | 0.01 | 0.00 | 78 | 1014.3 |
| 20260508084238 | 54 | 73 | 2.0 | 9.0 | 0.00 | 0.01 | 0.00 | 77 | 1014.3 |
| 20260508084201 | 54 | 70 | 2.0 | 9.0 | 0.00 | 0.01 | 0.00 | 77 | 1014.3 |
| 20260508084136 | 54 | 71 | 2.0 | 9.0 | 0.00 | 0.01 | 0.00 | 77 | 1014.3 |
| 20260508084036 | 54 | 70 | 2.0 | 9.0 | 0.00 | 0.01 | 0.00 | 77 | 1014.3 |
| 20260508083935 | 54 | 76 | 2.0 | 9.0 | 0.00 | 0.01 | 0.00 | 77 | 1014.3 |
| 20260508083835 | 54 | 58 | 2.0 | 9.0 | 0.00 | 0.01 | 0.00 | 78 | 1014.3 |
| 20260508083735 | 54 | 69 | 2.0 | 9.0 | 0.00 | 0.01 | 0.00 | 77 | 1014.3 |
| 20260508083701 | 54 | 69 | 2.0 | 9.0 | 0.00 | 0.01 | 0.00 | 77 | 1014.3 |
| 20260508083636 | 54 | 69 | 3.0 | 9.0 | 0.00 | 0.01 | 0.00 | 76 | 1014.2 |
| 20260508083530 | 54 | 84 | 2.0 | 9.0 | 0.00 | 0.01 | 0.00 | 77 | 1014.3 |
| 20260508083430 | 54 | 74 | 3.0 | 9.0 | 0.00 | 0.01 | 0.00 | 76 | 1014.3 |
| 20260508083330 | 54 | 73 | 3.0 | 9.0 | 0.00 | 0.01 | 0.00 | 76 | 1014.3 |
| 20260508083230 | 54 | 79 | 3.0 | 9.0 | 0.00 | 0.01 | 0.00 | 76 | 1014.3 |
| 20260508083200 | 54 | 78 | 3.0 | 9.0 | 0.00 | 0.01 | 0.00 | 76 | 1014.3 |
| 20260508083130 | 54 | 69 | 3.0 | 9.0 | 0.00 | 0.01 | 0.00 | 77 | 1014.3 |
| 20260508083030 | 54 | 26 | 3.0 | 9.0 | 0.00 | 0.01 | 0.00 | 78 | 1014.3 |
| 20260508082929 | 54 | 79 | 3.0 | 9.0 | 0.00 | 0.01 | 0.00 | 78 | 1014.2 |
| 20260508082829 | 54 | 77 | 3.0 | 9.0 | 0.00 | 0.01 | 0.00 | 78 | 1014.2 |
| 20260508082729 | 54 | 69 | 3.0 | 9.0 | 0.00 | 0.01 | 0.00 | 79 | 1014.2 |
| 20260508082701 | 54 | 79 | 3.0 | 9.0 | 0.00 | 0.01 | 0.00 | 78 | 1014.2 |
| 20260508082629 | 54 | 78 | 3.0 | 9.0 | 0.00 | 0.01 | 0.00 | 78 | 1014.2 |
| 20260508082530 | 54 | 64 | 3.0 | 9.0 | 0.00 | 0.01 | 0.00 | 78 | 1014.2 |
| 20260508082429 | 54 | 71 | 3.0 | 9.0 | 0.00 | 0.01 | 0.00 | 78 | 1014.2 |
| 20260508082329 | 54 | 53 | 3.0 | 9.0 | 0.00 | 0.01 | 0.00 | 77 | 1014.2 |
| 20260508082229 | 54 | 67 | 3.0 | 9.0 | 0.00 | 0.01 | 0.00 | 77 | 1014.1 |
| 20260508082202 | 54 | 56 | 3.0 | 9.0 | 0.00 | 0.01 | 0.00 | 77 | 1014.1 |
| 20260508082129 | 54 | 80 | 2.0 | 9.0 | 0.00 | 0.01 | 0.00 | 77 | 1014.1 |
| 20260508082029 | 54 | 55 | 2.0 | 8.0 | 0.00 | 0.01 | 0.00 | 77 | 1014.1 |
| 20260508081929 | 54 | 75 | 3.0 | 8.0 | 0.00 | 0.01 | 0.00 | 76 | 1014.2 |
| 20260508081830 | 54 | 77 | 3.0 | 8.0 | 0.00 | 0.01 | 0.00 | 77 | 1014.2 |
| 20260508081729 | 54 | 73 | 3.0 | 8.0 | 0.00 | 0.01 | 0.00 | 77 | 1014.2 |
| 20260508081701 | 54 | 74 | 3.0 | 8.0 | 0.00 | 0.01 | 0.00 | 77 | 1014.2 |
| 20260508081629 | 54 | 73 | 3.0 | 8.0 | 0.00 | 0.01 | 0.00 | 77 | 1014.2 |
| 20260508081529 | 54 | 84 | 3.0 | 8.0 | 0.00 | 0.01 | 0.00 | 77 | 1014.2 |
| 20260508081431 | 54 | 55 | 3.0 | 8.0 | 0.00 | 0.01 | 0.00 | 77 | 1014.1 |
| 20260508081427 | 54 | 66 | 3.0 | 10.0 | 0.00 | 0.01 | 0.00 | 78 | 1014.2 |
| 20260508081417 | 54 | 78 | 3.0 | 8.0 | 0.00 | 0.01 | 0.00 | 77 | 1014.2 |
| 20260508081413 | 54 | 90 | 3.0 | 10.0 | 0.00 | 0.01 | 0.00 | 77 | 1014.2 |
| 20260508081129 | 54 | 82 | 3.0 | 10.0 | 0.00 | 0.01 | 0.00 | 78 | 1014.2 |
| 20260508081029 | 54 | 73 | 3.0 | 10.0 | 0.00 | 0.01 | 0.00 | 78 | 1014.2 |
| 20260508080929 | 54 | 71 | 3.0 | 10.0 | 0.00 | 0.01 | 0.00 | 78 | 1014.3 |
| 20260508080828 | 54 | 84 | 3.0 | 10.0 | 0.00 | 0.01 | 0.00 | 78 | 1014.3 |
| 20260508080728 | 54 | 82 | 3.0 | 10.0 | 0.00 | 0.01 | 0.00 | 77 | 1014.3 |
| 20260508080701 | 54 | 81 | 3.0 | 10.0 | 0.00 | 0.01 | 0.00 | 78 | 1014.3 |
| 20260508080629 | 54 | 76 | 3.0 | 10.0 | 0.00 | 0.01 | 0.00 | 78 | 1014.3 |
| 20260508080529 | 54 | 76 | 3.0 | 10.0 | 0.00 | 0.01 | 0.00 | 78 | 1014.3 |
| 20260508080429 | 54 | 89 | 3.0 | 10.0 | 0.00 | 0.01 | 0.00 | 78 | 1014.3 |
| 20260508080329 | 54 | 83 | 2.0 | 10.0 | 0.00 | 0.01 | 0.00 | 79 | 1014.3 |
| 20260508080229 | 53 | 68 | 2.0 | 9.0 | 0.00 | 0.01 | 0.00 | 78 | 1014.3 |
| 20260508080200 | 53 | 72 | 2.0 | 8.0 | 0.00 | 0.01 | 0.00 | 78 | 1014.3 |
| 20260508080129 | 53 | 82 | 2.0 | 8.0 | 0.00 | 0.01 | 0.00 | 80 | 1014.3 |
| 20260508080028 | 53 | 71 | 2.0 | 8.0 | 0.00 | 0.01 | 0.00 | 80 | 1014.3 |
| 20260508075928 | 53 | 78 | 2.0 | 8.0 | 0.00 | 0.01 | 0.00 | 81 | 1014.3 |
| 20260508075827 | 53 | 67 | 2.0 | 8.0 | 0.00 | 0.01 | 0.00 | 80 | 1014.3 |
| 20260508075725 | 53 | 75 | 2.0 | 5.0 | 0.00 | 0.01 | 0.00 | 81 | 1014.3 |
| 20260508075701 | 53 | 72 | 2.0 | 5.0 | 0.00 | 0.01 | 0.00 | 81 | 1014.3 |
| 20260508075621 | 53 | 74 | 2.0 | 5.0 | 0.00 | 0.01 | 0.00 | 81 | 1014.3 |
| 20260508075520 | 53 | 70 | 2.0 | 5.0 | 0.00 | 0.01 | 0.00 | 81 | 1014.3 |
| 20260508075420 | 53 | 64 | 2.0 | 5.0 | 0.00 | 0.01 | 0.00 | 81 | 1014.3 |
| 20260508075318 | 53 | 57 | 2.0 | 7.0 | 0.00 | 0.01 | 0.00 | 81 | 1014.3 |
| 20260508075201 | 53 | 61 | 2.0 | 10.0 | 0.00 | 0.01 | 0.00 | 82 | 1014.3 |
| 20260508075113 | 53 | 63 | 2.0 | 10.0 | 0.00 | 0.01 | 0.00 | 82 | 1014.4 |
| 20260508075013 | 53 | 66 | 2.0 | 10.0 | 0.00 | 0.01 | 0.00 | 82 | 1014.3 |
| 20260508074914 | 53 | 72 | 2.0 | 10.0 | 0.00 | 0.01 | 0.00 | 81 | 1014.3 |
| 20260508074814 | 52 | 71 | 2.0 | 10.0 | 0.00 | 0.01 | 0.00 | 81 | 1014.3 |
| 20260508074713 | 52 | 70 | 2.0 | 10.0 | 0.00 | 0.01 | 0.00 | 81 | 1014.3 |
| 20260508074701 | 52 | 69 | 2.0 | 10.0 | 0.00 | 0.01 | 0.00 | 81 | 1014.3 |
| 20260508074611 | 52 | 69 | 2.0 | 10.0 | 0.00 | 0.01 | 0.00 | 82 | 1014.3 |
| 20260508074511 | 52 | 59 | 2.0 | 10.0 | 0.00 | 0.01 | 0.00 | 82 | 1014.3 |
| 20260508074411 | 52 | 75 | 2.0 | 10.0 | 0.00 | 0.01 | 0.00 | 82 | 1014.3 |
| 20260508074311 | 52 | 88 | 2.0 | 10.0 | 0.00 | 0.01 | 0.00 | 81 | 1014.3 |
| 20260508074211 | 52 | 69 | 2.0 | 6.0 | 0.00 | 0.01 | 0.00 | 82 | 1014.3 |
| 20260508074201 | 52 | 60 | 2.0 | 6.0 | 0.00 | 0.01 | 0.00 | 82 | 1014.3 |
| 20260508074112 | 52 | 19 | 2.0 | 6.0 | 0.00 | 0.01 | 0.00 | 82 | 1014.3 |
| 20260508074012 | 52 | 65 | 2.0 | 6.0 | 0.00 | 0.01 | 0.00 | 82 | 1014.3 |
| 20260508073924 | 52 | 63 | 2.0 | 6.0 | 0.00 | 0.01 | 0.00 | 82 | 1014.3 |
| 20260508073916 | 52 | 57 | 2.0 | 6.0 | 0.00 | 0.01 | 0.00 | 82 | 1014.3 |
| 20260508073912 | 52 | 57 | 2.0 | 6.0 | 0.00 | 0.01 | 0.00 | 82 | 1014.3 |
| 20260508073608 | 52 | 61 | 2.0 | 6.0 | 0.00 | 0.01 | 0.00 | 82 | 1014.4 |
| 20260508073508 | 52 | 59 | 2.0 | 6.0 | 0.00 | 0.01 | 0.00 | 82 | 1014.4 |
| 20260508073406 | 52 | 67 | 2.0 | 6.0 | 0.00 | 0.01 | 0.00 | 82 | 1014.4 |
| 20260508073306 | 51 | 63 | 2.0 | 6.0 | 0.00 | 0.01 | 0.00 | 84 | 1014.4 |
| 20260508073200 | 51 | 63 | 2.0 | 6.0 | 0.00 | 0.01 | 0.00 | 84 | 1014.4 |
| 20260508073105 | 51 | 60 | 2.0 | 6.0 | 0.00 | 0.01 | 0.00 | 83 | 1014.4 |
| 20260508073005 | 51 | 61 | 2.0 | 6.0 | 0.00 | 0.01 | 0.00 | 84 | 1014.4 |
| 20260508072906 | 51 | 65 | 2.0 | 6.0 | 0.00 | 0.01 | 0.00 | 83 | 1014.3 |
| 20260508072806 | 51 | 65 | 2.0 | 5.0 | 0.00 | 0.01 | 0.00 | 83 | 1014.3 |
| 20260508072700 | 51 | 59 | 2.0 | 5.0 | 0.00 | 0.01 | 0.00 | 82 | 1014.3 |
| 20260508072650 | 51 | 60 | 2.0 | 5.0 | 0.00 | 0.01 | 0.00 | 82 | 1014.3 |
| 20260508072644 | 51 | 64 | 2.0 | 5.0 | 0.00 | 0.01 | 0.00 | 83 | 1014.4 |
| 20260508072640 | 51 | 63 | 2.0 | 5.0 | 0.00 | 0.01 | 0.00 | 82 | 1014.3 |
| 20260508072425 | 51 | 57 | 2.0 | 5.0 | 0.00 | 0.01 | 0.00 | 82 | 1014.3 |
| 20260508072416 | 51 | 64 | 2.0 | 5.0 | 0.00 | 0.01 | 0.00 | 82 | 1014.3 |
| 20260508072412 | 51 | 60 | 2.0 | 5.0 | 0.00 | 0.01 | 0.00 | 82 | 1014.3 |
| 20260508072101 | 51 | 61 | 2.0 | 5.0 | 0.00 | 0.01 | 0.00 | 84 | 1014.3 |
| 20260508072001 | 51 | 61 | 2.0 | 5.0 | 0.00 | 0.01 | 0.00 | 84 | 1014.3 |
| 20260508071901 | 51 | 64 | 2.0 | 5.0 | 0.00 | 0.01 | 0.00 | 84 | 1014.3 |
| 20260508071801 | 51 | 63 | 2.0 | 5.0 | 0.00 | 0.01 | 0.00 | 84 | 1014.3 |
| 20260508071701 | 51 | 62 | 2.0 | 5.0 | 0.00 | 0.01 | 0.00 | 84 | 1014.2 |
| 20260508071601 | 50 | 59 | 2.0 | 5.0 | 0.00 | 0.01 | 0.00 | 84 | 1014.2 |
| 20260508071501 | 50 | 62 | 1.0 | 5.0 | 0.00 | 0.01 | 0.00 | 85 | 1014.2 |
| 20260508071400 | 50 | 57 | 1.0 | 5.0 | 0.00 | 0.01 | 0.00 | 85 | 1014.2 |
| 20260508071300 | 50 | 57 | 1.0 | 5.0 | 0.00 | 0.01 | 0.00 | 86 | 1014.2 |
| 20260508071201 | 50 | 57 | 1.0 | 5.0 | 0.00 | 0.01 | 0.00 | 86 | 1014.2 |
| 20260508071101 | 50 | 60 | 2.0 | 5.0 | 0.00 | 0.01 | 0.00 | 86 | 1014.2 |
| 20260508071001 | 50 | 60 | 1.0 | 5.0 | 0.00 | 0.01 | 0.00 | 86 | 1014.2 |
| 20260508070901 | 50 | 59 | 1.0 | 5.0 | 0.00 | 0.01 | 0.00 | 86 | 1014.2 |
| 20260508070801 | 50 | 61 | 1.0 | 5.0 | 0.00 | 0.01 | 0.00 | 86 | 1014.2 |
| 20260508070701 | 50 | 61 | 2.0 | 5.0 | 0.00 | 0.01 | 0.00 | 87 | 1014.2 |
| 20260508070600 | 49 | 57 | 2.0 | 5.0 | 0.00 | 0.01 | 0.00 | 87 | 1014.1 |
| 20260508070500 | 49 | 60 | 2.0 | 5.0 | 0.00 | 0.01 | 0.00 | 87 | 1014.1 |
| 20260508070400 | 49 | 59 | 2.0 | 5.0 | 0.00 | 0.01 | 0.00 | 87 | 1014.1 |
| 20260508070301 | 49 | 57 | 2.0 | 5.0 | 0.00 | 0.01 | 0.00 | 87 | 1014.2 |
| 20260508070200 | 49 | 60 | 2.0 | 5.0 | 0.00 | 0.01 | 0.00 | 87 | 1014.2 |
| 20260508070100 | 49 | 61 | 1.0 | 5.0 | 0.00 | 0.01 | 0.00 | 89 | 1014.2 |
| 20260508070001 | 49 | 58 | 2.0 | 5.0 | 0.00 | 0.01 | 0.00 | 89 | 1014.2 |
| 20260508065901 | 49 | 58 | 2.0 | 5.0 | 0.00 | 0.01 | 0.00 | 89 | 1014.2 |
| 20260508065800 | 49 | 57 | 2.0 | 5.0 | 0.00 | 0.01 | 0.00 | 89 | 1014.2 |
| 20260508065700 | 49 | 63 | 1.0 | 5.0 | 0.00 | 0.01 | 0.00 | 89 | 1014.2 |
| 20260508065600 | 49 | 58 | 1.0 | 4.0 | 0.00 | 0.01 | 0.00 | 89 | 1014.2 |
| 20260508065500 | 49 | 59 | 1.0 | 4.0 | 0.00 | 0.01 | 0.00 | 89 | 1014.2 |
| 20260508065401 | 49 | 59 | 1.0 | 4.0 | 0.00 | 0.01 | 0.00 | 90 | 1014.2 |
| 20260508065301 | 49 | 61 | 1.0 | 3.0 | 0.00 | 0.01 | 0.00 | 90 | 1014.2 |
| 20260508065201 | 48 | 57 | 1.0 | 3.0 | 0.00 | 0.01 | 0.00 | 90 | 1014.2 |
| 20260508065101 | 48 | 59 | 1.0 | 3.0 | 0.00 | 0.01 | 0.00 | 90 | 1014.3 |
| 20260508065001 | 48 | 60 | 1.0 | 4.0 | 0.00 | 0.01 | 0.00 | 92 | 1014.2 |
| 20260508064901 | 48 | 58 | 1.0 | 6.0 | 0.00 | 0.01 | 0.00 | 92 | 1014.2 |
| 20260508064801 | 48 | 59 | 1.0 | 6.0 | 0.00 | 0.01 | 0.00 | 92 | 1014.2 |
| 20260508064702 | 48 | 59 | 1.0 | 6.0 | 0.00 | 0.01 | 0.00 | 93 | 1014.2 |
| 20260508064601 | 48 | 59 | 2.0 | 6.0 | 0.00 | 0.01 | 0.00 | 95 | 1014.2 |
| 20260508064501 | 47 | 57 | 2.0 | 6.0 | 0.00 | 0.01 | 0.00 | 95 | 1014.2 |
| 20260508064401 | 47 | 58 | 2.0 | 6.0 | 0.00 | 0.01 | 0.00 | 96 | 1014.2 |
| 20260508064301 | 47 | 59 | 2.0 | 6.0 | 0.00 | 0.01 | 0.00 | 96 | 1014.3 |
| 20260508064201 | 47 | 59 | 2.0 | 6.0 | 0.00 | 0.01 | 0.00 | 96 | 1014.3 |
| 20260508064101 | 47 | 62 | 2.0 | 6.0 | 0.00 | 0.01 | 0.00 | 96 | 1014.2 |
| 20260508064001 | 47 | 65 | 2.0 | 6.0 | 0.00 | 0.01 | 0.00 | 96 | 1014.2 |
| 20260508063901 | 47 | 63 | 2.0 | 5.0 | 0.00 | 0.01 | 0.00 | 96 | 1014.2 |
| 20260508063800 | 47 | 63 | 2.0 | 5.0 | 0.00 | 0.01 | 0.00 | 96 | 1014.2 |
| 20260508063700 | 47 | 63 | 2.0 | 5.0 | 0.00 | 0.01 | 0.00 | 96 | 1014.2 |
| 20260508063601 | 47 | 60 | 2.0 | 5.0 | 0.00 | 0.01 | 0.00 | 96 | 1014.2 |
| 20260508063501 | 46 | 61 | 2.0 | 5.0 | 0.00 | 0.01 | 0.00 | 96 | 1014.2 |
| 20260508063401 | 46 | 61 | 2.0 | 5.0 | 0.00 | 0.01 | 0.00 | 96 | 1014.2 |
| 20260508063301 | 46 | 62 | 2.0 | 7.0 | 0.00 | 0.01 | 0.00 | 96 | 1014.2 |
| 20260508063201 | 46 | 62 | 2.0 | 7.0 | 0.00 | 0.01 | 0.00 | 96 | 1014.2 |
| 20260508063100 | 46 | 62 | 2.0 | 7.0 | 0.00 | 0.01 | 0.00 | 96 | 1014.2 |
| 20260508063000 | 46 | 65 | 2.0 | 7.0 | 0.00 | 0.01 | 0.00 | 96 | 1014.2 |
| 20260508062900 | 46 | 63 | 2.0 | 7.0 | 0.00 | 0.01 | 0.00 | 96 | 1014.2 |
| 20260508062800 | 46 | 63 | 2.0 | 7.0 | 0.00 | 0.01 | 0.00 | 96 | 1014.2 |
| 20260508062701 | 46 | 62 | 2.0 | 7.0 | 0.00 | 0.01 | 0.00 | 96 | 1014.2 |
| 20260508062601 | 46 | 63 | 2.0 | 7.0 | 0.00 | 0.01 | 0.00 | 96 | 1014.2 |
| 20260508062502 | 46 | 67 | 2.0 | 7.0 | 0.00 | 0.01 | 0.00 | 96 | 1014.2 |
| 20260508062401 | 45 | 64 | 1.0 | 7.0 | 0.00 | 0.01 | 0.00 | 96 | 1014.2 |
| 20260508062305 | 45 | 67 | 1.0 | 5.0 | 0.00 | 0.01 | 0.00 | 96 | 1014.1 |
| 20260508062201 | 45 | 57 | 1.0 | 5.0 | 0.00 | 0.01 | 0.00 | 96 | 1014.1 |
| 20260508062101 | 45 | 58 | 1.0 | 5.0 | 0.00 | 0.01 | 0.00 | 96 | 1014.1 |
| 20260508062001 | 44 | 59 | 1.0 | 5.0 | 0.00 | 0.01 | 0.00 | 96 | 1014.1 |
| 20260508061901 | 44 | 64 | 0.0 | 5.0 | 0.00 | 0.01 | 0.00 | 96 | 1014.1 |
| 20260508061801 | 44 | 57 | 0.0 | 3.0 | 0.00 | 0.01 | 0.00 | 96 | 1014.1 |
| 20260508061701 | 44 | 59 | 0.0 | 3.0 | 0.00 | 0.01 | 0.00 | 96 | 1014.1 |
| 20260508061601 | 44 | 54 | 0.0 | 0.0 | 0.00 | 0.01 | 0.00 | 96 | 1014.1 |
| 20260508061501 | 44 | 54 | 0.0 | 0.0 | 0.00 | 0.01 | 0.00 | 96 | 1014.1 |
| 20260508061400 | 44 | 54 | 0.0 | 0.0 | 0.00 | 0.01 | 0.00 | 96 | 1014.1 |
| 20260508061301 | 44 | 54 | 0.0 | 0.0 | 0.00 | 0.01 | 0.00 | 95 | 1014.1 |
| 20260508061201 | 44 | 54 | 0.0 | 0.0 | 0.00 | 0.01 | 0.00 | 96 | 1014.1 |
| 20260508061101 | 44 | 54 | 0.0 | 1.0 | 0.00 | 0.01 | 0.00 | 96 | 1014.1 |
| 20260508061001 | 43 | 54 | 0.0 | 1.0 | 0.00 | 0.01 | 0.00 | 96 | 1014.1 |
| 20260508060925 | 43 | 54 | 0.0 | 1.0 | 0.00 | 0.01 | 0.00 | 96 | 1014.1 |
| 20260508060917 | 43 | 54 | 0.0 | 1.0 | 0.00 | 0.01 | 0.00 | 96 | 1014.1 |
| 20260508060913 | 43 | 54 | 0.0 | 1.0 | 0.00 | 0.01 | 0.00 | 96 | 1014.1 |
| 20260508060601 | 43 | 54 | 0.0 | 1.0 | 0.00 | 0.01 | 0.00 | 96 | 1014.1 |
| 20260508060501 | 43 | 54 | 0.0 | 1.0 | 0.00 | 0.01 | 0.00 | 96 | 1014.1 |
| 20260508060424 | 43 | 54 | 0.0 | 1.0 | 0.00 | 0.01 | 0.00 | 95 | 1014.1 |
| 20260508060416 | 43 | 54 | 0.0 | 1.0 | 0.00 | 0.01 | 0.00 | 95 | 1014.1 |
| 20260508060412 | 43 | 54 | 0.0 | 1.0 | 0.00 | 0.01 | 0.00 | 95 | 1014.1 |
| 20260508060152 | 42 | 57 | 0.0 | 1.0 | 0.00 | 0.01 | 0.00 | 96 | 1014.1 |
| 20260508060142 | 43 | 57 | 0.0 | 1.0 | 0.00 | 0.01 | 0.00 | 95 | 1014.1 |
| 20260508060138 | 43 | 57 | 0.0 | 1.0 | 0.00 | 0.01 | 0.00 | 96 | 1014.1 |
| 20260508055923 | 42 | 57 | 0.0 | 1.0 | 0.00 | 0.01 | 0.00 | 96 | 1014.1 |
| 20260508055915 | 42 | 57 | 0.0 | 1.0 | 0.00 | 0.01 | 0.00 | 96 | 1014.1 |
| 20260508055911 | 42 | 57 | 0.0 | 1.0 | 0.00 | 0.01 | 0.00 | 96 | 1014.1 |
| 20260508055601 | 42 | 57 | 0.0 | 1.0 | 0.00 | 0.01 | 0.00 | 95 | 1014.1 |
| 20260508055501 | 42 | 57 | 0.0 | 2.0 | 0.00 | 0.01 | 0.00 | 95 | 1014.1 |
| 20260508055401 | 42 | 57 | 0.0 | 2.0 | 0.00 | 0.01 | 0.00 | 95 | 1014.1 |
| 20260508055305 | 42 | 57 | 0.0 | 2.0 | 0.00 | 0.01 | 0.00 | 95 | 1013.9 |
| 20260508055201 | 42 | 57 | 0.0 | 2.0 | 0.00 | 0.01 | 0.00 | 95 | 1014.1 |
| 20260508055101 | 42 | 57 | 0.0 | 2.0 | 0.00 | 0.01 | 0.00 | 95 | 1013.9 |
| 20260508055001 | 42 | 57 | 0.0 | 2.0 | 0.00 | 0.01 | 0.00 | 95 | 1013.9 |
| 20260508054902 | 42 | 57 | 0.0 | 2.0 | 0.00 | 0.01 | 0.00 | 95 | 1013.9 |
| 20260508054804 | 42 | 57 | 0.0 | 2.0 | 0.00 | 0.01 | 0.00 | 95 | 1013.9 |
| 20260508054701 | 41 | 57 | 0.0 | 2.0 | 0.00 | 0.01 | 0.00 | 95 | 1013.9 |
| 20260508054601 | 41 | 57 | 0.0 | 2.0 | 0.00 | 0.01 | 0.00 | 95 | 1013.8 |
| 20260508054501 | 41 | 57 | 0.0 | 2.0 | 0.00 | 0.01 | 0.00 | 95 | 1013.8 |
| 20260508054401 | 41 | 57 | 0.0 | 2.0 | 0.00 | 0.01 | 0.00 | 95 | 1013.8 |
| 20260508054302 | 41 | 56 | 0.0 | 2.0 | 0.00 | 0.01 | 0.00 | 95 | 1013.8 |
| 20260508054201 | 41 | 56 | 0.0 | 2.0 | 0.00 | 0.01 | 0.00 | 95 | 1013.8 |
| 20260508054101 | 40 | 56 | 0.0 | 2.0 | 0.00 | 0.01 | 0.00 | 95 | 1013.8 |
| 20260508054001 | 40 | 56 | 0.0 | 2.0 | 0.00 | 0.01 | 0.00 | 95 | 1013.9 |
| 20260508053929 | 40 | 56 | 0.0 | 2.0 | 0.00 | 0.01 | 0.00 | 95 | 1013.9 |
| 20260508053925 | 40 | 56 | 0.0 | 2.0 | 0.00 | 0.01 | 0.00 | 95 | 1013.9 |
| 20260508053921 | 40 | 56 | 0.0 | 2.0 | 0.00 | 0.01 | 0.00 | 95 | 1013.9 |
| 20260508053601 | 40 | 57 | 0.0 | 2.0 | 0.00 | 0.01 | 0.00 | 95 | 1013.8 |
| 20260508053501 | 40 | 57 | 0.0 | 2.0 | 0.00 | 0.01 | 0.00 | 95 | 1013.9 |
| 20260508053401 | 40 | 57 | 0.0 | 2.0 | 0.00 | 0.01 | 0.00 | 95 | 1013.8 |
| 20260508053301 | 40 | 56 | 0.0 | 2.0 | 0.00 | 0.01 | 0.00 | 95 | 1013.9 |
| 20260508053201 | 40 | 57 | 0.0 | 2.0 | 0.00 | 0.01 | 0.00 | 95 | 1013.8 |
| 20260508053101 | 40 | 56 | 0.0 | 2.0 | 0.00 | 0.01 | 0.00 | 95 | 1013.8 |
| 20260508053001 | 39 | 55 | 0.0 | 1.0 | 0.00 | 0.01 | 0.00 | 95 | 1013.8 |
| 20260508052900 | 39 | 55 | 0.0 | 1.0 | 0.00 | 0.01 | 0.00 | 95 | 1013.8 |
| 20260508052800 | 39 | 55 | 0.0 | 1.0 | 0.00 | 0.01 | 0.00 | 95 | 1013.8 |
| 20260508052701 | 39 | 55 | 0.0 | 1.0 | 0.00 | 0.01 | 0.00 | 95 | 1013.8 |
| 20260508052602 | 39 | 55 | 0.0 | 1.0 | 0.00 | 0.01 | 0.00 | 95 | 1013.8 |
| 20260508052502 | 39 | 55 | 0.0 | 1.0 | 0.00 | 0.01 | 0.00 | 95 | 1013.8 |
| 20260508052426 | 39 | 55 | 0.0 | 2.0 | 0.00 | 0.01 | 0.00 | 95 | 1013.8 |
| 20260508052422 | 39 | 55 | 0.0 | 2.0 | 0.00 | 0.01 | 0.00 | 94 | 1013.8 |
| 20260508052414 | 39 | 55 | 0.0 | 2.0 | 0.00 | 0.01 | 0.00 | 94 | 1013.8 |
| 20260508052102 | 39 | 55 | 0.0 | 2.0 | 0.00 | 0.01 | 0.00 | 94 | 1013.8 |
| 20260508052001 | 39 | 56 | 0.0 | 2.0 | 0.00 | 0.01 | 0.00 | 94 | 1013.8 |
| 20260508051901 | 39 | 57 | 1.0 | 3.0 | 0.00 | 0.01 | 0.00 | 94 | 1013.8 |
| 20260508051801 | 38 | 57 | 1.0 | 3.0 | 0.00 | 0.01 | 0.00 | 94 | 1013.8 |
| 20260508051702 | 38 | 57 | 1.0 | 3.0 | 0.00 | 0.01 | 0.00 | 94 | 1013.8 |
| 20260508051601 | 38 | 57 | 1.0 | 3.0 | 0.00 | 0.01 | 0.00 | 94 | 1013.8 |
| 20260508051501 | 38 | 57 | 1.0 | 3.0 | 0.00 | 0.01 | 0.00 | 94 | 1013.8 |
| 20260508051400 | 38 | 57 | 1.0 | 3.0 | 0.00 | 0.01 | 0.00 | 94 | 1013.8 |
| 20260508051301 | 38 | 57 | 1.0 | 3.0 | 0.00 | 0.01 | 0.00 | 94 | 1013.8 |
| 20260508051201 | 38 | 57 | 1.0 | 3.0 | 0.00 | 0.01 | 0.00 | 94 | 1013.8 |
| 20260508051101 | 38 | 57 | 1.0 | 3.0 | 0.00 | 0.01 | 0.00 | 94 | 1013.7 |
| 20260508051001 | 38 | 57 | 1.0 | 3.0 | 0.00 | 0.01 | 0.00 | 94 | 1013.7 |
| 20260508050901 | 38 | 57 | 1.0 | 2.0 | 0.00 | 0.01 | 0.00 | 94 | 1013.7 |
| 20260508050800 | 38 | 57 | 1.0 | 2.0 | 0.00 | 0.01 | 0.00 | 94 | 1013.7 |
| 20260508050700 | 38 | 57 | 0.0 | 2.0 | 0.00 | 0.01 | 0.00 | 94 | 1013.7 |
| 20260508050600 | 38 | 57 | 0.0 | 2.0 | 0.00 | 0.01 | 0.00 | 94 | 1013.7 |
| 20260508050500 | 38 | 57 | 0.0 | 2.0 | 0.00 | 0.01 | 0.00 | 94 | 1013.6 |
| 20260508050400 | 38 | 57 | 0.0 | 2.0 | 0.00 | 0.01 | 0.00 | 94 | 1013.6 |
| 20260508050301 | 38 | 57 | 0.0 | 2.0 | 0.00 | 0.01 | 0.00 | 94 | 1013.6 |
| 20260508050200 | 38 | 57 | 0.0 | 1.0 | 0.00 | 0.01 | 0.00 | 94 | 1013.5 |
| 20260508050100 | 38 | 57 | 0.0 | 1.0 | 0.00 | 0.01 | 0.00 | 94 | 1013.5 |
| 20260508050001 | 38 | 57 | 0.0 | 1.0 | 0.00 | 0.01 | 0.00 | 94 | 1013.5 |
| 20260508045901 | 38 | 57 | 0.0 | 1.0 | 0.00 | 0.01 | 0.00 | 94 | 1013.5 |
| 20260508045801 | 38 | 57 | 0.0 | 1.0 | 0.00 | 0.01 | 0.00 | 94 | 1013.5 |
| 20260508045706 | 38 | 57 | 0.0 | 1.0 | 0.00 | 0.01 | 0.00 | 94 | 1013.4 |
| 20260508045654 | 38 | 57 | 0.0 | 2.0 | 0.00 | 0.01 | 0.00 | 93 | 1013.4 |
| 20260508045643 | 38 | 57 | 0.0 | 1.0 | 0.00 | 0.01 | 0.00 | 94 | 1013.4 |
| 20260508045639 | 38 | 57 | 0.0 | 1.0 | 0.00 | 0.01 | 0.00 | 94 | 1013.4 |
| 20260508045418 | 38 | 57 | 0.0 | 2.0 | 0.00 | 0.01 | 0.00 | 94 | 1013.4 |
| 20260508045414 | 38 | 57 | 0.0 | 2.0 | 0.00 | 0.01 | 0.00 | 94 | 1013.4 |
| 20260508045409 | 38 | 57 | 0.0 | 2.0 | 0.00 | 0.01 | 0.00 | 93 | 1013.4 |
| 20260508045049 | 38 | 57 | 0.0 | 2.0 | 0.00 | 0.01 | 0.00 | 93 | 1013.4 |
| 20260508044949 | 38 | 58 | 0.0 | 2.0 | 0.00 | 0.01 | 0.00 | 93 | 1013.4 |
| 20260508044849 | 38 | 58 | 1.0 | 2.0 | 0.00 | 0.01 | 0.00 | 93 | 1013.5 |
| 20260508044749 | 38 | 58 | 1.0 | 2.0 | 0.00 | 0.01 | 0.00 | 93 | 1013.5 |
| 20260508044653 | 38 | 58 | 1.0 | 2.0 | 0.00 | 0.01 | 0.00 | 93 | 1013.5 |
| 20260508044549 | 38 | 58 | 1.0 | 2.0 | 0.00 | 0.01 | 0.00 | 93 | 1013.5 |
| 20260508044447 | 38 | 58 | 1.0 | 2.0 | 0.00 | 0.01 | 0.00 | 93 | 1013.5 |
| 20260508044345 | 38 | 58 | 1.0 | 2.0 | 0.00 | 0.01 | 0.00 | 93 | 1013.4 |
| 20260508044244 | 38 | 58 | 1.0 | 2.0 | 0.00 | 0.01 | 0.00 | 93 | 1013.4 |
| 20260508044147 | 38 | 58 | 1.0 | 2.0 | 0.00 | 0.01 | 0.00 | 93 | 1013.4 |
| 20260508044039 | 38 | 58 | 1.0 | 2.0 | 0.00 | 0.01 | 0.00 | 93 | 1013.4 |
| 20260508043940 | 38 | 58 | 0.0 | 2.0 | 0.00 | 0.01 | 0.00 | 93 | 1013.3 |
| 20260508043839 | 38 | 58 | 0.0 | 2.0 | 0.00 | 0.01 | 0.00 | 93 | 1013.3 |
| 20260508043739 | 38 | 58 | 0.0 | 2.0 | 0.00 | 0.01 | 0.00 | 93 | 1013.3 |
| 20260508043641 | 38 | 58 | 0.0 | 2.0 | 0.00 | 0.01 | 0.00 | 93 | 1013.3 |
| 20260508043620 | 38 | 58 | 0.0 | 0.0 | 0.00 | 0.01 | 0.00 | 93 | 1013.3 |
| 20260508043614 | 38 | 58 | 0.0 | 2.0 | 0.00 | 0.01 | 0.00 | 93 | 1013.3 |
| 20260508043610 | 38 | 58 | 0.0 | 0.0 | 0.00 | 0.01 | 0.00 | 93 | 1013.3 |
| 20260508043353 | 38 | 58 | 0.0 | 0.0 | 0.00 | 0.01 | 0.00 | 93 | 1013.3 |
| 20260508043349 | 38 | 57 | 0.0 | 0.0 | 0.00 | 0.01 | 0.00 | 93 | 1013.3 |
| 20260508043345 | 38 | 58 | 0.0 | 0.0 | 0.00 | 0.01 | 0.00 | 93 | 1013.3 |
| 20260508043035 | 38 | 58 | 0.0 | 0.0 | 0.00 | 0.01 | 0.00 | 93 | 1013.3 |
| 20260508042933 | 38 | 58 | 0.0 | 0.0 | 0.00 | 0.01 | 0.00 | 93 | 1013.4 |
| 20260508042833 | 38 | 57 | 0.0 | 0.0 | 0.00 | 0.01 | 0.00 | 93 | 1013.4 |
| 20260508042732 | 38 | 58 | 0.0 | 0.0 | 0.00 | 0.01 | 0.00 | 93 | 1013.3 |
| 20260508042629 | 38 | 59 | 0.0 | 0.0 | 0.00 | 0.01 | 0.00 | 93 | 1013.3 |
| 20260508042529 | 38 | 59 | 0.0 | 0.0 | 0.00 | 0.01 | 0.00 | 93 | 1013.3 |
| 20260508042429 | 38 | 59 | 0.0 | 0.0 | 0.00 | 0.01 | 0.00 | 93 | 1013.3 |
| 20260508042329 | 38 | 59 | 0.0 | 0.0 | 0.00 | 0.01 | 0.00 | 93 | 1013.3 |
| 20260508042229 | 38 | 59 | 0.0 | 0.0 | 0.00 | 0.01 | 0.00 | 93 | 1013.3 |
| 20260508042129 | 38 | 59 | 0.0 | 0.0 | 0.00 | 0.01 | 0.00 | 93 | 1013.3 |
| 20260508042029 | 38 | 59 | 0.0 | 0.0 | 0.00 | 0.01 | 0.00 | 93 | 1013.3 |
| 20260508041929 | 38 | 59 | 0.0 | 0.0 | 0.00 | 0.01 | 0.00 | 93 | 1013.3 |
| 20260508041829 | 38 | 59 | 0.0 | 0.0 | 0.00 | 0.01 | 0.00 | 93 | 1013.3 |
| 20260508041727 | 38 | 59 | 0.0 | 0.0 | 0.00 | 0.01 | 0.00 | 93 | 1013.3 |
| 20260508041627 | 38 | 59 | 0.0 | 0.0 | 0.00 | 0.01 | 0.00 | 93 | 1013.3 |
| 20260508041525 | 38 | 59 | 0.0 | 0.0 | 0.00 | 0.01 | 0.00 | 93 | 1013.3 |
| 20260508041423 | 38 | 59 | 0.0 | 0.0 | 0.00 | 0.01 | 0.00 | 93 | 1013.3 |
| 20260508041323 | 38 | 59 | 0.0 | 0.0 | 0.00 | 0.01 | 0.00 | 93 | 1013.3 |
| 20260508041221 | 38 | 59 | 0.0 | 0.0 | 0.00 | 0.01 | 0.00 | 93 | 1013.3 |
| 20260508041121 | 38 | 59 | 0.0 | 0.0 | 0.00 | 0.01 | 0.00 | 93 | 1013.3 |
| 20260508041116 | 38 | 59 | 0.0 | 0.0 | 0.00 | 0.01 | 0.00 | 93 | 1013.3 |
| 20260508041107 | 38 | 59 | 0.0 | 0.0 | 0.00 | 0.01 | 0.00 | 93 | 1013.3 |
| 20260508041103 | 38 | 59 | 0.0 | 0.0 | 0.00 | 0.01 | 0.00 | 93 | 1013.3 |
| 20260508040843 | 38 | 59 | 0.0 | 0.0 | 0.00 | 0.01 | 0.00 | 93 | 1013.3 |
| 20260508040840 | 38 | 59 | 0.0 | 0.0 | 0.00 | 0.01 | 0.00 | 93 | 1013.3 |
| 20260508040613 | 38 | 59 | 0.0 | 0.0 | 0.00 | 0.01 | 0.00 | 93 | 1013.3 |
| 20260508040513 | 38 | 59 | 0.0 | 0.0 | 0.00 | 0.01 | 0.00 | 93 | 1013.3 |
| 20260508040411 | 38 | 59 | 0.0 | 0.0 | 0.00 | 0.01 | 0.00 | 93 | 1013.3 |
| 20260508040311 | 38 | 59 | 0.0 | 0.0 | 0.00 | 0.01 | 0.00 | 93 | 1013.2 |
| 20260508040209 | 38 | 59 | 0.0 | 0.0 | 0.00 | 0.01 | 0.00 | 93 | 1013.3 |
| 20260508040109 | 38 | 59 | 0.0 | 0.0 | 0.00 | 0.01 | 0.00 | 93 | 1013.3 |
| 20260508040007 | 38 | 59 | 0.0 | 0.0 | 0.00 | 0.01 | 0.00 | 93 | 1013.3 |
| 20260508035905 | 38 | 59 | 0.0 | 0.0 | 0.00 | 0.01 | 0.00 | 93 | 1013.3 |
| 20260508035805 | 38 | 59 | 0.0 | 0.0 | 0.00 | 0.01 | 0.00 | 93 | 1013.3 |
| 20260508035701 | 38 | 59 | 0.0 | 0.0 | 0.00 | 0.01 | 0.00 | 93 | 1013.3 |
| 20260508035602 | 38 | 59 | 0.0 | 0.0 | 0.00 | 0.01 | 0.00 | 93 | 1013.3 |
| 20260508035501 | 38 | 59 | 0.0 | 0.0 | 0.00 | 0.01 | 0.00 | 93 | 1013.3 |
| 20260508035401 | 38 | 59 | 0.0 | 0.0 | 0.00 | 0.01 | 0.00 | 93 | 1013.3 |
| 20260508035302 | 38 | 59 | 0.0 | 0.0 | 0.00 | 0.01 | 0.00 | 93 | 1013.3 |
| 20260508035200 | 38 | 59 | 0.0 | 0.0 | 0.00 | 0.01 | 0.00 | 93 | 1013.3 |
| 20260508035101 | 38 | 59 | 0.0 | 0.0 | 0.00 | 0.01 | 0.00 | 93 | 1013.3 |
| 20260508035001 | 38 | 59 | 0.0 | 0.0 | 0.00 | 0.01 | 0.00 | 93 | 1013.3 |
| 20260508034901 | 38 | 59 | 0.0 | 0.0 | 0.00 | 0.01 | 0.00 | 93 | 1013.3 |
| 20260508034801 | 38 | 59 | 0.0 | 0.0 | 0.00 | 0.01 | 0.00 | 93 | 1013.3 |
| 20260508034701 | 38 | 59 | 0.0 | 0.0 | 0.00 | 0.01 | 0.00 | 93 | 1013.3 |
| 20260508034600 | 38 | 59 | 0.0 | 0.0 | 0.00 | 0.01 | 0.00 | 93 | 1013.3 |
| 20260508034501 | 38 | 59 | 0.0 | 0.0 | 0.00 | 0.01 | 0.00 | 93 | 1013.3 |
| 20260508034400 | 38 | 59 | 0.0 | 0.0 | 0.00 | 0.01 | 0.00 | 93 | 1013.3 |
| 20260508034300 | 38 | 59 | 0.0 | 0.0 | 0.00 | 0.01 | 0.00 | 93 | 1013.2 |
| 20260508034200 | 38 | 59 | 0.0 | 0.0 | 0.00 | 0.01 | 0.00 | 93 | 1013.2 |
| 20260508034101 | 38 | 59 | 0.0 | 0.0 | 0.00 | 0.01 | 0.00 | 93 | 1013.2 |
| 20260508034001 | 38 | 59 | 0.0 | 1.0 | 0.00 | 0.01 | 0.00 | 93 | 1013.2 |
| 20260508033901 | 38 | 59 | 0.0 | 1.0 | 0.00 | 0.01 | 0.00 | 93 | 1013.2 |
| 20260508033801 | 38 | 59 | 0.0 | 1.0 | 0.00 | 0.01 | 0.00 | 93 | 1013.2 |
| 20260508033701 | 38 | 59 | 0.0 | 1.0 | 0.00 | 0.01 | 0.00 | 93 | 1013.2 |
| 20260508033600 | 38 | 59 | 0.0 | 1.0 | 0.00 | 0.01 | 0.00 | 93 | 1013.2 |
| 20260508033500 | 38 | 59 | 0.0 | 1.0 | 0.00 | 0.01 | 0.00 | 93 | 1013.2 |
| 20260508033401 | 38 | 59 | 0.0 | 1.0 | 0.00 | 0.01 | 0.00 | 93 | 1013.2 |
| 20260508033301 | 38 | 59 | 0.0 | 1.0 | 0.00 | 0.01 | 0.00 | 93 | 1013.2 |
| 20260508033201 | 38 | 59 | 0.0 | 1.0 | 0.00 | 0.01 | 0.00 | 93 | 1013.2 |
| 20260508033101 | 38 | 59 | 0.0 | 1.0 | 0.00 | 0.01 | 0.00 | 93 | 1013.2 |
| 20260508033000 | 38 | 59 | 0.0 | 1.0 | 0.00 | 0.01 | 0.00 | 93 | 1013.1 |
| 20260508032900 | 38 | 59 | 0.0 | 1.0 | 0.00 | 0.01 | 0.00 | 93 | 1013.1 |
| 20260508032801 | 38 | 59 | 0.0 | 1.0 | 0.00 | 0.01 | 0.00 | 93 | 1013.1 |
| 20260508032701 | 38 | 59 | 0.0 | 1.0 | 0.00 | 0.01 | 0.00 | 93 | 1013.1 |
| 20260508032600 | 38 | 59 | 0.0 | 1.0 | 0.00 | 0.01 | 0.00 | 93 | 1013.1 |
| 20260508032501 | 38 | 59 | 0.0 | 1.0 | 0.00 | 0.01 | 0.00 | 93 | 1013.1 |
| 20260508032401 | 38 | 59 | 0.0 | 1.0 | 0.00 | 0.01 | 0.00 | 93 | 1013.1 |
| 20260508032305 | 38 | 59 | 0.0 | 1.0 | 0.00 | 0.01 | 0.00 | 93 | 1013.1 |
| 20260508032201 | 38 | 59 | 0.0 | 1.0 | 0.00 | 0.01 | 0.00 | 93 | 1013.1 |
| 20260508032101 | 38 | 61 | 0.0 | 1.0 | 0.00 | 0.01 | 0.00 | 93 | 1013.0 |
| 20260508032001 | 38 | 61 | 0.0 | 1.0 | 0.00 | 0.01 | 0.00 | 93 | 1013.1 |
| 20260508031901 | 38 | 61 | 0.0 | 1.0 | 0.00 | 0.01 | 0.00 | 93 | 1013.1 |
| 20260508031801 | 38 | 61 | 0.0 | 1.0 | 0.00 | 0.01 | 0.00 | 93 | 1013.1 |
| 20260508031700 | 38 | 61 | 0.0 | 1.0 | 0.00 | 0.01 | 0.00 | 93 | 1013.1 |
| 20260508031601 | 38 | 61 | 0.0 | 1.0 | 0.00 | 0.01 | 0.00 | 93 | 1013.1 |
| 20260508031506 | 38 | 61 | 0.0 | 1.0 | 0.00 | 0.01 | 0.00 | 93 | 1013.1 |
| 20260508031401 | 38 | 61 | 0.0 | 1.0 | 0.00 | 0.01 | 0.00 | 93 | 1013.1 |
| 20260508031201 | 38 | 61 | 0.0 | 1.0 | 0.00 | 0.01 | 0.00 | 93 | 1013.1 |
| 20260508031101 | 38 | 61 | 0.0 | 0.0 | 0.00 | 0.01 | 0.00 | 93 | 1013.1 |
| 20260508031001 | 38 | 61 | 0.0 | 0.0 | 0.00 | 0.01 | 0.00 | 92 | 1013.0 |
| 20260508030902 | 38 | 61 | 0.0 | 0.0 | 0.00 | 0.01 | 0.00 | 92 | 1013.1 |
| 20260508030801 | 38 | 61 | 0.0 | 0.0 | 0.00 | 0.01 | 0.00 | 92 | 1013.1 |
| 20260508030700 | 38 | 61 | 0.0 | 0.0 | 0.00 | 0.01 | 0.00 | 92 | 1013.1 |
| 20260508030600 | 38 | 61 | 0.0 | 0.0 | 0.00 | 0.01 | 0.00 | 92 | 1013.0 |
| 20260508030500 | 38 | 61 | 0.0 | 0.0 | 0.00 | 0.01 | 0.00 | 92 | 1013.1 |
| 20260508030400 | 38 | 61 | 0.0 | 0.0 | 0.00 | 0.01 | 0.00 | 92 | 1013.1 |
| 20260508030300 | 38 | 61 | 0.0 | 0.0 | 0.00 | 0.01 | 0.00 | 92 | 1013.1 |
| 20260508030200 | 38 | 61 | 0.0 | 0.0 | 0.00 | 0.01 | 0.00 | 92 | 1013.1 |
| 20260508030001 | 38 | 61 | 0.0 | 0.0 | 0.00 | 0.01 | 0.00 | 92 | 1013.0 |
| 20260508025900 | 38 | 61 | 0.0 | 0.0 | 0.00 | 0.01 | 0.00 | 92 | 1013.0 |
| 20260508025800 | 38 | 61 | 0.0 | 0.0 | 0.00 | 0.01 | 0.00 | 92 | 1013.0 |
| 20260508025701 | 38 | 61 | 0.0 | 0.0 | 0.00 | 0.01 | 0.00 | 92 | 1013.0 |
| 20260508025601 | 38 | 61 | 0.0 | 0.0 | 0.00 | 0.01 | 0.00 | 92 | 1013.0 |
| 20260508025501 | 38 | 61 | 0.0 | 0.0 | 0.00 | 0.01 | 0.00 | 92 | 1013.0 |
| 20260508025401 | 38 | 61 | 0.0 | 1.0 | 0.00 | 0.01 | 0.00 | 92 | 1013.0 |
| 20260508025301 | 38 | 61 | 0.0 | 1.0 | 0.00 | 0.01 | 0.00 | 92 | 1013.0 |
| 20260508025200 | 38 | 61 | 0.0 | 1.0 | 0.00 | 0.01 | 0.00 | 92 | 1013.0 |
| 20260508025101 | 38 | 61 | 0.0 | 1.0 | 0.00 | 0.01 | 0.00 | 92 | 1013.0 |
| 20260508025001 | 38 | 61 | 0.0 | 1.0 | 0.00 | 0.01 | 0.00 | 92 | 1013.0 |
| 20260508024901 | 38 | 61 | 0.0 | 1.0 | 0.00 | 0.01 | 0.00 | 92 | 1013.0 |
| 20260508024850 | 38 | 61 | 0.0 | 1.0 | 0.00 | 0.01 | 0.00 | 92 | 1013.0 |
| 20260508024845 | 38 | 61 | 0.0 | 1.0 | 0.00 | 0.01 | 0.00 | 92 | 1013.0 |
| 20260508024841 | 38 | 61 | 0.0 | 1.0 | 0.00 | 0.01 | 0.00 | 92 | 1013.0 |
| 20260508024601 | 38 | 61 | 0.0 | 1.0 | 0.00 | 0.01 | 0.00 | 92 | 1013.0 |
| 20260508024501 | 38 | 61 | 0.0 | 1.0 | 0.00 | 0.01 | 0.00 | 92 | 1013.0 |
| 20260508024401 | 38 | 61 | 0.0 | 0.0 | 0.00 | 0.01 | 0.00 | 92 | 1013.0 |
| 20260508024301 | 38 | 61 | 0.0 | 0.0 | 0.00 | 0.01 | 0.00 | 92 | 1013.0 |
| 20260508024200 | 38 | 61 | 0.0 | 0.0 | 0.00 | 0.01 | 0.00 | 92 | 1013.0 |
| 20260508024100 | 38 | 61 | 0.0 | 1.0 | 0.00 | 0.01 | 0.00 | 92 | 1013.0 |
| 20260508024001 | 38 | 61 | 0.0 | 1.0 | 0.00 | 0.01 | 0.00 | 92 | 1013.0 |
| 20260508023900 | 38 | 61 | 0.0 | 1.0 | 0.00 | 0.01 | 0.00 | 92 | 1013.0 |
| 20260508023800 | 38 | 61 | 0.0 | 1.0 | 0.00 | 0.01 | 0.00 | 92 | 1013.0 |
| 20260508023701 | 38 | 61 | 0.0 | 1.0 | 0.00 | 0.01 | 0.00 | 92 | 1013.0 |
| 20260508023601 | 38 | 61 | 0.0 | 1.0 | 0.00 | 0.01 | 0.00 | 92 | 1013.0 |
| 20260508023501 | 38 | 61 | 0.0 | 1.0 | 0.00 | 0.01 | 0.00 | 92 | 1013.0 |
| 20260508023401 | 38 | 61 | 0.0 | 1.0 | 0.00 | 0.01 | 0.00 | 92 | 1013.0 |
| 20260508023301 | 38 | 61 | 0.0 | 1.0 | 0.00 | 0.01 | 0.00 | 92 | 1013.1 |
| 20260508023200 | 38 | 61 | 0.0 | 1.0 | 0.00 | 0.01 | 0.00 | 92 | 1013.1 |
| 20260508023100 | 38 | 61 | 0.0 | 1.0 | 0.00 | 0.01 | 0.00 | 92 | 1013.0 |
| 20260508023000 | 38 | 61 | 0.0 | 1.0 | 0.00 | 0.01 | 0.00 | 92 | 1013.1 |
| 20260508022900 | 38 | 61 | 0.0 | 1.0 | 0.00 | 0.01 | 0.00 | 92 | 1013.1 |
| 20260508022801 | 38 | 61 | 0.0 | 1.0 | 0.00 | 0.01 | 0.00 | 92 | 1013.1 |
| 20260508022701 | 38 | 61 | 0.0 | 1.0 | 0.00 | 0.01 | 0.00 | 92 | 1013.1 |
| 20260508022601 | 38 | 61 | 0.0 | 1.0 | 0.00 | 0.01 | 0.00 | 92 | 1013.1 |
| 20260508022501 | 38 | 61 | 0.0 | 1.0 | 0.00 | 0.01 | 0.00 | 92 | 1013.0 |
| 20260508022406 | 38 | 61 | 0.0 | 1.0 | 0.00 | 0.01 | 0.00 | 92 | 1013.0 |
| 20260508022255 | 38 | 61 | 0.0 | 1.0 | 0.00 | 0.01 | 0.00 | 92 | 1013.1 |
| 20260508022129 | 38 | 61 | 0.0 | 1.0 | 0.00 | 0.01 | 0.00 | 92 | 1013.0 |
| 20260508022055 | 38 | 61 | 0.0 | 1.0 | 0.00 | 0.01 | 0.00 | 92 | 1013.0 |
| 20260508021955 | 38 | 61 | 0.0 | 1.0 | 0.00 | 0.01 | 0.00 | 92 | 1013.0 |
| 20260508021858 | 38 | 61 | 0.0 | 1.0 | 0.00 | 0.01 | 0.00 | 92 | 1013.1 |
| 20260508021751 | 38 | 61 | 0.0 | 1.0 | 0.00 | 0.01 | 0.00 | 92 | 1013.0 |
| 20260508021649 | 38 | 61 | 0.0 | 1.0 | 0.00 | 0.01 | 0.00 | 92 | 1013.0 |
| 20260508021629 | 38 | 61 | 0.0 | 1.0 | 0.00 | 0.01 | 0.00 | 91 | 1013.0 |
| 20260508021549 | 38 | 61 | 0.0 | 1.0 | 0.00 | 0.01 | 0.00 | 92 | 1013.0 |
| 20260508021449 | 38 | 61 | 0.0 | 1.0 | 0.00 | 0.01 | 0.00 | 91 | 1013.0 |
| 20260508021354 | 38 | 61 | 0.0 | 1.0 | 0.00 | 0.01 | 0.00 | 91 | 1013.0 |
| 20260508021245 | 38 | 61 | 0.0 | 1.0 | 0.00 | 0.01 | 0.00 | 91 | 1013.0 |
| 20260508021129 | 38 | 61 | 0.0 | 1.0 | 0.00 | 0.01 | 0.00 | 91 | 1013.1 |
| 20260508021043 | 38 | 61 | 0.0 | 1.0 | 0.00 | 0.01 | 0.00 | 91 | 1013.1 |
| 20260508020943 | 38 | 61 | 0.0 | 1.0 | 0.00 | 0.01 | 0.00 | 92 | 1013.1 |
| 20260508020847 | 38 | 61 | 0.0 | 2.0 | 0.00 | 0.01 | 0.00 | 92 | 1013.1 |
| 20260508020743 | 38 | 61 | 1.0 | 2.0 | 0.00 | 0.01 | 0.00 | 92 | 1013.1 |
| 20260508020628 | 38 | 61 | 1.0 | 2.0 | 0.00 | 0.01 | 0.00 | 92 | 1013.1 |
| 20260508020540 | 38 | 61 | 1.0 | 2.0 | 0.00 | 0.01 | 0.00 | 92 | 1013.2 |
| 20260508020439 | 38 | 61 | 1.0 | 2.0 | 0.00 | 0.01 | 0.00 | 92 | 1013.2 |
| 20260508020340 | 38 | 61 | 1.0 | 2.0 | 0.00 | 0.01 | 0.00 | 92 | 1013.2 |
| 20260508020237 | 38 | 61 | 1.0 | 2.0 | 0.00 | 0.01 | 0.00 | 92 | 1013.1 |
| 20260508020129 | 38 | 61 | 1.0 | 2.0 | 0.00 | 0.01 | 0.00 | 92 | 1013.1 |
| 20260508020035 | 38 | 61 | 1.0 | 2.0 | 0.00 | 0.01 | 0.00 | 92 | 1013.2 |
| 20260508015932 | 38 | 61 | 1.0 | 2.0 | 0.00 | 0.01 | 0.00 | 92 | 1013.2 |
| 20260508015833 | 38 | 61 | 1.0 | 2.0 | 0.00 | 0.01 | 0.00 | 92 | 1013.2 |
| 20260508015729 | 38 | 61 | 1.0 | 2.0 | 0.00 | 0.01 | 0.00 | 92 | 1013.1 |
| 20260508015629 | 38 | 61 | 1.0 | 2.0 | 0.00 | 0.01 | 0.00 | 92 | 1013.2 |
| 20260508015529 | 38 | 61 | 1.0 | 2.0 | 0.00 | 0.01 | 0.00 | 91 | 1013.2 |
| 20260508015429 | 38 | 61 | 1.0 | 2.0 | 0.00 | 0.01 | 0.00 | 91 | 1013.1 |
| 20260508015352 | 38 | 61 | 1.0 | 2.0 | 0.00 | 0.01 | 0.00 | 91 | 1013.2 |
| 20260508015344 | 38 | 61 | 1.0 | 2.0 | 0.00 | 0.01 | 0.00 | 91 | 1013.1 |
| 20260508015340 | 38 | 61 | 1.0 | 2.0 | 0.00 | 0.01 | 0.00 | 91 | 1013.2 |
| 20260508015029 | 38 | 61 | 1.0 | 2.0 | 0.00 | 0.01 | 0.00 | 91 | 1013.2 |
| 20260508014929 | 38 | 61 | 0.0 | 2.0 | 0.00 | 0.01 | 0.00 | 91 | 1013.2 |
| 20260508014829 | 38 | 61 | 0.0 | 2.0 | 0.00 | 0.01 | 0.00 | 91 | 1013.2 |
| 20260508014729 | 38 | 61 | 0.0 | 2.0 | 0.00 | 0.01 | 0.00 | 91 | 1013.2 |
| 20260508014628 | 38 | 61 | 0.0 | 2.0 | 0.00 | 0.01 | 0.00 | 91 | 1013.2 |
| 20260508014528 | 38 | 61 | 0.0 | 2.0 | 0.00 | 0.01 | 0.00 | 91 | 1013.2 |
| 20260508014429 | 38 | 61 | 0.0 | 2.0 | 0.00 | 0.01 | 0.00 | 91 | 1013.2 |
| 20260508014328 | 38 | 61 | 0.0 | 2.0 | 0.00 | 0.01 | 0.00 | 91 | 1013.2 |
| 20260508014229 | 38 | 61 | 0.0 | 2.0 | 0.00 | 0.01 | 0.00 | 91 | 1013.2 |
| 20260508014129 | 38 | 61 | 0.0 | 1.0 | 0.00 | 0.01 | 0.00 | 91 | 1013.2 |
| 20260508014029 | 38 | 61 | 0.0 | 1.0 | 0.00 | 0.01 | 0.00 | 91 | 1013.2 |
| 20260508013929 | 38 | 61 | 0.0 | 1.0 | 0.00 | 0.01 | 0.00 | 90 | 1013.2 |
| 20260508013828 | 38 | 61 | 0.0 | 1.0 | 0.00 | 0.01 | 0.00 | 90 | 1013.2 |
| 20260508013729 | 39 | 61 | 0.0 | 1.0 | 0.00 | 0.01 | 0.00 | 90 | 1013.2 |
| 20260508013629 | 39 | 61 | 0.0 | 2.0 | 0.00 | 0.01 | 0.00 | 90 | 1013.2 |
| 20260508013528 | 39 | 61 | 0.0 | 2.0 | 0.00 | 0.01 | 0.00 | 90 | 1013.2 |
| 20260508013428 | 39 | 61 | 0.0 | 2.0 | 0.00 | 0.01 | 0.00 | 90 | 1013.2 |
| 20260508013351 | 39 | 61 | 0.0 | 2.0 | 0.00 | 0.01 | 0.00 | 90 | 1013.2 |
| 20260508013344 | 39 | 61 | 0.0 | 2.0 | 0.00 | 0.01 | 0.00 | 89 | 1013.2 |
| 20260508013340 | 39 | 61 | 0.0 | 2.0 | 0.00 | 0.01 | 0.00 | 89 | 1013.2 |
| 20260508013029 | 39 | 61 | 1.0 | 2.0 | 0.00 | 0.01 | 0.00 | 90 | 1013.2 |
| 20260508012928 | 39 | 61 | 1.0 | 2.0 | 0.00 | 0.01 | 0.00 | 89 | 1013.2 |
| 20260508012828 | 39 | 61 | 1.0 | 3.0 | 0.00 | 0.01 | 0.00 | 89 | 1013.2 |
| 20260508012729 | 39 | 61 | 1.0 | 3.0 | 0.00 | 0.01 | 0.00 | 89 | 1013.2 |
| 20260508012629 | 39 | 61 | 1.0 | 3.0 | 0.00 | 0.01 | 0.00 | 89 | 1013.2 |
| 20260508012528 | 39 | 61 | 1.0 | 3.0 | 0.00 | 0.01 | 0.00 | 89 | 1013.2 |
| 20260508012429 | 39 | 61 | 1.0 | 3.0 | 0.00 | 0.01 | 0.00 | 90 | 1013.2 |
| 20260508012329 | 39 | 61 | 1.0 | 3.0 | 0.00 | 0.01 | 0.00 | 90 | 1013.2 |
| 20260508012229 | 39 | 61 | 1.0 | 3.0 | 0.00 | 0.01 | 0.00 | 90 | 1013.2 |
| 20260508012129 | 39 | 61 | 1.0 | 3.0 | 0.00 | 0.01 | 0.00 | 91 | 1013.2 |
| 20260508012028 | 40 | 61 | 1.0 | 3.0 | 0.00 | 0.01 | 0.00 | 91 | 1013.2 |
| 20260508011928 | 40 | 61 | 1.0 | 3.0 | 0.00 | 0.01 | 0.00 | 91 | 1013.2 |
| 20260508011829 | 40 | 61 | 1.0 | 3.0 | 0.00 | 0.01 | 0.00 | 91 | 1013.2 |
| 20260508011729 | 40 | 61 | 1.0 | 3.0 | 0.00 | 0.01 | 0.00 | 91 | 1013.2 |
| 20260508011629 | 40 | 61 | 1.0 | 3.0 | 0.00 | 0.01 | 0.00 | 91 | 1013.2 |
| 20260508011529 | 40 | 61 | 1.0 | 3.0 | 0.00 | 0.01 | 0.00 | 91 | 1013.2 |
| 20260508011429 | 40 | 61 | 1.0 | 3.0 | 0.00 | 0.01 | 0.00 | 91 | 1013.2 |
| 20260508011329 | 40 | 61 | 1.0 | 3.0 | 0.00 | 0.01 | 0.00 | 91 | 1013.2 |
| 20260508011229 | 40 | 61 | 1.0 | 3.0 | 0.00 | 0.01 | 0.00 | 91 | 1013.2 |
| 20260508011128 | 40 | 61 | 1.0 | 3.0 | 0.00 | 0.01 | 0.00 | 91 | 1013.1 |
| 20260508011028 | 40 | 61 | 2.0 | 3.0 | 0.00 | 0.01 | 0.00 | 91 | 1013.1 |
| 20260508010929 | 40 | 61 | 2.0 | 3.0 | 0.00 | 0.01 | 0.00 | 91 | 1013.1 |
| 20260508010829 | 40 | 61 | 1.0 | 3.0 | 0.00 | 0.01 | 0.00 | 91 | 1013.2 |
| 20260508010733 | 40 | 61 | 1.0 | 3.0 | 0.00 | 0.01 | 0.00 | 91 | 1013.1 |
| 20260508010629 | 40 | 61 | 1.0 | 3.0 | 0.00 | 0.01 | 0.00 | 91 | 1013.1 |
| 20260508010528 | 40 | 61 | 1.0 | 3.0 | 0.00 | 0.01 | 0.00 | 91 | 1013.2 |
| 20260508010428 | 40 | 61 | 1.0 | 3.0 | 0.00 | 0.01 | 0.00 | 91 | 1013.2 |
| 20260508010328 | 40 | 61 | 1.0 | 3.0 | 0.00 | 0.01 | 0.00 | 90 | 1013.2 |
| 20260508010228 | 40 | 61 | 0.0 | 1.0 | 0.00 | 0.01 | 0.00 | 90 | 1013.2 |
| 20260508010128 | 40 | 61 | 0.0 | 1.0 | 0.00 | 0.01 | 0.00 | 90 | 1013.2 |
| 20260508010028 | 40 | 61 | 0.0 | 1.0 | 0.00 | 0.01 | 0.00 | 90 | 1013.2 |
| 20260508005929 | 40 | 61 | 0.0 | 1.0 | 0.00 | 0.01 | 0.00 | 90 | 1013.2 |
| 20260508005829 | 40 | 61 | 0.0 | 1.0 | 0.00 | 0.01 | 0.00 | 90 | 1013.2 |
| 20260508005729 | 40 | 61 | 0.0 | 1.0 | 0.00 | 0.01 | 0.00 | 90 | 1013.1 |
| 20260508005630 | 40 | 61 | 0.0 | 1.0 | 0.00 | 0.01 | 0.00 | 90 | 1013.2 |
| 20260508005529 | 40 | 61 | 0.0 | 1.0 | 0.00 | 0.01 | 0.00 | 90 | 1013.2 |
| 20260508005428 | 40 | 61 | 0.0 | 1.0 | 0.00 | 0.01 | 0.00 | 90 | 1013.2 |
| 20260508005328 | 40 | 61 | 0.0 | 0.0 | 0.00 | 0.01 | 0.00 | 90 | 1013.2 |
| 20260508005229 | 40 | 61 | 0.0 | 0.0 | 0.00 | 0.01 | 0.00 | 89 | 1013.3 |
| 20260508005129 | 40 | 61 | 0.0 | 0.0 | 0.00 | 0.01 | 0.00 | 89 | 1013.3 |
| 20260508005029 | 40 | 61 | 0.0 | 0.0 | 0.00 | 0.01 | 0.00 | 89 | 1013.3 |
| 20260508004929 | 40 | 61 | 0.0 | 0.0 | 0.00 | 0.01 | 0.00 | 89 | 1013.3 |
| 20260508004829 | 40 | 61 | 0.0 | 0.0 | 0.00 | 0.01 | 0.00 | 89 | 1013.3 |
| 20260508004729 | 40 | 61 | 0.0 | 0.0 | 0.00 | 0.01 | 0.00 | 89 | 1013.4 |
| 20260508004629 | 40 | 61 | 0.0 | 1.0 | 0.00 | 0.01 | 0.00 | 89 | 1013.3 |
| 20260508004529 | 40 | 61 | 0.0 | 1.0 | 0.00 | 0.01 | 0.00 | 89 | 1013.4 |
| 20260508004429 | 40 | 61 | 0.0 | 1.0 | 0.00 | 0.01 | 0.00 | 89 | 1013.4 |
| 20260508004328 | 40 | 61 | 0.0 | 1.0 | 0.00 | 0.01 | 0.00 | 89 | 1013.4 |
| 20260508004228 | 40 | 61 | 0.0 | 1.0 | 0.00 | 0.01 | 0.00 | 89 | 1013.4 |
| 20260508004129 | 40 | 61 | 0.0 | 2.0 | 0.00 | 0.01 | 0.00 | 89 | 1013.4 |
| 20260508004029 | 40 | 61 | 1.0 | 2.0 | 0.00 | 0.01 | 0.00 | 89 | 1013.4 |
| 20260508003929 | 40 | 61 | 1.0 | 2.0 | 0.00 | 0.01 | 0.00 | 89 | 1013.4 |
| 20260508003829 | 40 | 61 | 1.0 | 2.0 | 0.00 | 0.01 | 0.00 | 89 | 1013.4 |
| 20260508003728 | 40 | 61 | 1.0 | 2.0 | 0.00 | 0.01 | 0.00 | 89 | 1013.4 |
| 20260508003628 | 40 | 61 | 1.0 | 2.0 | 0.00 | 0.01 | 0.00 | 89 | 1013.4 |
| 20260508003528 | 40 | 61 | 1.0 | 2.0 | 0.00 | 0.01 | 0.00 | 89 | 1013.5 |
| 20260508003428 | 40 | 61 | 1.0 | 2.0 | 0.00 | 0.01 | 0.00 | 89 | 1013.4 |
| 20260508003351 | 41 | 61 | 1.0 | 2.0 | 0.00 | 0.01 | 0.00 | 89 | 1013.4 |
| 20260508003347 | 41 | 61 | 1.0 | 2.0 | 0.00 | 0.01 | 0.00 | 90 | 1013.4 |
| 20260508003339 | 41 | 61 | 1.0 | 2.0 | 0.00 | 0.01 | 0.00 | 90 | 1013.4 |
| 20260508003029 | 41 | 61 | 1.0 | 2.0 | 0.00 | 0.01 | 0.00 | 90 | 1013.4 |
| 20260508002930 | 41 | 61 | 1.0 | 2.0 | 0.00 | 0.01 | 0.00 | 90 | 1013.4 |
| 20260508002828 | 41 | 61 | 1.0 | 2.0 | 0.00 | 0.01 | 0.00 | 90 | 1013.4 |
| 20260508002728 | 41 | 61 | 1.0 | 2.0 | 0.00 | 0.01 | 0.00 | 90 | 1013.4 |
| 20260508002629 | 41 | 61 | 1.0 | 2.0 | 0.00 | 0.01 | 0.00 | 90 | 1013.4 |
| 20260508002527 | 41 | 61 | 0.0 | 2.0 | 0.00 | 0.01 | 0.00 | 90 | 1013.4 |
| 20260508002427 | 41 | 61 | 0.0 | 2.0 | 0.00 | 0.01 | 0.00 | 90 | 1013.4 |
| 20260508002324 | 41 | 61 | 0.0 | 2.0 | 0.00 | 0.01 | 0.00 | 90 | 1013.4 |
| 20260508002224 | 41 | 61 | 0.0 | 2.0 | 0.00 | 0.01 | 0.00 | 90 | 1013.4 |
| 20260508002129 | 41 | 61 | 0.0 | 2.0 | 0.00 | 0.01 | 0.00 | 90 | 1013.4 |
| 20260508002125 | 41 | 61 | 0.0 | 2.0 | 0.00 | 0.01 | 0.00 | 89 | 1013.4 |
| 20260508002021 | 41 | 61 | 0.0 | 2.0 | 0.00 | 0.01 | 0.00 | 89 | 1013.4 |
| 20260508001920 | 41 | 61 | 0.0 | 1.0 | 0.00 | 0.01 | 0.00 | 89 | 1013.4 |
| 20260508001820 | 41 | 61 | 0.0 | 1.0 | 0.00 | 0.01 | 0.00 | 89 | 1013.4 |
| 20260508001720 | 41 | 61 | 0.0 | 1.0 | 0.00 | 0.01 | 0.00 | 89 | 1013.5 |
| 20260508001620 | 41 | 61 | 0.0 | 1.0 | 0.00 | 0.01 | 0.00 | 89 | 1013.5 |
| 20260508001521 | 41 | 61 | 0.0 | 1.0 | 0.00 | 0.01 | 0.00 | 89 | 1013.5 |
| 20260508001419 | 41 | 61 | 0.0 | 1.0 | 0.00 | 0.01 | 0.00 | 88 | 1013.5 |
| 20260508001319 | 41 | 61 | 0.0 | 1.0 | 0.00 | 0.01 | 0.00 | 88 | 1013.5 |
| 20260508001219 | 41 | 61 | 0.0 | 1.0 | 0.00 | 0.01 | 0.00 | 88 | 1013.5 |
| 20260508001118 | 41 | 61 | 0.0 | 1.0 | 0.00 | 0.01 | 0.00 | 87 | 1013.5 |
| 20260508000919 | 41 | 61 | 0.0 | 1.0 | 0.00 | 0.01 | 0.00 | 86 | 1013.5 |
| 20260508000819 | 41 | 61 | 0.0 | 1.0 | 0.00 | 0.01 | 0.00 | 87 | 1013.5 |
| 20260508000717 | 41 | 61 | 0.0 | 2.0 | 0.00 | 0.01 | 0.00 | 86 | 1013.5 |
| 20260508000617 | 41 | 61 | 0.0 | 2.0 | 0.00 | 0.01 | 0.00 | 87 | 1013.6 |
| 20260508000515 | 42 | 61 | 0.0 | 2.0 | 0.00 | 0.01 | 0.00 | 87 | 1013.6 |
| 20260508000414 | 42 | 61 | 0.0 | 2.0 | 0.00 | 0.01 | 0.00 | 86 | 1013.6 |
| 20260508000314 | 42 | 61 | 0.0 | 2.0 | 0.00 | 0.01 | 0.00 | 86 | 1013.6 |
| 20260508000214 | 42 | 61 | 0.0 | 2.0 | 0.00 | 0.01 | 0.00 | 86 | 1013.6 |
| 20260508000115 | 42 | 61 | 0.0 | 2.0 | 0.00 | 0.01 | 0.00 | 86 | 1013.6 |
| 20260508000015 | 42 | 61 | 0.0 | 2.0 | 0.00 | 0.01 | 0.00 | 87 | 1013.7 |
| 20260507235915 | 42 | 61 | 0.0 | 2.0 | 0.00 | 0.01 | 0.00 | 87 | 1013.7 |
| 20260507235815 | 42 | 61 | 0.0 | 2.0 | 0.00 | 0.01 | 0.00 | 87 | 1013.7 |
| 20260507235715 | 42 | 61 | 0.0 | 1.0 | 0.00 | 0.01 | 0.00 | 87 | 1013.7 |
| 20260507235610 | 42 | 61 | 0.0 | 0.0 | 0.00 | 0.01 | 0.00 | 87 | 1013.7 |
| 20260507235510 | 42 | 61 | 0.0 | 0.0 | 0.00 | 0.01 | 0.00 | 88 | 1013.7 |
| 20260507235411 | 42 | 61 | 0.0 | 0.0 | 0.00 | 0.01 | 0.00 | 88 | 1013.8 |
| 20260507235311 | 42 | 61 | 0.0 | 0.0 | 0.00 | 0.01 | 0.00 | 88 | 1013.7 |
| 20260507235211 | 42 | 61 | 0.0 | 0.0 | 0.00 | 0.01 | 0.00 | 88 | 1013.8 |
| 20260507235111 | 42 | 61 | 0.0 | 0.0 | 0.00 | 0.01 | 0.00 | 89 | 1013.8 |
| 20260507235010 | 43 | 61 | 0.0 | 0.0 | 0.00 | 0.01 | 0.00 | 88 | 1013.8 |
| 20260507234910 | 43 | 61 | 0.0 | 0.0 | 0.00 | 0.01 | 0.00 | 88 | 1013.8 |
| 20260507234810 | 43 | 61 | 0.0 | 0.0 | 0.00 | 0.01 | 0.00 | 88 | 1013.8 |
| 20260507234710 | 43 | 61 | 0.0 | 0.0 | 0.00 | 0.01 | 0.00 | 88 | 1013.8 |
| 20260507234615 | 43 | 61 | 0.0 | 0.0 | 0.00 | 0.01 | 0.00 | 88 | 1013.8 |
| 20260507234511 | 43 | 61 | 0.0 | 0.0 | 0.00 | 0.01 | 0.00 | 88 | 1013.8 |
| 20260507234411 | 43 | 61 | 0.0 | 0.0 | 0.00 | 0.01 | 0.00 | 88 | 1013.8 |
| 20260507234311 | 43 | 61 | 0.0 | 0.0 | 0.00 | 0.01 | 0.00 | 88 | 1013.8 |
| 20260507234211 | 43 | 61 | 0.0 | 0.0 | 0.00 | 0.01 | 0.00 | 88 | 1013.8 |
| 20260507234110 | 43 | 61 | 0.0 | 0.0 | 0.00 | 0.01 | 0.00 | 88 | 1013.8 |
| 20260507234010 | 43 | 61 | 0.0 | 0.0 | 0.00 | 0.01 | 0.00 | 89 | 1013.8 |
| 20260507233910 | 43 | 61 | 0.0 | 0.0 | 0.00 | 0.01 | 0.00 | 88 | 1013.8 |
| 20260507233810 | 43 | 61 | 0.0 | 0.0 | 0.00 | 0.01 | 0.00 | 89 | 1013.8 |
| 20260507233706 | 43 | 61 | 0.0 | 0.0 | 0.00 | 0.01 | 0.00 | 88 | 1013.8 |
| 20260507233628 | 43 | 61 | 0.0 | 0.0 | 0.00 | 0.01 | 0.00 | 89 | 1013.8 |
| 20260507233608 | 43 | 61 | 0.0 | 0.0 | 0.00 | 0.01 | 0.00 | 88 | 1013.8 |
| 20260507233507 | 43 | 61 | 0.0 | 0.0 | 0.00 | 0.01 | 0.00 | 88 | 1013.9 |
| 20260507233407 | 43 | 61 | 0.0 | 0.0 | 0.00 | 0.01 | 0.00 | 88 | 1013.9 |
| 20260507233307 | 43 | 61 | 0.0 | 0.0 | 0.00 | 0.01 | 0.00 | 88 | 1013.9 |
| 20260507233206 | 43 | 61 | 0.0 | 0.0 | 0.00 | 0.01 | 0.00 | 88 | 1013.9 |
| 20260507233106 | 43 | 61 | 0.0 | 0.0 | 0.00 | 0.01 | 0.00 | 88 | 1013.9 |
| 20260507233006 | 43 | 61 | 0.0 | 0.0 | 0.00 | 0.01 | 0.00 | 88 | 1013.9 |
| 20260507232906 | 43 | 61 | 0.0 | 0.0 | 0.00 | 0.01 | 0.00 | 88 | 1013.9 |
| 20260507232807 | 43 | 61 | 0.0 | 0.0 | 0.00 | 0.01 | 0.00 | 88 | 1013.9 |
| 20260507232707 | 43 | 61 | 0.0 | 0.0 | 0.00 | 0.01 | 0.00 | 88 | 1014.1 |
| 20260507232612 | 43 | 61 | 0.0 | 0.0 | 0.00 | 0.01 | 0.00 | 88 | 1013.9 |
| 20260507232507 | 43 | 61 | 0.0 | 0.0 | 0.00 | 0.01 | 0.00 | 88 | 1013.9 |
| 20260507232407 | 43 | 61 | 0.0 | 0.0 | 0.00 | 0.01 | 0.00 | 88 | 1014.1 |
| 20260507232307 | 43 | 61 | 0.0 | 0.0 | 0.00 | 0.01 | 0.00 | 88 | 1013.9 |
| 20260507232206 | 43 | 61 | 0.0 | 0.0 | 0.00 | 0.01 | 0.00 | 88 | 1014.1 |
| 20260507232129 | 43 | 61 | 0.0 | 0.0 | 0.00 | 0.01 | 0.00 | 88 | 1014.1 |
| 20260507232107 | 43 | 61 | 0.0 | 1.0 | 0.00 | 0.01 | 0.00 | 88 | 1014.1 |
| 20260507232006 | 43 | 61 | 0.0 | 1.0 | 0.00 | 0.01 | 0.00 | 88 | 1014.1 |
| 20260507231907 | 43 | 63 | 0.0 | 1.0 | 0.00 | 0.01 | 0.00 | 88 | 1013.9 |
| 20260507231803 | 43 | 63 | 0.0 | 1.0 | 0.00 | 0.01 | 0.00 | 87 | 1014.1 |
| 20260507231703 | 43 | 63 | 0.0 | 1.0 | 0.00 | 0.01 | 0.00 | 87 | 1014.1 |
| 20260507231602 | 43 | 63 | 0.0 | 1.0 | 0.00 | 0.01 | 0.00 | 87 | 1014.1 |
| 20260507231502 | 43 | 63 | 0.0 | 1.0 | 0.00 | 0.01 | 0.00 | 87 | 1014.1 |
| 20260507231402 | 43 | 63 | 0.0 | 1.0 | 0.00 | 0.01 | 0.00 | 87 | 1014.1 |
| 20260507231302 | 44 | 63 | 0.0 | 1.0 | 0.00 | 0.01 | 0.00 | 87 | 1014.1 |
| 20260507231202 | 44 | 63 | 0.0 | 1.0 | 0.00 | 0.01 | 0.00 | 87 | 1014.1 |
| 20260507231102 | 44 | 63 | 0.0 | 1.0 | 0.00 | 0.01 | 0.00 | 87 | 1014.2 |
| 20260507231003 | 44 | 63 | 0.0 | 1.0 | 0.00 | 0.01 | 0.00 | 87 | 1014.1 |
| 20260507230903 | 44 | 63 | 0.0 | 1.0 | 0.00 | 0.01 | 0.00 | 87 | 1014.1 |
| 20260507230803 | 44 | 63 | 0.0 | 1.0 | 0.00 | 0.01 | 0.00 | 87 | 1014.1 |
| 20260507230702 | 44 | 63 | 0.0 | 1.0 | 0.00 | 0.01 | 0.00 | 87 | 1014.2 |
| 20260507230602 | 44 | 63 | 0.0 | 1.0 | 0.00 | 0.01 | 0.00 | 87 | 1014.1 |
| 20260507230502 | 44 | 63 | 0.0 | 1.0 | 0.00 | 0.01 | 0.00 | 86 | 1014.1 |
| 20260507230402 | 44 | 63 | 0.0 | 1.0 | 0.00 | 0.01 | 0.00 | 86 | 1014.1 |
| 20260507230302 | 44 | 63 | 0.0 | 1.0 | 0.00 | 0.01 | 0.00 | 86 | 1014.1 |
| 20260507230202 | 44 | 63 | 0.0 | 2.0 | 0.00 | 0.01 | 0.00 | 86 | 1014.1 |
| 20260507230101 | 44 | 63 | 0.0 | 2.0 | 0.00 | 0.01 | 0.00 | 85 | 1014.1 |
| 20260507230001 | 44 | 63 | 0.0 | 2.0 | 0.00 | 0.01 | 0.00 | 86 | 1013.9 |
| 20260507225901 | 44 | 63 | 1.0 | 2.0 | 0.00 | 0.01 | 0.00 | 86 | 1013.9 |
| 20260507225848 | 44 | 63 | 1.0 | 2.0 | 0.00 | 0.01 | 0.00 | 86 | 1014.1 |
| 20260507225844 | 44 | 63 | 1.0 | 2.0 | 0.00 | 0.01 | 0.00 | 86 | 1014.1 |
| 20260507225840 | 44 | 63 | 1.0 | 2.0 | 0.00 | 0.01 | 0.00 | 86 | 1014.1 |
| 20260507225601 | 44 | 63 | 1.0 | 2.0 | 0.00 | 0.01 | 0.00 | 86 | 1014.1 |
| 20260507225501 | 44 | 63 | 1.0 | 2.0 | 0.00 | 0.01 | 0.00 | 86 | 1014.1 |
| 20260507225401 | 45 | 63 | 1.0 | 2.0 | 0.00 | 0.01 | 0.00 | 86 | 1014.1 |
| 20260507225301 | 45 | 63 | 1.0 | 2.0 | 0.00 | 0.01 | 0.00 | 86 | 1014.1 |
| 20260507225201 | 45 | 63 | 1.0 | 2.0 | 0.00 | 0.01 | 0.00 | 86 | 1014.2 |
| 20260507225100 | 45 | 63 | 1.0 | 2.0 | 0.00 | 0.01 | 0.00 | 86 | 1014.1 |
| 20260507225001 | 45 | 63 | 1.0 | 2.0 | 0.00 | 0.01 | 0.00 | 86 | 1014.1 |
| 20260507224901 | 45 | 63 | 1.0 | 2.0 | 0.00 | 0.01 | 0.00 | 86 | 1014.1 |
| 20260507224853 | 45 | 65 | 0.0 | 2.0 | 0.00 | 0.01 | 0.00 | 86 | 1014.1 |
| 20260507224844 | 45 | 63 | 1.0 | 2.0 | 0.00 | 0.01 | 0.00 | 86 | 1014.1 |
| 20260507224840 | 45 | 63 | 0.0 | 2.0 | 0.00 | 0.01 | 0.00 | 86 | 1014.1 |
| 20260507224601 | 45 | 65 | 0.0 | 2.0 | 0.00 | 0.01 | 0.00 | 86 | 1014.1 |
| 20260507224501 | 45 | 65 | 0.0 | 2.0 | 0.00 | 0.01 | 0.00 | 86 | 1014.1 |
| 20260507224401 | 45 | 65 | 0.0 | 2.0 | 0.00 | 0.01 | 0.00 | 86 | 1013.9 |
| 20260507224347 | 45 | 65 | 0.0 | 2.0 | 0.00 | 0.01 | 0.00 | 86 | 1014.1 |
| 20260507224342 | 45 | 65 | 0.0 | 2.0 | 0.00 | 0.01 | 0.00 | 86 | 1013.9 |
| 20260507224339 | 45 | 65 | 0.0 | 2.0 | 0.00 | 0.01 | 0.00 | 86 | 1013.9 |
| 20260507224101 | 45 | 65 | 0.0 | 2.0 | 0.00 | 0.01 | 0.00 | 86 | 1014.1 |
| 20260507224001 | 45 | 66 | 0.0 | 2.0 | 0.00 | 0.01 | 0.00 | 86 | 1013.9 |
| 20260507223901 | 45 | 66 | 0.0 | 2.0 | 0.00 | 0.01 | 0.00 | 86 | 1013.9 |
| 20260507223801 | 45 | 66 | 0.0 | 2.0 | 0.00 | 0.01 | 0.00 | 86 | 1013.9 |
| 20260507223700 | 46 | 66 | 0.0 | 2.0 | 0.00 | 0.01 | 0.00 | 86 | 1013.9 |
| 20260507223600 | 46 | 66 | 0.0 | 2.0 | 0.00 | 0.01 | 0.00 | 86 | 1013.9 |
| 20260507223500 | 46 | 66 | 0.0 | 2.0 | 0.00 | 0.01 | 0.00 | 86 | 1013.9 |
| 20260507223400 | 46 | 66 | 0.0 | 2.0 | 0.00 | 0.01 | 0.00 | 86 | 1013.9 |
| 20260507223300 | 46 | 66 | 0.0 | 2.0 | 0.00 | 0.01 | 0.00 | 86 | 1013.9 |
| 20260507223200 | 46 | 66 | 0.0 | 2.0 | 0.00 | 0.01 | 0.00 | 85 | 1013.9 |
| 20260507223101 | 46 | 66 | 0.0 | 2.0 | 0.00 | 0.01 | 0.00 | 85 | 1013.8 |
| 20260507223001 | 46 | 68 | 0.0 | 2.0 | 0.00 | 0.01 | 0.00 | 85 | 1013.8 |
| 20260507222901 | 46 | 68 | 0.0 | 2.0 | 0.00 | 0.01 | 0.00 | 85 | 1013.8 |
| 20260507222852 | 46 | 71 | 0.0 | 2.0 | 0.00 | 0.01 | 0.00 | 85 | 1013.9 |
| 20260507222845 | 46 | 70 | 0.0 | 2.0 | 0.00 | 0.01 | 0.00 | 85 | 1013.8 |
| 20260507222841 | 46 | 70 | 0.0 | 2.0 | 0.00 | 0.01 | 0.00 | 85 | 1013.9 |
| 20260507222600 | 46 | 71 | 0.0 | 2.0 | 0.00 | 0.01 | 0.00 | 85 | 1013.9 |
| 20260507222501 | 46 | 71 | 0.0 | 2.0 | 0.00 | 0.01 | 0.00 | 85 | 1013.9 |
| 20260507222401 | 46 | 71 | 0.0 | 2.0 | 0.00 | 0.01 | 0.00 | 84 | 1013.9 |
| 20260507222301 | 46 | 71 | 0.0 | 3.0 | 0.00 | 0.01 | 0.00 | 84 | 1013.9 |
| 20260507222201 | 47 | 71 | 1.0 | 3.0 | 0.00 | 0.01 | 0.00 | 84 | 1013.9 |
| 20260507222101 | 47 | 71 | 1.0 | 3.0 | 0.00 | 0.01 | 0.00 | 84 | 1013.9 |
| 20260507222001 | 47 | 71 | 1.0 | 3.0 | 0.00 | 0.01 | 0.00 | 84 | 1014.1 |
| 20260507221901 | 47 | 71 | 1.0 | 3.0 | 0.00 | 0.01 | 0.00 | 84 | 1014.1 |
| 20260507221852 | 47 | 71 | 2.0 | 3.0 | 0.00 | 0.01 | 0.00 | 84 | 1013.9 |
| 20260507221845 | 47 | 71 | 1.0 | 3.0 | 0.00 | 0.01 | 0.00 | 84 | 1013.9 |
| 20260507221841 | 47 | 71 | 2.0 | 3.0 | 0.00 | 0.01 | 0.00 | 84 | 1013.9 |
| 20260507221601 | 47 | 71 | 2.0 | 3.0 | 0.00 | 0.01 | 0.00 | 84 | 1013.9 |
| 20260507221501 | 47 | 71 | 2.0 | 3.0 | 0.00 | 0.01 | 0.00 | 84 | 1014.1 |
| 20260507221401 | 47 | 71 | 2.0 | 3.0 | 0.00 | 0.01 | 0.00 | 84 | 1013.9 |
| 20260507221350 | 47 | 71 | 1.0 | 3.0 | 0.00 | 0.01 | 0.00 | 84 | 1014.1 |
| 20260507221344 | 47 | 71 | 2.0 | 3.0 | 0.00 | 0.01 | 0.00 | 84 | 1013.9 |
| 20260507221340 | 47 | 71 | 1.0 | 3.0 | 0.00 | 0.01 | 0.00 | 84 | 1014.1 |
| 20260507221100 | 47 | 71 | 1.0 | 3.0 | 0.00 | 0.01 | 0.00 | 84 | 1014.1 |
| 20260507221000 | 47 | 67 | 1.0 | 3.0 | 0.00 | 0.01 | 0.00 | 84 | 1014.1 |
| 20260507220900 | 47 | 65 | 1.0 | 3.0 | 0.00 | 0.01 | 0.00 | 83 | 1014.1 |
| 20260507220800 | 47 | 59 | 1.0 | 3.0 | 0.00 | 0.01 | 0.00 | 83 | 1014.1 |
| 20260507220700 | 47 | 58 | 0.0 | 3.0 | 0.00 | 0.01 | 0.00 | 83 | 1014.1 |
| 20260507220628 | 47 | 57 | 0.0 | 2.0 | 0.00 | 0.01 | 0.00 | 83 | 1014.1 |
| 20260507220601 | 48 | 57 | 0.0 | 2.0 | 0.00 | 0.01 | 0.00 | 83 | 1014.1 |
| 20260507220500 | 48 | 57 | 0.0 | 1.0 | 0.00 | 0.01 | 0.00 | 83 | 1014.1 |
| 20260507220400 | 48 | 57 | 0.0 | 1.0 | 0.00 | 0.01 | 0.00 | 83 | 1014.1 |
| 20260507220300 | 48 | 57 | 0.0 | 1.0 | 0.00 | 0.01 | 0.00 | 83 | 1014.1 |
| 20260507220201 | 48 | 57 | 1.0 | 2.0 | 0.00 | 0.01 | 0.00 | 83 | 1014.1 |
| 20260507220124 | 48 | 57 | 1.0 | 2.0 | 0.00 | 0.01 | 0.01 | 83 | 1013.9 |
| 20260507220117 | 48 | 57 | 1.0 | 2.0 | 0.00 | 0.01 | 0.00 | 83 | 1014.1 |
| 20260507220109 | 48 | 57 | 1.0 | 2.0 | 0.00 | 0.01 | 0.00 | 83 | 1014.1 |
| 20260507220105 | 48 | 57 | 1.0 | 2.0 | 0.00 | 0.01 | 0.01 | 83 | 1014.1 |
| 20260507215845 | 48 | 57 | 1.0 | 2.0 | 0.00 | 0.01 | 0.01 | 83 | 1014.1 |
| 20260507215841 | 48 | 57 | 1.0 | 2.0 | 0.00 | 0.01 | 0.01 | 83 | 1013.9 |
| 20260507215601 | 48 | 57 | 1.0 | 2.0 | 0.00 | 0.01 | 0.01 | 83 | 1013.9 |
| 20260507215501 | 48 | 57 | 1.0 | 2.0 | 0.00 | 0.01 | 0.01 | 83 | 1013.9 |
| 20260507215358 | 48 | 57 | 1.0 | 2.0 | 0.00 | 0.01 | 0.01 | 83 | 1013.9 |
| 20260507215255 | 48 | 57 | 1.0 | 2.0 | 0.00 | 0.01 | 0.01 | 83 | 1013.9 |
| 20260507215129 | 48 | 57 | 0.0 | 2.0 | 0.00 | 0.01 | 0.01 | 83 | 1013.9 |
| 20260507215055 | 48 | 57 | 0.0 | 2.0 | 0.00 | 0.01 | 0.01 | 83 | 1013.9 |
| 20260507214954 | 48 | 57 | 0.0 | 2.0 | 0.00 | 0.01 | 0.01 | 83 | 1013.9 |
| 20260507214853 | 48 | 57 | 0.0 | 2.0 | 0.00 | 0.01 | 0.01 | 83 | 1013.9 |
| 20260507214843 | 48 | 57 | 0.0 | 1.0 | 0.00 | 0.01 | 0.01 | 83 | 1013.9 |
| 20260507214839 | 49 | 57 | 0.0 | 1.0 | 0.00 | 0.01 | 0.01 | 83 | 1013.9 |
| 20260507214551 | 48 | 57 | 0.0 | 1.0 | 0.00 | 0.01 | 0.01 | 83 | 1013.9 |
| 20260507214448 | 49 | 57 | 0.0 | 1.0 | 0.00 | 0.01 | 0.01 | 83 | 1013.9 |
| 20260507214348 | 49 | 57 | 0.0 | 1.0 | 0.00 | 0.01 | 0.01 | 83 | 1013.9 |
| 20260507214344 | 49 | 57 | 0.0 | 1.0 | 0.00 | 0.01 | 0.01 | 83 | 1013.9 |
| 20260507214340 | 49 | 57 | 0.0 | 1.0 | 0.00 | 0.01 | 0.01 | 83 | 1013.9 |
| 20260507214045 | 49 | 57 | 0.0 | 1.0 | 0.00 | 0.01 | 0.01 | 83 | 1013.8 |
| 20260507213943 | 49 | 57 | 0.0 | 1.0 | 0.00 | 0.01 | 0.01 | 83 | 1013.8 |
| 20260507213837 | 49 | 57 | 0.0 | 1.0 | 0.00 | 0.01 | 0.01 | 83 | 1013.8 |
| 20260507213738 | 49 | 57 | 0.0 | 1.0 | 0.00 | 0.01 | 0.01 | 83 | 1013.8 |
| 20260507213628 | 49 | 57 | 0.0 | 1.0 | 0.00 | 0.01 | 0.01 | 83 | 1013.8 |
| 20260507213535 | 49 | 57 | 0.0 | 1.0 | 0.00 | 0.01 | 0.01 | 83 | 1013.8 |
| 20260507213434 | 49 | 57 | 0.0 | 1.0 | 0.00 | 0.01 | 0.01 | 83 | 1013.8 |
| 20260507213329 | 49 | 57 | 0.0 | 0.0 | 0.00 | 0.01 | 0.01 | 83 | 1013.8 |
| 20260507213229 | 49 | 57 | 0.0 | 1.0 | 0.00 | 0.01 | 0.01 | 83 | 1013.8 |
| 20260507213129 | 49 | 57 | 0.0 | 2.0 | 0.00 | 0.01 | 0.01 | 84 | 1013.8 |
| 20260507213030 | 49 | 57 | 0.0 | 2.0 | 0.00 | 0.01 | 0.01 | 84 | 1013.8 |
| 20260507212929 | 49 | 57 | 0.0 | 3.0 | 0.00 | 0.01 | 0.01 | 84 | 1013.8 |
| 20260507212849 | 49 | 57 | 0.0 | 3.0 | 0.00 | 0.01 | 0.01 | 84 | 1013.8 |
| 20260507212845 | 49 | 57 | 0.0 | 3.0 | 0.00 | 0.01 | 0.01 | 84 | 1013.8 |
| 20260507212841 | 49 | 57 | 0.0 | 3.0 | 0.00 | 0.01 | 0.01 | 84 | 1013.9 |
| 20260507212529 | 49 | 57 | 0.0 | 3.0 | 0.00 | 0.01 | 0.01 | 84 | 1013.9 |
| 20260507212429 | 49 | 57 | 0.0 | 3.0 | 0.00 | 0.01 | 0.01 | 84 | 1013.8 |
| 20260507212329 | 49 | 57 | 0.0 | 3.0 | 0.00 | 0.01 | 0.01 | 84 | 1013.8 |
| 20260507212229 | 49 | 57 | 0.0 | 3.0 | 0.00 | 0.01 | 0.01 | 84 | 1013.8 |
| 20260507212128 | 49 | 57 | 0.0 | 3.0 | 0.00 | 0.01 | 0.01 | 84 | 1013.8 |
| 20260507212029 | 49 | 57 | 0.0 | 3.0 | 0.00 | 0.01 | 0.01 | 84 | 1013.8 |
| 20260507211929 | 49 | 40 | 0.0 | 2.0 | 0.00 | 0.01 | 0.01 | 84 | 1013.8 |
| 20260507211829 | 49 | 40 | 0.0 | 2.0 | 0.00 | 0.01 | 0.01 | 84 | 1013.8 |
| 20260507211729 | 49 | 40 | 0.0 | 2.0 | 0.00 | 0.01 | 0.01 | 84 | 1013.8 |
| 20260507211629 | 49 | 40 | 0.0 | 2.0 | 0.00 | 0.01 | 0.01 | 84 | 1013.8 |
| 20260507211529 | 49 | 40 | 0.0 | 2.0 | 0.00 | 0.01 | 0.01 | 84 | 1013.9 |
| 20260507211429 | 49 | 39 | 0.0 | 2.0 | 0.00 | 0.01 | 0.01 | 84 | 1013.9 |
| 20260507211348 | 49 | 35 | 0.0 | 2.0 | 0.00 | 0.01 | 0.01 | 84 | 1013.9 |
| 20260507211344 | 49 | 34 | 0.0 | 2.0 | 0.00 | 0.01 | 0.01 | 84 | 1013.9 |
| 20260507211340 | 49 | 34 | 0.0 | 2.0 | 0.00 | 0.01 | 0.01 | 84 | 1014.1 |
| 20260507210928 | 49 | 34 | 0.0 | 2.0 | 0.00 | 0.01 | 0.01 | 84 | 1014.1 |
| 20260507210828 | 49 | 34 | 0.0 | 2.0 | 0.00 | 0.01 | 0.01 | 84 | 1014.1 |
| 20260507210728 | 49 | 34 | 0.0 | 2.0 | 0.00 | 0.01 | 0.01 | 84 | 1014.1 |
| 20260507210628 | 49 | 34 | 0.0 | 2.0 | 0.00 | 0.01 | 0.01 | 84 | 1014.1 |
| 20260507210529 | 49 | 34 | 0.0 | 1.0 | 0.00 | 0.01 | 0.01 | 84 | 1014.2 |
| 20260507210429 | 49 | 34 | 0.0 | 1.0 | 0.00 | 0.01 | 0.01 | 84 | 1014.2 |
| 20260507210330 | 49 | 34 | 0.0 | 1.0 | 0.00 | 0.01 | 0.01 | 84 | 1014.2 |
| 20260507210230 | 49 | 34 | 0.0 | 1.0 | 0.00 | 0.01 | 0.01 | 84 | 1014.2 |
| 20260507210129 | 49 | 34 | 0.0 | 1.0 | 0.00 | 0.01 | 0.01 | 84 | 1014.2 |
| 20260507210029 | 49 | 34 | 0.0 | 1.0 | 0.00 | 0.01 | 0.01 | 84 | 1014.2 |
| 20260507205929 | 49 | 34 | 0.0 | 1.0 | 0.00 | 0.01 | 0.01 | 84 | 1014.2 |
| 20260507205829 | 49 | 34 | 0.0 | 1.0 | 0.00 | 0.01 | 0.01 | 84 | 1014.3 |
| 20260507205729 | 49 | 34 | 0.0 | 1.0 | 0.00 | 0.01 | 0.01 | 84 | 1014.3 |
| 20260507205629 | 49 | 34 | 0.0 | 1.0 | 0.00 | 0.01 | 0.01 | 84 | 1014.3 |
| 20260507205529 | 49 | 34 | 0.0 | 1.0 | 0.00 | 0.01 | 0.01 | 84 | 1014.3 |
| 20260507205429 | 49 | 34 | 0.0 | 1.0 | 0.00 | 0.01 | 0.01 | 84 | 1014.3 |
| 20260507205348 | 49 | 34 | 0.0 | 1.0 | 0.00 | 0.01 | 0.01 | 84 | 1014.3 |
| 20260507205344 | 49 | 34 | 0.0 | 1.0 | 0.00 | 0.01 | 0.01 | 84 | 1014.3 |
| 20260507205340 | 49 | 34 | 0.0 | 1.0 | 0.00 | 0.01 | 0.01 | 84 | 1014.3 |
| 20260507205029 | 49 | 34 | 0.0 | 1.0 | 0.00 | 0.01 | 0.01 | 84 | 1014.3 |
| 20260507204929 | 49 | 34 | 0.0 | 1.0 | 0.00 | 0.01 | 0.01 | 84 | 1014.3 |
| 20260507204829 | 49 | 34 | 0.0 | 1.0 | 0.00 | 0.01 | 0.01 | 84 | 1014.3 |
| 20260507204729 | 49 | 34 | 0.0 | 1.0 | 0.00 | 0.01 | 0.01 | 84 | 1014.3 |
| 20260507204629 | 49 | 34 | 0.0 | 1.0 | 0.00 | 0.01 | 0.01 | 84 | 1014.2 |
| 20260507204529 | 49 | 34 | 0.0 | 0.0 | 0.00 | 0.01 | 0.01 | 84 | 1014.2 |
| 20260507204429 | 49 | 34 | 0.0 | 0.0 | 0.00 | 0.01 | 0.01 | 84 | 1014.3 |
| 20260507204329 | 49 | 34 | 0.0 | 0.0 | 0.00 | 0.01 | 0.01 | 84 | 1014.3 |
| 20260507204228 | 49 | 34 | 0.0 | 0.0 | 0.00 | 0.01 | 0.01 | 84 | 1014.2 |
| 20260507204128 | 49 | 34 | 0.0 | 0.0 | 0.00 | 0.01 | 0.01 | 84 | 1014.2 |
| 20260507204028 | 49 | 34 | 0.0 | 0.0 | 0.00 | 0.01 | 0.01 | 83 | 1014.2 |
| 20260507203929 | 49 | 34 | 0.0 | 0.0 | 0.00 | 0.01 | 0.01 | 83 | 1014.3 |
| 20260507203829 | 49 | 34 | 0.0 | 0.0 | 0.00 | 0.01 | 0.01 | 83 | 1014.2 |
| 20260507203728 | 49 | 34 | 0.0 | 0.0 | 0.00 | 0.01 | 0.01 | 83 | 1014.3 |
| 20260507203628 | 49 | 34 | 0.0 | 0.0 | 0.00 | 0.01 | 0.01 | 83 | 1014.3 |
| 20260507203528 | 49 | 34 | 0.0 | 0.0 | 0.00 | 0.01 | 0.01 | 83 | 1014.2 |
| 20260507203429 | 49 | 34 | 0.0 | 0.0 | 0.00 | 0.01 | 0.01 | 83 | 1014.2 |
| 20260507203329 | 49 | 34 | 0.0 | 0.0 | 0.00 | 0.01 | 0.01 | 83 | 1014.2 |
| 20260507203229 | 49 | 34 | 0.0 | 0.0 | 0.00 | 0.01 | 0.01 | 82 | 1014.2 |
| 20260507203130 | 49 | 34 | 0.0 | 0.0 | 0.00 | 0.01 | 0.01 | 82 | 1014.2 |
| 20260507203029 | 49 | 34 | 0.0 | 0.0 | 0.00 | 0.01 | 0.01 | 82 | 1014.2 |
| 20260507202929 | 49 | 34 | 0.0 | 0.0 | 0.00 | 0.01 | 0.01 | 82 | 1014.2 |
| 20260507202829 | 49 | 34 | 0.0 | 0.0 | 0.00 | 0.01 | 0.01 | 83 | 1014.2 |
| 20260507202729 | 49 | 34 | 0.0 | 0.0 | 0.00 | 0.01 | 0.01 | 82 | 1014.2 |
| 20260507202629 | 49 | 34 | 0.0 | 0.0 | 0.00 | 0.01 | 0.01 | 82 | 1014.2 |
| 20260507202529 | 49 | 34 | 0.0 | 0.0 | 0.00 | 0.01 | 0.01 | 82 | 1014.2 |
| 20260507202429 | 49 | 34 | 0.0 | 0.0 | 0.00 | 0.01 | 0.01 | 82 | 1014.1 |
| 20260507202329 | 49 | 34 | 0.0 | 0.0 | 0.00 | 0.01 | 0.01 | 82 | 1014.1 |
| 20260507202229 | 49 | 34 | 0.0 | 0.0 | 0.00 | 0.01 | 0.01 | 82 | 1014.1 |
| 20260507202129 | 49 | 34 | 0.0 | 0.0 | 0.00 | 0.01 | 0.01 | 82 | 1014.2 |
| 20260507202029 | 49 | 34 | 0.0 | 0.0 | 0.00 | 0.01 | 0.01 | 81 | 1014.1 |
| 20260507201929 | 49 | 34 | 0.0 | 0.0 | 0.00 | 0.01 | 0.01 | 81 | 1014.2 |
| 20260507201829 | 49 | 34 | 0.0 | 0.0 | 0.00 | 0.01 | 0.01 | 81 | 1014.1 |
| 20260507201729 | 49 | 34 | 0.0 | 0.0 | 0.00 | 0.01 | 0.01 | 82 | 1014.1 |
| 20260507201628 | 49 | 34 | 0.0 | 0.0 | 0.00 | 0.01 | 0.01 | 81 | 1014.1 |
| 20260507201528 | 49 | 34 | 0.0 | 0.0 | 0.00 | 0.01 | 0.01 | 81 | 1014.1 |
| 20260507201429 | 49 | 34 | 0.0 | 0.0 | 0.00 | 0.01 | 0.01 | 81 | 1014.1 |
| 20260507201329 | 49 | 34 | 0.0 | 0.0 | 0.00 | 0.01 | 0.01 | 81 | 1014.1 |
| 20260507201229 | 49 | 34 | 0.0 | 0.0 | 0.00 | 0.01 | 0.01 | 81 | 1014.1 |
| 20260507201129 | 49 | 34 | 0.0 | 2.0 | 0.00 | 0.01 | 0.01 | 81 | 1014.1 |
| 20260507201029 | 49 | 34 | 0.0 | 2.0 | 0.00 | 0.01 | 0.01 | 81 | 1014.1 |
| 20260507200933 | 49 | 34 | 0.0 | 2.0 | 0.00 | 0.01 | 0.01 | 81 | 1014.1 |
| 20260507200847 | 49 | 34 | 0.0 | 2.0 | 0.00 | 0.01 | 0.01 | 81 | 1013.9 |
| 20260507200843 | 49 | 34 | 0.0 | 2.0 | 0.00 | 0.01 | 0.01 | 81 | 1013.9 |
| 20260507200838 | 49 | 34 | 0.0 | 2.0 | 0.00 | 0.01 | 0.01 | 81 | 1013.9 |
| 20260507200529 | 49 | 34 | 0.0 | 2.0 | 0.00 | 0.01 | 0.01 | 80 | 1013.9 |
| 20260507200429 | 49 | 34 | 0.0 | 2.0 | 0.00 | 0.01 | 0.01 | 80 | 1013.9 |
| 20260507200329 | 49 | 34 | 0.0 | 2.0 | 0.00 | 0.01 | 0.01 | 80 | 1013.9 |
| 20260507200230 | 49 | 34 | 0.0 | 2.0 | 0.00 | 0.01 | 0.01 | 80 | 1013.9 |
| 20260507200129 | 49 | 34 | 0.0 | 2.0 | 0.00 | 0.01 | 0.01 | 80 | 1013.9 |
| 20260507200029 | 50 | 33 | 0.0 | 2.0 | 0.00 | 0.01 | 0.01 | 80 | 1013.9 |
| 20260507195929 | 50 | 33 | 0.0 | 2.0 | 0.00 | 0.01 | 0.01 | 80 | 1013.9 |
| 20260507195829 | 50 | 33 | 0.0 | 2.0 | 0.00 | 0.01 | 0.01 | 80 | 1013.9 |
| 20260507195729 | 50 | 33 | 0.0 | 2.0 | 0.00 | 0.01 | 0.01 | 80 | 1013.9 |
| 20260507195629 | 50 | 33 | 0.0 | 2.0 | 0.00 | 0.01 | 0.01 | 80 | 1013.8 |
| 20260507195529 | 50 | 33 | 0.0 | 2.0 | 0.00 | 0.01 | 0.01 | 80 | 1013.8 |
| 20260507195429 | 50 | 33 | 0.0 | 2.0 | 0.00 | 0.01 | 0.01 | 80 | 1013.8 |
| 20260507195329 | 50 | 33 | 0.0 | 2.0 | 0.00 | 0.01 | 0.01 | 80 | 1013.8 |
| 20260507195229 | 50 | 33 | 0.0 | 2.0 | 0.00 | 0.01 | 0.01 | 80 | 1013.7 |
| 20260507195129 | 50 | 33 | 0.0 | 2.0 | 0.00 | 0.01 | 0.01 | 80 | 1013.8 |
| 20260507195029 | 50 | 33 | 0.0 | 2.0 | 0.00 | 0.01 | 0.01 | 80 | 1013.7 |
| 20260507194929 | 50 | 32 | 0.0 | 0.0 | 0.00 | 0.01 | 0.01 | 80 | 1013.7 |
| 20260507194849 | 50 | 32 | 0.0 | 0.0 | 0.00 | 0.01 | 0.01 | 80 | 1013.7 |
| 20260507194844 | 50 | 32 | 0.0 | 0.0 | 0.00 | 0.01 | 0.01 | 80 | 1013.6 |
| 20260507194840 | 50 | 32 | 0.0 | 0.0 | 0.00 | 0.01 | 0.01 | 80 | 1013.6 |
| 20260507194529 | 50 | 32 | 0.0 | 0.0 | 0.00 | 0.01 | 0.01 | 80 | 1013.6 |
| 20260507194429 | 50 | 32 | 0.0 | 0.0 | 0.00 | 0.01 | 0.01 | 80 | 1013.6 |
| 20260507194328 | 50 | 32 | 0.0 | 0.0 | 0.00 | 0.01 | 0.01 | 79 | 1013.6 |
| 20260507194228 | 50 | 32 | 0.0 | 0.0 | 0.00 | 0.01 | 0.01 | 79 | 1013.6 |
| 20260507194129 | 50 | 32 | 0.0 | 0.0 | 0.00 | 0.01 | 0.01 | 79 | 1013.6 |
| 20260507194029 | 50 | 32 | 0.0 | 0.0 | 0.00 | 0.01 | 0.01 | 79 | 1013.6 |
| 20260507193929 | 50 | 32 | 0.0 | 0.0 | 0.00 | 0.01 | 0.01 | 79 | 1013.5 |
| 20260507193829 | 50 | 32 | 0.0 | 0.0 | 0.00 | 0.01 | 0.01 | 79 | 1013.5 |
| 20260507193730 | 50 | 32 | 0.0 | 0.0 | 0.00 | 0.01 | 0.01 | 79 | 1013.6 |
| 20260507193628 | 51 | 32 | 0.0 | 0.0 | 0.00 | 0.01 | 0.01 | 79 | 1013.6 |
| 20260507193528 | 51 | 32 | 0.0 | 0.0 | 0.00 | 0.01 | 0.01 | 79 | 1013.5 |
| 20260507193428 | 51 | 32 | 0.0 | 0.0 | 0.00 | 0.01 | 0.01 | 79 | 1013.5 |
| 20260507193329 | 51 | 32 | 0.0 | 0.0 | 0.00 | 0.01 | 0.01 | 79 | 1013.5 |
| 20260507193229 | 51 | 32 | 0.0 | 0.0 | 0.00 | 0.01 | 0.01 | 79 | 1013.5 |
| 20260507193127 | 51 | 32 | 0.0 | 0.0 | 0.00 | 0.01 | 0.01 | 79 | 1013.5 |
| 20260507193024 | 51 | 32 | 0.0 | 0.0 | 0.00 | 0.01 | 0.01 | 79 | 1013.5 |
| 20260507192923 | 51 | 32 | 0.0 | 0.0 | 0.00 | 0.01 | 0.01 | 79 | 1013.5 |
| 20260507192823 | 51 | 32 | 0.0 | 0.0 | 0.00 | 0.01 | 0.01 | 79 | 1013.5 |
| 20260507192722 | 51 | 32 | 0.0 | 1.0 | 0.00 | 0.01 | 0.01 | 79 | 1013.5 |
| 20260507192620 | 51 | 32 | 0.0 | 1.0 | 0.00 | 0.01 | 0.01 | 78 | 1013.5 |
| 20260507192518 | 51 | 32 | 0.0 | 1.0 | 0.00 | 0.01 | 0.01 | 78 | 1013.4 |
| 20260507192419 | 51 | 32 | 0.0 | 1.0 | 0.00 | 0.01 | 0.01 | 78 | 1013.5 |
| 20260507192317 | 51 | 32 | 0.0 | 1.0 | 0.00 | 0.01 | 0.01 | 78 | 1013.4 |
| 20260507192217 | 51 | 32 | 0.0 | 1.0 | 0.00 | 0.01 | 0.01 | 78 | 1013.5 |
| 20260507192115 | 51 | 32 | 1.0 | 2.0 | 0.00 | 0.01 | 0.01 | 78 | 1013.4 |
| 20260507192012 | 51 | 32 | 1.0 | 2.0 | 0.00 | 0.01 | 0.01 | 78 | 1013.5 |
| 20260507191913 | 51 | 32 | 1.0 | 2.0 | 0.00 | 0.01 | 0.01 | 78 | 1013.5 |
| 20260507191811 | 51 | 32 | 1.0 | 2.0 | 0.00 | 0.01 | 0.01 | 78 | 1013.4 |
| 20260507191711 | 51 | 32 | 1.0 | 2.0 | 0.00 | 0.01 | 0.01 | 77 | 1013.4 |
| 20260507191610 | 51 | 32 | 1.0 | 2.0 | 0.00 | 0.01 | 0.01 | 77 | 1013.5 |
| 20260507191509 | 51 | 32 | 1.0 | 2.0 | 0.00 | 0.01 | 0.01 | 77 | 1013.4 |
| 20260507191409 | 51 | 32 | 1.0 | 2.0 | 0.00 | 0.01 | 0.01 | 77 | 1013.5 |
| 20260507191309 | 51 | 32 | 1.0 | 2.0 | 0.00 | 0.01 | 0.01 | 77 | 1013.4 |
| 20260507191209 | 51 | 32 | 1.0 | 2.0 | 0.00 | 0.01 | 0.01 | 76 | 1013.4 |
| 20260507191129 | 51 | 32 | 1.0 | 2.0 | 0.00 | 0.01 | 0.01 | 76 | 1013.4 |
| 20260507191107 | 51 | 32 | 1.0 | 3.0 | 0.00 | 0.01 | 0.01 | 76 | 1013.4 |
| 20260507191007 | 51 | 31 | 1.0 | 3.0 | 0.00 | 0.01 | 0.01 | 76 | 1013.3 |
| 20260507190907 | 52 | 31 | 1.0 | 3.0 | 0.00 | 0.01 | 0.01 | 76 | 1013.3 |
| 20260507190807 | 52 | 31 | 1.0 | 4.0 | 0.00 | 0.01 | 0.01 | 76 | 1013.3 |
| 20260507190707 | 52 | 30 | 1.0 | 4.0 | 0.00 | 0.01 | 0.01 | 77 | 1013.3 |
| 20260507190604 | 52 | 30 | 1.0 | 4.0 | 0.00 | 0.01 | 0.01 | 77 | 1013.3 |
| 20260507190505 | 52 | 31 | 1.0 | 4.0 | 0.00 | 0.01 | 0.01 | 77 | 1013.2 |
| 20260507190401 | 52 | 31 | 1.0 | 4.0 | 0.00 | 0.01 | 0.01 | 76 | 1013.2 |
| 20260507190301 | 52 | 31 | 2.0 | 5.0 | 0.00 | 0.01 | 0.01 | 76 | 1013.2 |
| 20260507190201 | 52 | 30 | 2.0 | 5.0 | 0.00 | 0.01 | 0.01 | 76 | 1013.2 |
| 20260507190129 | 52 | 30 | 2.0 | 5.0 | 0.00 | 0.01 | 0.01 | 76 | 1013.1 |
| 20260507190002 | 52 | 31 | 2.0 | 5.0 | 0.00 | 0.01 | 0.01 | 76 | 1013.1 |
| 20260507185901 | 52 | 30 | 2.0 | 5.0 | 0.00 | 0.01 | 0.01 | 76 | 1013.1 |
| 20260507185801 | 52 | 30 | 3.0 | 5.0 | 0.00 | 0.01 | 0.01 | 76 | 1013.1 |
| 20260507185701 | 52 | 30 | 3.0 | 5.0 | 0.00 | 0.01 | 0.01 | 76 | 1013.0 |
| 20260507185629 | 52 | 29 | 3.0 | 5.0 | 0.00 | 0.01 | 0.01 | 76 | 1013.0 |
| 20260507185601 | 52 | 21 | 3.0 | 5.0 | 0.00 | 0.01 | 0.01 | 76 | 1013.0 |
| 20260507185501 | 52 | 14 | 3.0 | 5.0 | 0.00 | 0.01 | 0.01 | 76 | 1013.0 |
| 20260507185401 | 52 | 22 | 3.0 | 5.0 | 0.00 | 0.01 | 0.01 | 75 | 1013.0 |
| 20260507185301 | 52 | 22 | 3.0 | 5.0 | 0.00 | 0.01 | 0.01 | 75 | 1012.9 |
| 20260507185202 | 52 | 24 | 3.0 | 5.0 | 0.00 | 0.01 | 0.01 | 75 | 1012.9 |
| 20260507185129 | 52 | 31 | 3.0 | 5.0 | 0.00 | 0.01 | 0.01 | 75 | 1012.9 |
| 20260507185101 | 52 | 24 | 3.0 | 5.0 | 0.00 | 0.01 | 0.01 | 75 | 1012.9 |
| 20260507185000 | 52 | 24 | 3.0 | 5.0 | 0.00 | 0.01 | 0.01 | 75 | 1012.9 |
| 20260507184900 | 53 | 11 | 3.0 | 5.0 | 0.00 | 0.01 | 0.01 | 75 | 1012.9 |
| 20260507184801 | 53 | 355 | 3.0 | 5.0 | 0.00 | 0.01 | 0.01 | 75 | 1012.9 |
| 20260507184701 | 53 | 13 | 2.0 | 5.0 | 0.00 | 0.01 | 0.01 | 75 | 1012.9 |
| 20260507184629 | 53 | 13 | 3.0 | 5.0 | 0.00 | 0.01 | 0.01 | 75 | 1012.9 |
| 20260507184600 | 53 | 14 | 3.0 | 5.0 | 0.00 | 0.01 | 0.01 | 75 | 1012.9 |
| 20260507184500 | 53 | 5 | 3.0 | 6.0 | 0.00 | 0.01 | 0.01 | 75 | 1012.9 |
| 20260507184400 | 53 | 0 | 3.0 | 8.0 | 0.00 | 0.01 | 0.01 | 74 | 1012.9 |
| 20260507184300 | 53 | 0 | 3.0 | 8.0 | 0.00 | 0.01 | 0.01 | 74 | 1012.9 |
| 20260507184200 | 53 | 0 | 3.0 | 8.0 | 0.00 | 0.01 | 0.01 | 74 | 1012.9 |
| 20260507184128 | 53 | 0 | 3.0 | 8.0 | 0.00 | 0.01 | 0.01 | 74 | 1012.8 |
| 20260507184101 | 53 | 355 | 3.0 | 8.0 | 0.00 | 0.01 | 0.01 | 74 | 1012.8 |
| 20260507184001 | 53 | 14 | 3.0 | 8.0 | 0.00 | 0.01 | 0.01 | 74 | 1012.8 |
| 20260507183901 | 53 | 15 | 3.0 | 8.0 | 0.00 | 0.01 | 0.01 | 74 | 1012.8 |
| 20260507183801 | 53 | 16 | 3.0 | 8.0 | 0.00 | 0.01 | 0.01 | 74 | 1012.8 |
| 20260507183701 | 53 | 12 | 3.0 | 8.0 | 0.00 | 0.01 | 0.01 | 74 | 1012.8 |
| 20260507183600 | 53 | 5 | 3.0 | 8.0 | 0.00 | 0.01 | 0.01 | 74 | 1012.8 |
| 20260507183455 | 53 | 28 | 3.0 | 8.0 | 0.00 | 0.01 | 0.01 | 74 | 1012.8 |
| 20260507183355 | 53 | 5 | 3.0 | 9.0 | 0.00 | 0.01 | 0.01 | 74 | 1012.8 |
| 20260507183255 | 53 | 23 | 3.0 | 9.0 | 0.00 | 0.01 | 0.01 | 74 | 1012.8 |
| 20260507183129 | 53 | 22 | 3.0 | 9.0 | 0.00 | 0.01 | 0.01 | 74 | 1012.8 |
| 20260507183054 | 53 | 24 | 3.0 | 9.0 | 0.00 | 0.01 | 0.01 | 74 | 1012.8 |
| 20260507182951 | 53 | 347 | 3.0 | 9.0 | 0.00 | 0.01 | 0.01 | 73 | 1012.7 |
| 20260507182858 | 54 | 49 | 3.0 | 9.0 | 0.00 | 0.01 | 0.01 | 73 | 1012.7 |
| 20260507182854 | 54 | 19 | 4.0 | 9.0 | 0.00 | 0.01 | 0.01 | 73 | 1012.7 |
| 20260507182845 | 54 | 5 | 4.0 | 9.0 | 0.00 | 0.01 | 0.01 | 73 | 1012.7 |
| 20260507182841 | 54 | 5 | 3.0 | 9.0 | 0.00 | 0.01 | 0.01 | 73 | 1012.7 |
| 20260507182549 | 54 | 0 | 4.0 | 9.0 | 0.00 | 0.01 | 0.01 | 73 | 1012.7 |
| 20260507182445 | 54 | 49 | 3.0 | 9.0 | 0.00 | 0.01 | 0.01 | 73 | 1012.7 |
| 20260507182343 | 54 | 340 | 4.0 | 7.0 | 0.00 | 0.01 | 0.01 | 73 | 1012.6 |
| 20260507182242 | 54 | 336 | 4.0 | 8.0 | 0.00 | 0.01 | 0.01 | 73 | 1012.6 |
| 20260507182143 | 54 | 14 | 3.0 | 8.0 | 0.00 | 0.01 | 0.01 | 73 | 1012.6 |
| 20260507182129 | 54 | 38 | 3.0 | 8.0 | 0.00 | 0.01 | 0.01 | 73 | 1012.6 |
| 20260507182043 | 54 | 355 | 3.0 | 8.0 | 0.00 | 0.01 | 0.01 | 73 | 1012.6 |
| 20260507181937 | 54 | 34 | 3.0 | 8.0 | 0.00 | 0.01 | 0.01 | 73 | 1012.6 |
| 20260507181858 | 55 | 54 | 4.0 | 8.0 | 0.00 | 0.01 | 0.01 | 72 | 1012.6 |
| 20260507181853 | 54 | 20 | 3.0 | 8.0 | 0.00 | 0.01 | 0.01 | 72 | 1012.5 |
| 20260507181845 | 54 | 27 | 3.0 | 8.0 | 0.00 | 0.01 | 0.01 | 72 | 1012.6 |
| 20260507181840 | 54 | 25 | 4.0 | 8.0 | 0.00 | 0.01 | 0.01 | 72 | 1012.6 |
| 20260507181537 | 55 | 52 | 3.0 | 8.0 | 0.00 | 0.01 | 0.01 | 72 | 1012.5 |
| 20260507181433 | 55 | 14 | 3.0 | 8.0 | 0.00 | 0.01 | 0.01 | 72 | 1012.5 |
| 20260507181333 | 55 | 34 | 3.0 | 8.0 | 0.00 | 0.01 | 0.01 | 72 | 1012.6 |
| 20260507181233 | 55 | 0 | 3.0 | 8.0 | 0.00 | 0.01 | 0.01 | 72 | 1012.5 |
| 20260507181129 | 55 | 11 | 3.0 | 8.0 | 0.00 | 0.01 | 0.01 | 73 | 1012.6 |
| 20260507181030 | 55 | 19 | 3.0 | 8.0 | 0.00 | 0.01 | 0.01 | 72 | 1012.6 |
| 20260507180930 | 55 | 31 | 3.0 | 8.0 | 0.00 | 0.01 | 0.01 | 72 | 1012.5 |
| 20260507180831 | 55 | 28 | 3.0 | 8.0 | 0.00 | 0.01 | 0.01 | 72 | 1012.5 |
| 20260507180730 | 55 | 319 | 3.0 | 7.0 | 0.00 | 0.01 | 0.01 | 73 | 1012.5 |
| 20260507180632 | 55 | 26 | 3.0 | 7.0 | 0.00 | 0.01 | 0.01 | 72 | 1012.5 |
| 20260507180628 | 55 | 55 | 3.0 | 7.0 | 0.00 | 0.01 | 0.01 | 72 | 1012.5 |
| 20260507180529 | 55 | 54 | 3.0 | 7.0 | 0.00 | 0.01 | 0.01 | 72 | 1012.4 |
| 20260507180429 | 55 | 60 | 3.0 | 7.0 | 0.00 | 0.01 | 0.01 | 72 | 1012.4 |
| 20260507180329 | 55 | 5 | 3.0 | 7.0 | 0.00 | 0.01 | 0.01 | 72 | 1012.4 |
| 20260507180229 | 55 | 17 | 3.0 | 7.0 | 0.00 | 0.01 | 0.01 | 72 | 1012.4 |
| 20260507180129 | 55 | 14 | 3.0 | 7.0 | 0.00 | 0.01 | 0.01 | 71 | 1012.4 |
| 20260507180029 | 55 | 18 | 3.0 | 7.0 | 0.00 | 0.01 | 0.01 | 71 | 1012.4 |
| 20260507175928 | 56 | 33 | 3.0 | 7.0 | 0.00 | 0.01 | 0.01 | 71 | 1012.4 |
| 20260507175853 | 56 | 12 | 3.0 | 7.0 | 0.00 | 0.01 | 0.01 | 71 | 1012.4 |
| 20260507175844 | 56 | 12 | 3.0 | 7.0 | 0.00 | 0.01 | 0.01 | 71 | 1012.4 |
| 20260507175840 | 56 | 355 | 3.0 | 6.0 | 0.00 | 0.01 | 0.01 | 71 | 1012.4 |
| 20260507175529 | 56 | 355 | 2.0 | 7.0 | 0.00 | 0.01 | 0.01 | 71 | 1012.4 |
| 20260507175429 | 56 | 36 | 3.0 | 7.0 | 0.00 | 0.01 | 0.01 | 71 | 1012.4 |
| 20260507175353 | 56 | 51 | 3.0 | 7.0 | 0.00 | 0.01 | 0.01 | 71 | 1012.4 |
| 20260507175345 | 56 | 35 | 3.0 | 10.0 | 0.00 | 0.01 | 0.01 | 71 | 1012.4 |
| 20260507175341 | 56 | 38 | 3.0 | 10.0 | 0.00 | 0.01 | 0.01 | 70 | 1012.4 |
| 20260507175029 | 56 | 23 | 3.0 | 10.0 | 0.00 | 0.01 | 0.01 | 70 | 1012.3 |
| 20260507174929 | 56 | 19 | 4.0 | 10.0 | 0.00 | 0.01 | 0.01 | 71 | 1012.3 |
| 20260507174829 | 56 | 19 | 4.0 | 10.0 | 0.00 | 0.01 | 0.01 | 70 | 1012.3 |
| 20260507174729 | 56 | 19 | 4.0 | 10.0 | 0.00 | 0.01 | 0.01 | 70 | 1012.3 |
| 20260507174628 | 56 | 355 | 4.0 | 10.0 | 0.00 | 0.01 | 0.01 | 70 | 1012.3 |
| 20260507174529 | 56 | 42 | 5.0 | 10.0 | 0.00 | 0.01 | 0.01 | 70 | 1012.3 |
| 20260507174429 | 56 | 44 | 5.0 | 10.0 | 0.00 | 0.01 | 0.01 | 70 | 1012.3 |
| 20260507174329 | 56 | 35 | 4.0 | 10.0 | 0.00 | 0.01 | 0.01 | 70 | 1012.3 |
| 20260507174228 | 56 | 36 | 4.0 | 9.0 | 0.00 | 0.01 | 0.01 | 70 | 1012.3 |
| 20260507174128 | 57 | 54 | 5.0 | 9.0 | 0.00 | 0.01 | 0.01 | 70 | 1012.3 |
| 20260507174028 | 57 | 53 | 5.0 | 9.0 | 0.00 | 0.01 | 0.01 | 70 | 1012.3 |
| 20260507173928 | 57 | 14 | 5.0 | 9.0 | 0.00 | 0.01 | 0.01 | 70 | 1012.3 |
| 20260507173853 | 57 | 29 | 4.0 | 9.0 | 0.00 | 0.01 | 0.01 | 70 | 1012.3 |
| 20260507173845 | 57 | 11 | 4.0 | 9.0 | 0.00 | 0.01 | 0.01 | 70 | 1012.3 |
| 20260507173840 | 57 | 0 | 4.0 | 9.0 | 0.00 | 0.01 | 0.01 | 70 | 1012.1 |
| 20260507173529 | 57 | 342 | 4.0 | 9.0 | 0.00 | 0.01 | 0.01 | 69 | 1012.1 |
| 20260507173429 | 57 | 5 | 4.0 | 9.0 | 0.00 | 0.01 | 0.01 | 69 | 1012.1 |
| 20260507173328 | 57 | 11 | 4.0 | 8.0 | 0.00 | 0.01 | 0.01 | 69 | 1012.1 |
| 20260507173228 | 57 | 17 | 4.0 | 8.0 | 0.00 | 0.01 | 0.01 | 69 | 1012.1 |
| 20260507173128 | 57 | 349 | 4.0 | 8.0 | 0.00 | 0.01 | 0.01 | 69 | 1012.1 |
| 20260507173124 | 57 | 350 | 4.0 | 8.0 | 0.00 | 0.01 | 0.01 | 69 | 1012.1 |
| 20260507173028 | 57 | 5 | 4.0 | 8.0 | 0.00 | 0.01 | 0.01 | 69 | 1012.1 |
| 20260507172929 | 57 | 350 | 3.0 | 8.0 | 0.00 | 0.01 | 0.01 | 68 | 1012.1 |
| 20260507172846 | 57 | 22 | 3.0 | 8.0 | 0.00 | 0.01 | 0.01 | 68 | 1012.1 |
| 20260507172833 | 57 | 52 | 3.0 | 8.0 | 0.00 | 0.01 | 0.01 | 69 | 1012.1 |
| 20260507172829 | 57 | 51 | 3.0 | 8.0 | 0.00 | 0.01 | 0.01 | 69 | 1012.1 |
| 20260507172529 | 57 | 5 | 3.0 | 8.0 | 0.00 | 0.01 | 0.01 | 69 | 1012.1 |
| 20260507172428 | 57 | 5 | 3.0 | 6.0 | 0.00 | 0.01 | 0.01 | 69 | 1012.1 |
| 20260507172328 | 57 | 23 | 3.0 | 6.0 | 0.00 | 0.01 | 0.01 | 69 | 1012.1 |
| 20260507172228 | 57 | 355 | 3.0 | 6.0 | 0.00 | 0.01 | 0.01 | 69 | 1012.1 |
| 20260507172129 | 57 | 355 | 2.0 | 6.0 | 0.00 | 0.01 | 0.01 | 69 | 1012.1 |
| 20260507172113 | 57 | 334 | 2.0 | 5.0 | 0.00 | 0.01 | 0.01 | 69 | 1012.1 |
| 20260507172029 | 57 | 355 | 2.0 | 5.0 | 0.00 | 0.01 | 0.01 | 69 | 1012.1 |
| 20260507171929 | 57 | 324 | 2.0 | 5.0 | 0.00 | 0.01 | 0.01 | 68 | 1012.1 |
| 20260507171829 | 57 | 355 | 2.0 | 5.0 | 0.00 | 0.01 | 0.01 | 68 | 1012.1 |
| 20260507171728 | 56 | 355 | 2.0 | 5.0 | 0.00 | 0.01 | 0.01 | 69 | 1012.1 |
| 20260507171629 | 56 | 355 | 3.0 | 5.0 | 0.00 | 0.01 | 0.01 | 69 | 1012.1 |
| 20260507171609 | 57 | 355 | 3.0 | 5.0 | 0.00 | 0.01 | 0.01 | 69 | 1012.1 |
| 20260507171529 | 56 | 299 | 3.0 | 6.0 | 0.00 | 0.01 | 0.01 | 69 | 1012.1 |
| 20260507171429 | 56 | 297 | 3.0 | 6.0 | 0.00 | 0.01 | 0.01 | 69 | 1012.1 |
| 20260507171329 | 56 | 336 | 3.0 | 7.0 | 0.00 | 0.01 | 0.01 | 69 | 1012.1 |
| 20260507171229 | 56 | 336 | 3.0 | 7.0 | 0.00 | 0.01 | 0.01 | 69 | 1012.1 |
| 20260507171129 | 57 | 342 | 4.0 | 9.0 | 0.00 | 0.01 | 0.01 | 69 | 1012.1 |
| 20260507171108 | 56 | 342 | 4.0 | 9.0 | 0.00 | 0.01 | 0.01 | 69 | 1012.1 |
| 20260507171029 | 57 | 342 | 4.0 | 9.0 | 0.00 | 0.01 | 0.01 | 68 | 1012.1 |
| 20260507170929 | 57 | 342 | 4.0 | 9.0 | 0.00 | 0.01 | 0.01 | 69 | 1012.1 |
| 20260507170828 | 57 | 338 | 4.0 | 9.0 | 0.00 | 0.01 | 0.01 | 69 | 1012.1 |
| 20260507170733 | 57 | 349 | 4.0 | 9.0 | 0.00 | 0.01 | 0.01 | 68 | 1012.1 |
| 20260507170629 | 57 | 36 | 4.0 | 9.0 | 0.00 | 0.01 | 0.01 | 68 | 1012.1 |
| 20260507170608 | 57 | 38 | 4.0 | 9.0 | 0.00 | 0.01 | 0.01 | 68 | 1012.1 |
| 20260507170528 | 57 | 350 | 3.0 | 9.0 | 0.00 | 0.01 | 0.01 | 68 | 1012.1 |
| 20260507170428 | 57 | 327 | 4.0 | 9.0 | 0.00 | 0.01 | 0.01 | 68 | 1012.1 |
| 20260507170328 | 57 | 17 | 4.0 | 9.0 | 0.00 | 0.01 | 0.01 | 67 | 1012.1 |
| 20260507170231 | 57 | 346 | 3.0 | 9.0 | 0.00 | 0.01 | 0.01 | 67 | 1012.1 |
| 20260507170129 | 57 | 332 | 3.0 | 8.0 | 0.00 | 0.01 | 0.01 | 67 | 1012.1 |
| 20260507170108 | 57 | 346 | 3.0 | 8.0 | 0.00 | 0.01 | 0.01 | 67 | 1012.1 |
| 20260507170029 | 57 | 22 | 3.0 | 8.0 | 0.00 | 0.01 | 0.01 | 67 | 1012.0 |
| 20260507165928 | 57 | 5 | 3.0 | 8.0 | 0.00 | 0.01 | 0.01 | 67 | 1012.1 |
| 20260507165828 | 57 | 327 | 3.0 | 8.0 | 0.00 | 0.01 | 0.01 | 67 | 1012.1 |
| 20260507165728 | 57 | 311 | 3.0 | 8.0 | 0.00 | 0.01 | 0.01 | 67 | 1012.0 |
| 20260507165628 | 57 | 348 | 4.0 | 8.0 | 0.00 | 0.01 | 0.01 | 67 | 1012.0 |
| 20260507165609 | 57 | 11 | 4.0 | 8.0 | 0.00 | 0.01 | 0.01 | 67 | 1012.0 |
| 20260507165528 | 57 | 11 | 4.0 | 8.0 | 0.00 | 0.01 | 0.01 | 67 | 1012.0 |
| 20260507165429 | 57 | 350 | 4.0 | 8.0 | 0.00 | 0.01 | 0.01 | 67 | 1012.0 |
| 20260507165329 | 57 | 355 | 4.0 | 8.0 | 0.00 | 0.01 | 0.01 | 66 | 1012.0 |
| 20260507165229 | 58 | 337 | 4.0 | 8.0 | 0.00 | 0.01 | 0.01 | 67 | 1012.0 |
| 20260507165129 | 58 | 350 | 4.0 | 8.0 | 0.00 | 0.01 | 0.01 | 66 | 1012.0 |
| 20260507165108 | 58 | 328 | 4.0 | 8.0 | 0.00 | 0.01 | 0.01 | 67 | 1012.0 |
| 20260507165029 | 58 | 350 | 4.0 | 8.0 | 0.00 | 0.01 | 0.01 | 67 | 1011.9 |
| 20260507164928 | 58 | 340 | 4.0 | 8.0 | 0.00 | 0.01 | 0.01 | 67 | 1012.0 |
| 20260507164828 | 58 | 301 | 4.0 | 8.0 | 0.00 | 0.01 | 0.01 | 66 | 1011.9 |
| 20260507164728 | 58 | 341 | 4.0 | 8.0 | 0.00 | 0.01 | 0.01 | 66 | 1011.9 |
| 20260507164629 | 58 | 10 | 4.0 | 8.0 | 0.00 | 0.01 | 0.01 | 66 | 1011.9 |
| 20260507164609 | 58 | 337 | 4.0 | 8.0 | 0.00 | 0.01 | 0.01 | 66 | 1011.9 |
| 20260507164529 | 58 | 355 | 4.0 | 8.0 | 0.00 | 0.01 | 0.01 | 66 | 1011.9 |
| 20260507164429 | 58 | 341 | 4.0 | 8.0 | 0.00 | 0.01 | 0.01 | 67 | 1011.9 |
| 20260507164328 | 58 | 316 | 4.0 | 9.0 | 0.00 | 0.01 | 0.01 | 66 | 1011.8 |
| 20260507164228 | 58 | 343 | 4.0 | 10.0 | 0.00 | 0.01 | 0.01 | 66 | 1011.8 |
| 20260507164108 | 58 | 306 | 4.0 | 11.0 | 0.00 | 0.01 | 0.01 | 66 | 1011.8 |
| 20260507164028 | 58 | 299 | 4.0 | 11.0 | 0.00 | 0.01 | 0.01 | 66 | 1011.8 |
| 20260507163928 | 58 | 28 | 4.0 | 11.0 | 0.00 | 0.01 | 0.01 | 66 | 1011.8 |
| 20260507163828 | 58 | 9 | 5.0 | 11.0 | 0.00 | 0.01 | 0.01 | 66 | 1011.8 |
| 20260507163728 | 58 | 5 | 5.0 | 11.0 | 0.00 | 0.01 | 0.01 | 66 | 1011.8 |
| 20260507163629 | 58 | 346 | 5.0 | 11.0 | 0.00 | 0.01 | 0.01 | 66 | 1011.8 |
| 20260507163608 | 58 | 355 | 5.0 | 11.0 | 0.00 | 0.01 | 0.01 | 66 | 1011.8 |
| 20260507163529 | 58 | 22 | 5.0 | 11.0 | 0.00 | 0.01 | 0.01 | 66 | 1011.8 |
| 20260507163429 | 58 | 342 | 5.0 | 11.0 | 0.00 | 0.01 | 0.01 | 66 | 1011.8 |
| 20260507163329 | 58 | 302 | 5.0 | 11.0 | 0.00 | 0.01 | 0.01 | 66 | 1011.8 |
| 20260507163229 | 58 | 338 | 5.0 | 11.0 | 0.00 | 0.01 | 0.01 | 66 | 1011.8 |
| 20260507163128 | 58 | 9 | 5.0 | 11.0 | 0.00 | 0.01 | 0.01 | 66 | 1011.7 |
| 20260507163109 | 58 | 34 | 5.0 | 11.0 | 0.00 | 0.01 | 0.01 | 66 | 1011.7 |
| 20260507163029 | 58 | 60 | 5.0 | 11.0 | 0.00 | 0.01 | 0.01 | 66 | 1011.8 |
| 20260507162929 | 58 | 9 | 5.0 | 11.0 | 0.00 | 0.01 | 0.01 | 66 | 1011.7 |
| 20260507162837 | 58 | 340 | 4.0 | 9.0 | 0.00 | 0.01 | 0.01 | 66 | 1011.8 |
| 20260507162833 | 58 | 20 | 4.0 | 11.0 | 0.00 | 0.01 | 0.01 | 66 | 1011.8 |
| 20260507162829 | 58 | 341 | 4.0 | 9.0 | 0.00 | 0.01 | 0.01 | 67 | 1011.8 |
| 20260507162821 | 58 | 62 | 4.0 | 9.0 | 0.00 | 0.01 | 0.01 | 66 | 1011.8 |
| 20260507162529 | 58 | 345 | 4.0 | 9.0 | 0.00 | 0.01 | 0.01 | 66 | 1011.7 |
| 20260507162429 | 58 | 355 | 5.0 | 10.0 | 0.00 | 0.01 | 0.01 | 66 | 1011.7 |
| 20260507162329 | 58 | 36 | 4.0 | 10.0 | 0.00 | 0.01 | 0.01 | 67 | 1011.8 |
| 20260507162229 | 58 | 311 | 4.0 | 10.0 | 0.00 | 0.01 | 0.01 | 67 | 1011.8 |
| 20260507162128 | 58 | 0 | 4.0 | 10.0 | 0.00 | 0.01 | 0.01 | 67 | 1011.8 |
| 20260507162108 | 58 | 5 | 4.0 | 10.0 | 0.00 | 0.01 | 0.01 | 67 | 1011.8 |
| 20260507162028 | 58 | 348 | 4.0 | 10.0 | 0.00 | 0.01 | 0.01 | 66 | 1011.8 |
| 20260507161928 | 58 | 341 | 4.0 | 10.0 | 0.00 | 0.01 | 0.01 | 67 | 1011.9 |
| 20260507161828 | 58 | 5 | 4.0 | 10.0 | 0.00 | 0.01 | 0.01 | 66 | 1011.8 |
| 20260507161729 | 58 | 338 | 4.0 | 10.0 | 0.00 | 0.01 | 0.01 | 67 | 1011.8 |
| 20260507161628 | 58 | 346 | 4.0 | 10.0 | 0.00 | 0.01 | 0.01 | 67 | 1011.8 |
| 20260507161602 | 58 | 355 | 4.0 | 10.0 | 0.00 | 0.01 | 0.01 | 67 | 1011.8 |
| 20260507161529 | 58 | 325 | 4.0 | 10.0 | 0.00 | 0.01 | 0.01 | 67 | 1011.8 |
| 20260507161429 | 58 | 337 | 4.0 | 9.0 | 0.00 | 0.01 | 0.01 | 67 | 1011.8 |
| 20260507161329 | 58 | 321 | 4.0 | 8.0 | 0.00 | 0.01 | 0.01 | 66 | 1011.8 |
| 20260507161229 | 58 | 321 | 4.0 | 9.0 | 0.00 | 0.01 | 0.01 | 66 | 1011.8 |
| 20260507161129 | 58 | 334 | 4.0 | 9.0 | 0.00 | 0.01 | 0.01 | 66 | 1011.8 |
| 20260507161102 | 58 | 322 | 4.0 | 9.0 | 0.00 | 0.01 | 0.01 | 66 | 1011.8 |
| 20260507161029 | 58 | 334 | 4.0 | 9.0 | 0.00 | 0.01 | 0.01 | 66 | 1011.8 |
| 20260507160929 | 58 | 340 | 4.0 | 9.0 | 0.00 | 0.01 | 0.01 | 67 | 1011.8 |
| 20260507160834 | 58 | 309 | 4.0 | 9.0 | 0.00 | 0.01 | 0.01 | 65 | 1011.8 |
| 20260507160828 | 58 | 339 | 4.0 | 9.0 | 0.00 | 0.01 | 0.01 | 66 | 1011.8 |
| 20260507160820 | 58 | 328 | 4.0 | 9.0 | 0.00 | 0.01 | 0.01 | 66 | 1011.8 |
| 20260507160812 | 58 | 329 | 4.0 | 9.0 | 0.00 | 0.01 | 0.01 | 66 | 1011.8 |
| 20260507160528 | 58 | 5 | 4.0 | 9.0 | 0.00 | 0.01 | 0.01 | 65 | 1011.8 |
| 20260507160428 | 58 | 22 | 4.0 | 9.0 | 0.00 | 0.01 | 0.01 | 66 | 1011.8 |
| 20260507160328 | 58 | 348 | 4.0 | 9.0 | 0.00 | 0.01 | 0.01 | 66 | 1011.8 |
| 20260507160228 | 58 | 23 | 4.0 | 9.0 | 0.00 | 0.01 | 0.01 | 66 | 1011.8 |
| 20260507160129 | 58 | 355 | 4.0 | 9.0 | 0.00 | 0.01 | 0.01 | 65 | 1011.8 |
| 20260507160100 | 58 | 14 | 4.0 | 9.0 | 0.00 | 0.01 | 0.01 | 66 | 1011.8 |
| 20260507160029 | 58 | 5 | 5.0 | 10.0 | 0.00 | 0.01 | 0.01 | 66 | 1011.8 |
| 20260507155929 | 58 | 346 | 5.0 | 10.0 | 0.00 | 0.01 | 0.01 | 65 | 1011.8 |
| 20260507155829 | 59 | 355 | 5.0 | 10.0 | 0.00 | 0.01 | 0.01 | 65 | 1011.9 |
| 20260507155728 | 59 | 333 | 5.0 | 11.0 | 0.00 | 0.01 | 0.01 | 65 | 1011.8 |
| 20260507155629 | 59 | 323 | 5.0 | 11.0 | 0.00 | 0.01 | 0.01 | 65 | 1011.8 |
| 20260507155600 | 59 | 337 | 5.0 | 11.0 | 0.00 | 0.01 | 0.01 | 65 | 1011.8 |
| 20260507155529 | 59 | 22 | 6.0 | 11.0 | 0.00 | 0.01 | 0.01 | 66 | 1011.8 |
| 20260507155429 | 59 | 312 | 6.0 | 11.0 | 0.00 | 0.01 | 0.01 | 65 | 1011.7 |
| 20260507155329 | 59 | 304 | 6.0 | 11.0 | 0.00 | 0.01 | 0.01 | 65 | 1011.7 |
| 20260507155228 | 59 | 338 | 7.0 | 12.0 | 0.00 | 0.01 | 0.01 | 64 | 1011.7 |
| 20260507155129 | 59 | 0 | 7.0 | 12.0 | 0.00 | 0.01 | 0.01 | 64 | 1011.7 |
| 20260507155101 | 59 | 328 | 7.0 | 12.0 | 0.00 | 0.01 | 0.01 | 64 | 1011.7 |
| 20260507155028 | 59 | 329 | 7.0 | 12.0 | 0.00 | 0.01 | 0.01 | 64 | 1011.7 |
| 20260507154928 | 59 | 320 | 7.0 | 12.0 | 0.00 | 0.01 | 0.01 | 64 | 1011.7 |
| 20260507154828 | 59 | 325 | 7.0 | 12.0 | 0.00 | 0.01 | 0.01 | 64 | 1011.8 |
| 20260507154728 | 59 | 309 | 7.0 | 12.0 | 0.00 | 0.01 | 0.01 | 63 | 1011.7 |
| 20260507154629 | 59 | 355 | 6.0 | 12.0 | 0.00 | 0.01 | 0.01 | 64 | 1011.7 |
| 20260507154600 | 59 | 355 | 6.0 | 12.0 | 0.00 | 0.01 | 0.01 | 63 | 1011.7 |
| 20260507154528 | 59 | 343 | 6.0 | 12.0 | 0.00 | 0.01 | 0.01 | 64 | 1011.7 |
| 20260507154429 | 60 | 342 | 6.0 | 12.0 | 0.00 | 0.01 | 0.01 | 63 | 1011.7 |
| 20260507154328 | 59 | 0 | 6.0 | 12.0 | 0.00 | 0.01 | 0.01 | 64 | 1011.8 |
| 20260507154230 | 59 | 355 | 6.0 | 13.0 | 0.00 | 0.01 | 0.01 | 65 | 1011.7 |
| 20260507154128 | 59 | 346 | 6.0 | 13.0 | 0.00 | 0.01 | 0.01 | 64 | 1011.7 |
| 20260507154102 | 59 | 346 | 6.0 | 13.0 | 0.00 | 0.01 | 0.01 | 63 | 1011.7 |
| 20260507154028 | 59 | 0 | 6.0 | 13.0 | 0.00 | 0.01 | 0.01 | 63 | 1011.7 |
| 20260507153928 | 59 | 340 | 6.0 | 13.0 | 0.00 | 0.01 | 0.01 | 62 | 1011.7 |
| 20260507153828 | 59 | 309 | 6.0 | 13.0 | 0.00 | 0.02 | 0.01 | 61 | 1011.7 |
| 20260507153728 | 59 | 319 | 6.0 | 13.0 | 0.00 | 0.02 | 0.01 | 63 | 1011.7 |
| 20260507153628 | 59 | 296 | 6.0 | 13.0 | 0.00 | 0.02 | 0.01 | 63 | 1011.8 |
| 20260507153601 | 59 | 294 | 6.0 | 13.0 | 0.00 | 0.02 | 0.01 | 62 | 1011.8 |
| 20260507153529 | 59 | 305 | 6.0 | 13.0 | 0.00 | 0.02 | 0.01 | 62 | 1011.8 |